<?xml version="1.0" encoding="UTF-8" standalone="no" ?>
<gpx xmlns="http://www.topografix.com/GPX/1/1" xmlns:xsi="http://www.w3.org/2001/XMLSchema-instance" xsi:schemaLocation="http://www.topografix.com/GPX/1/1 http://www.topografix.com/GPX/1/1/gpx.xsd" version="1.1" creator="VisuGPX - https://www.visugpx.com">
  <metadata>
    <name>au départ de Karlsbrunn</name>
    <desc><![CDATA[réalisable par tout temps]]></desc>
  </metadata>
  <trk>
    <name><![CDATA[Karlsbrunn]]></name>
    <trkseg>
      <trkpt lat="49.174" lon="6.8309">
        <ele>243</ele>
        <time>2013-04-03T06:31:19Z</time>
      </trkpt>
      <trkpt lat="49.17401" lon="6.8309">
        <ele>243</ele>
        <time>2013-04-03T06:31:20Z</time>
      </trkpt>
      <trkpt lat="49.17398" lon="6.83088">
        <ele>242.7</ele>
        <time>2013-04-03T06:31:29Z</time>
      </trkpt>
      <trkpt lat="49.17398" lon="6.83086">
        <ele>242.5</ele>
        <time>2013-04-03T06:31:34Z</time>
      </trkpt>
      <trkpt lat="49.17398" lon="6.83086">
        <ele>242.5</ele>
        <time>2013-04-03T06:31:39Z</time>
      </trkpt>
      <trkpt lat="49.17399" lon="6.83086">
        <ele>242.3</ele>
        <time>2013-04-03T06:31:44Z</time>
      </trkpt>
      <trkpt lat="49.17399" lon="6.83086">
        <ele>242.4</ele>
        <time>2013-04-03T06:31:49Z</time>
      </trkpt>
      <trkpt lat="49.174" lon="6.83084">
        <ele>242.2</ele>
        <time>2013-04-03T06:31:54Z</time>
      </trkpt>
      <trkpt lat="49.17403" lon="6.83082">
        <ele>242.4</ele>
        <time>2013-04-03T06:31:59Z</time>
      </trkpt>
      <trkpt lat="49.17405" lon="6.83082">
        <ele>242.4</ele>
        <time>2013-04-03T06:32:04Z</time>
      </trkpt>
      <trkpt lat="49.17406" lon="6.83082">
        <ele>242.9</ele>
        <time>2013-04-03T06:32:09Z</time>
      </trkpt>
      <trkpt lat="49.17406" lon="6.83083">
        <ele>242.2</ele>
        <time>2013-04-03T06:32:14Z</time>
      </trkpt>
      <trkpt lat="49.17406" lon="6.83082">
        <ele>242.5</ele>
        <time>2013-04-03T06:32:19Z</time>
      </trkpt>
      <trkpt lat="49.17406" lon="6.83083">
        <ele>242.1</ele>
        <time>2013-04-03T06:32:24Z</time>
      </trkpt>
      <trkpt lat="49.17406" lon="6.83083">
        <ele>242.1</ele>
        <time>2013-04-03T06:32:25Z</time>
      </trkpt>
      <trkpt lat="49.17404" lon="6.83085">
        <ele>242.6</ele>
        <time>2013-04-03T06:32:34Z</time>
      </trkpt>
      <trkpt lat="49.17403" lon="6.83087">
        <ele>243.1</ele>
        <time>2013-04-03T06:32:39Z</time>
      </trkpt>
      <trkpt lat="49.17403" lon="6.83087">
        <ele>243.8</ele>
        <time>2013-04-03T06:32:44Z</time>
      </trkpt>
      <trkpt lat="49.17403" lon="6.83087">
        <ele>242</ele>
        <time>2013-04-03T06:32:49Z</time>
      </trkpt>
      <trkpt lat="49.17404" lon="6.83087">
        <ele>241.8</ele>
        <time>2013-04-03T06:32:54Z</time>
      </trkpt>
      <trkpt lat="49.17409" lon="6.8309">
        <ele>242.2</ele>
        <time>2013-04-03T06:32:59Z</time>
      </trkpt>
      <trkpt lat="49.17412" lon="6.83096">
        <ele>242.3</ele>
        <time>2013-04-03T06:33:04Z</time>
      </trkpt>
      <trkpt lat="49.17414" lon="6.83104">
        <ele>242.4</ele>
        <time>2013-04-03T06:33:09Z</time>
      </trkpt>
      <trkpt lat="49.17416" lon="6.83109">
        <ele>241.7</ele>
        <time>2013-04-03T06:33:14Z</time>
      </trkpt>
      <trkpt lat="49.17419" lon="6.83115">
        <ele>241</ele>
        <time>2013-04-03T06:33:19Z</time>
      </trkpt>
      <trkpt lat="49.17422" lon="6.83121">
        <ele>241.1</ele>
        <time>2013-04-03T06:33:24Z</time>
      </trkpt>
      <trkpt lat="49.17424" lon="6.83128">
        <ele>240.9</ele>
        <time>2013-04-03T06:33:29Z</time>
      </trkpt>
      <trkpt lat="49.17425" lon="6.83129">
        <ele>240.7</ele>
        <time>2013-04-03T06:33:30Z</time>
      </trkpt>
      <trkpt lat="49.17428" lon="6.83145">
        <ele>240.3</ele>
        <time>2013-04-03T06:33:39Z</time>
      </trkpt>
      <trkpt lat="49.17431" lon="6.83152">
        <ele>240.4</ele>
        <time>2013-04-03T06:33:44Z</time>
      </trkpt>
      <trkpt lat="49.17434" lon="6.83159">
        <ele>240.3</ele>
        <time>2013-04-03T06:33:49Z</time>
      </trkpt>
      <trkpt lat="49.17436" lon="6.83168">
        <ele>239.8</ele>
        <time>2013-04-03T06:33:54Z</time>
      </trkpt>
      <trkpt lat="49.17436" lon="6.83177">
        <ele>239.8</ele>
        <time>2013-04-03T06:33:59Z</time>
      </trkpt>
      <trkpt lat="49.17438" lon="6.83186">
        <ele>238.9</ele>
        <time>2013-04-03T06:34:04Z</time>
      </trkpt>
      <trkpt lat="49.17441" lon="6.83193">
        <ele>238.6</ele>
        <time>2013-04-03T06:34:09Z</time>
      </trkpt>
      <trkpt lat="49.17445" lon="6.832">
        <ele>238.6</ele>
        <time>2013-04-03T06:34:14Z</time>
      </trkpt>
      <trkpt lat="49.17448" lon="6.83206">
        <ele>238.8</ele>
        <time>2013-04-03T06:34:19Z</time>
      </trkpt>
      <trkpt lat="49.17452" lon="6.83213">
        <ele>239.1</ele>
        <time>2013-04-03T06:34:24Z</time>
      </trkpt>
      <trkpt lat="49.17456" lon="6.83222">
        <ele>239.2</ele>
        <time>2013-04-03T06:34:29Z</time>
      </trkpt>
      <trkpt lat="49.17459" lon="6.83232">
        <ele>238.3</ele>
        <time>2013-04-03T06:34:34Z</time>
      </trkpt>
      <trkpt lat="49.1746" lon="6.83234">
        <ele>238.2</ele>
        <time>2013-04-03T06:34:35Z</time>
      </trkpt>
      <trkpt lat="49.17465" lon="6.83252">
        <ele>237.7</ele>
        <time>2013-04-03T06:34:44Z</time>
      </trkpt>
      <trkpt lat="49.17467" lon="6.83263">
        <ele>237.7</ele>
        <time>2013-04-03T06:34:49Z</time>
      </trkpt>
      <trkpt lat="49.17469" lon="6.83273">
        <ele>237.8</ele>
        <time>2013-04-03T06:34:54Z</time>
      </trkpt>
      <trkpt lat="49.17472" lon="6.83283">
        <ele>237.6</ele>
        <time>2013-04-03T06:34:59Z</time>
      </trkpt>
      <trkpt lat="49.17475" lon="6.83291">
        <ele>237.8</ele>
        <time>2013-04-03T06:35:04Z</time>
      </trkpt>
      <trkpt lat="49.17477" lon="6.83299">
        <ele>238.7</ele>
        <time>2013-04-03T06:35:09Z</time>
      </trkpt>
      <trkpt lat="49.17479" lon="6.8331">
        <ele>238.3</ele>
        <time>2013-04-03T06:35:14Z</time>
      </trkpt>
      <trkpt lat="49.17478" lon="6.83321">
        <ele>238.2</ele>
        <time>2013-04-03T06:35:19Z</time>
      </trkpt>
      <trkpt lat="49.17475" lon="6.8333">
        <ele>238</ele>
        <time>2013-04-03T06:35:24Z</time>
      </trkpt>
      <trkpt lat="49.17473" lon="6.83341">
        <ele>237.3</ele>
        <time>2013-04-03T06:35:29Z</time>
      </trkpt>
      <trkpt lat="49.17469" lon="6.8335">
        <ele>236.1</ele>
        <time>2013-04-03T06:35:34Z</time>
      </trkpt>
      <trkpt lat="49.17464" lon="6.83357">
        <ele>235.1</ele>
        <time>2013-04-03T06:35:39Z</time>
      </trkpt>
      <trkpt lat="49.17463" lon="6.83357">
        <ele>235</ele>
        <time>2013-04-03T06:35:40Z</time>
      </trkpt>
      <trkpt lat="49.17457" lon="6.8337">
        <ele>234</ele>
        <time>2013-04-03T06:35:49Z</time>
      </trkpt>
      <trkpt lat="49.17455" lon="6.83379">
        <ele>234.6</ele>
        <time>2013-04-03T06:35:54Z</time>
      </trkpt>
      <trkpt lat="49.17454" lon="6.83388">
        <ele>234.8</ele>
        <time>2013-04-03T06:35:59Z</time>
      </trkpt>
      <trkpt lat="49.17453" lon="6.83397">
        <ele>234.9</ele>
        <time>2013-04-03T06:36:04Z</time>
      </trkpt>
      <trkpt lat="49.17452" lon="6.83406">
        <ele>234.7</ele>
        <time>2013-04-03T06:36:09Z</time>
      </trkpt>
      <trkpt lat="49.17451" lon="6.83415">
        <ele>234.3</ele>
        <time>2013-04-03T06:36:14Z</time>
      </trkpt>
      <trkpt lat="49.1745" lon="6.83423">
        <ele>234.4</ele>
        <time>2013-04-03T06:36:19Z</time>
      </trkpt>
      <trkpt lat="49.17448" lon="6.83433">
        <ele>234.4</ele>
        <time>2013-04-03T06:36:24Z</time>
      </trkpt>
      <trkpt lat="49.17447" lon="6.83444">
        <ele>234.5</ele>
        <time>2013-04-03T06:36:29Z</time>
      </trkpt>
      <trkpt lat="49.17445" lon="6.83455">
        <ele>234.7</ele>
        <time>2013-04-03T06:36:34Z</time>
      </trkpt>
      <trkpt lat="49.17442" lon="6.83466">
        <ele>234.8</ele>
        <time>2013-04-03T06:36:39Z</time>
      </trkpt>
      <trkpt lat="49.17441" lon="6.83477">
        <ele>234.8</ele>
        <time>2013-04-03T06:36:44Z</time>
      </trkpt>
      <trkpt lat="49.17441" lon="6.83479">
        <ele>234.7</ele>
        <time>2013-04-03T06:36:45Z</time>
      </trkpt>
      <trkpt lat="49.17438" lon="6.83497">
        <ele>235.3</ele>
        <time>2013-04-03T06:36:54Z</time>
      </trkpt>
      <trkpt lat="49.17438" lon="6.83506">
        <ele>235</ele>
        <time>2013-04-03T06:36:59Z</time>
      </trkpt>
      <trkpt lat="49.1744" lon="6.83513">
        <ele>235.6</ele>
        <time>2013-04-03T06:37:04Z</time>
      </trkpt>
      <trkpt lat="49.17443" lon="6.83516">
        <ele>236.3</ele>
        <time>2013-04-03T06:37:09Z</time>
      </trkpt>
      <trkpt lat="49.17446" lon="6.83517">
        <ele>236.1</ele>
        <time>2013-04-03T06:37:14Z</time>
      </trkpt>
      <trkpt lat="49.17451" lon="6.83519">
        <ele>235.7</ele>
        <time>2013-04-03T06:37:19Z</time>
      </trkpt>
      <trkpt lat="49.17456" lon="6.83521">
        <ele>236.5</ele>
        <time>2013-04-03T06:37:24Z</time>
      </trkpt>
      <trkpt lat="49.17462" lon="6.83525">
        <ele>237.1</ele>
        <time>2013-04-03T06:37:29Z</time>
      </trkpt>
      <trkpt lat="49.17467" lon="6.8353">
        <ele>237.8</ele>
        <time>2013-04-03T06:37:34Z</time>
      </trkpt>
      <trkpt lat="49.17472" lon="6.83534">
        <ele>237.2</ele>
        <time>2013-04-03T06:37:39Z</time>
      </trkpt>
      <trkpt lat="49.17477" lon="6.83539">
        <ele>237.2</ele>
        <time>2013-04-03T06:37:44Z</time>
      </trkpt>
      <trkpt lat="49.17481" lon="6.83545">
        <ele>237.7</ele>
        <time>2013-04-03T06:37:49Z</time>
      </trkpt>
      <trkpt lat="49.17482" lon="6.83546">
        <ele>238</ele>
        <time>2013-04-03T06:37:50Z</time>
      </trkpt>
      <trkpt lat="49.1749" lon="6.83558">
        <ele>237.2</ele>
        <time>2013-04-03T06:37:59Z</time>
      </trkpt>
      <trkpt lat="49.17494" lon="6.83565">
        <ele>237.5</ele>
        <time>2013-04-03T06:38:04Z</time>
      </trkpt>
      <trkpt lat="49.17497" lon="6.83572">
        <ele>237.5</ele>
        <time>2013-04-03T06:38:09Z</time>
      </trkpt>
      <trkpt lat="49.17501" lon="6.83581">
        <ele>237.4</ele>
        <time>2013-04-03T06:38:14Z</time>
      </trkpt>
      <trkpt lat="49.17504" lon="6.83588">
        <ele>236.5</ele>
        <time>2013-04-03T06:38:19Z</time>
      </trkpt>
      <trkpt lat="49.17507" lon="6.83596">
        <ele>235.9</ele>
        <time>2013-04-03T06:38:24Z</time>
      </trkpt>
      <trkpt lat="49.17511" lon="6.83603">
        <ele>235.8</ele>
        <time>2013-04-03T06:38:29Z</time>
      </trkpt>
      <trkpt lat="49.17515" lon="6.83611">
        <ele>235.8</ele>
        <time>2013-04-03T06:38:34Z</time>
      </trkpt>
      <trkpt lat="49.17517" lon="6.8362">
        <ele>235.6</ele>
        <time>2013-04-03T06:38:39Z</time>
      </trkpt>
      <trkpt lat="49.17521" lon="6.83628">
        <ele>236</ele>
        <time>2013-04-03T06:38:44Z</time>
      </trkpt>
      <trkpt lat="49.17523" lon="6.83637">
        <ele>235.5</ele>
        <time>2013-04-03T06:38:49Z</time>
      </trkpt>
      <trkpt lat="49.17525" lon="6.83646">
        <ele>235</ele>
        <time>2013-04-03T06:38:54Z</time>
      </trkpt>
      <trkpt lat="49.17526" lon="6.83648">
        <ele>234.8</ele>
        <time>2013-04-03T06:38:55Z</time>
      </trkpt>
      <trkpt lat="49.1753" lon="6.83669">
        <ele>235.6</ele>
        <time>2013-04-03T06:39:04Z</time>
      </trkpt>
      <trkpt lat="49.17532" lon="6.83679">
        <ele>234.7</ele>
        <time>2013-04-03T06:39:09Z</time>
      </trkpt>
      <trkpt lat="49.17533" lon="6.83689">
        <ele>235.2</ele>
        <time>2013-04-03T06:39:14Z</time>
      </trkpt>
      <trkpt lat="49.17535" lon="6.83699">
        <ele>234.6</ele>
        <time>2013-04-03T06:39:19Z</time>
      </trkpt>
      <trkpt lat="49.17537" lon="6.83709">
        <ele>234.7</ele>
        <time>2013-04-03T06:39:24Z</time>
      </trkpt>
      <trkpt lat="49.17539" lon="6.83721">
        <ele>234.7</ele>
        <time>2013-04-03T06:39:29Z</time>
      </trkpt>
      <trkpt lat="49.1754" lon="6.83734">
        <ele>235.1</ele>
        <time>2013-04-03T06:39:34Z</time>
      </trkpt>
      <trkpt lat="49.17541" lon="6.83746">
        <ele>234.7</ele>
        <time>2013-04-03T06:39:39Z</time>
      </trkpt>
      <trkpt lat="49.17543" lon="6.83758">
        <ele>234.5</ele>
        <time>2013-04-03T06:39:44Z</time>
      </trkpt>
      <trkpt lat="49.17545" lon="6.83768">
        <ele>234.5</ele>
        <time>2013-04-03T06:39:49Z</time>
      </trkpt>
      <trkpt lat="49.17548" lon="6.83776">
        <ele>235</ele>
        <time>2013-04-03T06:39:54Z</time>
      </trkpt>
      <trkpt lat="49.17551" lon="6.83781">
        <ele>234.5</ele>
        <time>2013-04-03T06:39:59Z</time>
      </trkpt>
      <trkpt lat="49.17551" lon="6.83782">
        <ele>234.6</ele>
        <time>2013-04-03T06:40:00Z</time>
      </trkpt>
      <trkpt lat="49.17559" lon="6.83788">
        <ele>234.6</ele>
        <time>2013-04-03T06:40:09Z</time>
      </trkpt>
      <trkpt lat="49.17567" lon="6.8379">
        <ele>233.9</ele>
        <time>2013-04-03T06:40:14Z</time>
      </trkpt>
      <trkpt lat="49.17574" lon="6.8379">
        <ele>234.4</ele>
        <time>2013-04-03T06:40:19Z</time>
      </trkpt>
      <trkpt lat="49.17581" lon="6.83792">
        <ele>233.9</ele>
        <time>2013-04-03T06:40:24Z</time>
      </trkpt>
      <trkpt lat="49.17586" lon="6.83794">
        <ele>233.9</ele>
        <time>2013-04-03T06:40:29Z</time>
      </trkpt>
      <trkpt lat="49.17592" lon="6.83798">
        <ele>234.2</ele>
        <time>2013-04-03T06:40:34Z</time>
      </trkpt>
      <trkpt lat="49.17598" lon="6.83803">
        <ele>233.6</ele>
        <time>2013-04-03T06:40:39Z</time>
      </trkpt>
      <trkpt lat="49.17603" lon="6.83809">
        <ele>233.3</ele>
        <time>2013-04-03T06:40:44Z</time>
      </trkpt>
      <trkpt lat="49.17608" lon="6.83816">
        <ele>233.3</ele>
        <time>2013-04-03T06:40:49Z</time>
      </trkpt>
      <trkpt lat="49.17611" lon="6.83823">
        <ele>233.4</ele>
        <time>2013-04-03T06:40:54Z</time>
      </trkpt>
      <trkpt lat="49.17614" lon="6.8383">
        <ele>233.5</ele>
        <time>2013-04-03T06:40:59Z</time>
      </trkpt>
      <trkpt lat="49.17618" lon="6.83837">
        <ele>233</ele>
        <time>2013-04-03T06:41:04Z</time>
      </trkpt>
      <trkpt lat="49.17619" lon="6.83839">
        <ele>232.7</ele>
        <time>2013-04-03T06:41:05Z</time>
      </trkpt>
      <trkpt lat="49.17625" lon="6.83854">
        <ele>232.4</ele>
        <time>2013-04-03T06:41:14Z</time>
      </trkpt>
      <trkpt lat="49.17628" lon="6.83862">
        <ele>231.9</ele>
        <time>2013-04-03T06:41:19Z</time>
      </trkpt>
      <trkpt lat="49.17631" lon="6.8387">
        <ele>232.3</ele>
        <time>2013-04-03T06:41:24Z</time>
      </trkpt>
      <trkpt lat="49.17634" lon="6.8388">
        <ele>232.2</ele>
        <time>2013-04-03T06:41:29Z</time>
      </trkpt>
      <trkpt lat="49.17636" lon="6.83887">
        <ele>232.1</ele>
        <time>2013-04-03T06:41:34Z</time>
      </trkpt>
      <trkpt lat="49.17639" lon="6.83897">
        <ele>232.1</ele>
        <time>2013-04-03T06:41:39Z</time>
      </trkpt>
      <trkpt lat="49.17641" lon="6.83907">
        <ele>231.9</ele>
        <time>2013-04-03T06:41:44Z</time>
      </trkpt>
      <trkpt lat="49.17644" lon="6.83917">
        <ele>231.9</ele>
        <time>2013-04-03T06:41:49Z</time>
      </trkpt>
      <trkpt lat="49.17647" lon="6.83926">
        <ele>232.1</ele>
        <time>2013-04-03T06:41:54Z</time>
      </trkpt>
      <trkpt lat="49.1765" lon="6.83934">
        <ele>231.6</ele>
        <time>2013-04-03T06:41:59Z</time>
      </trkpt>
      <trkpt lat="49.17653" lon="6.83941">
        <ele>231.6</ele>
        <time>2013-04-03T06:42:04Z</time>
      </trkpt>
      <trkpt lat="49.17657" lon="6.83946">
        <ele>232</ele>
        <time>2013-04-03T06:42:09Z</time>
      </trkpt>
      <trkpt lat="49.17658" lon="6.83947">
        <ele>232.2</ele>
        <time>2013-04-03T06:42:10Z</time>
      </trkpt>
      <trkpt lat="49.17661" lon="6.83958">
        <ele>232.1</ele>
        <time>2013-04-03T06:42:19Z</time>
      </trkpt>
      <trkpt lat="49.17664" lon="6.83965">
        <ele>232.2</ele>
        <time>2013-04-03T06:42:24Z</time>
      </trkpt>
      <trkpt lat="49.17667" lon="6.83972">
        <ele>232.4</ele>
        <time>2013-04-03T06:42:29Z</time>
      </trkpt>
      <trkpt lat="49.17671" lon="6.83978">
        <ele>232.7</ele>
        <time>2013-04-03T06:42:34Z</time>
      </trkpt>
      <trkpt lat="49.17674" lon="6.83985">
        <ele>231.9</ele>
        <time>2013-04-03T06:42:39Z</time>
      </trkpt>
      <trkpt lat="49.17678" lon="6.83991">
        <ele>231.9</ele>
        <time>2013-04-03T06:42:44Z</time>
      </trkpt>
      <trkpt lat="49.17683" lon="6.83999">
        <ele>232</ele>
        <time>2013-04-03T06:42:49Z</time>
      </trkpt>
      <trkpt lat="49.17688" lon="6.84006">
        <ele>232.2</ele>
        <time>2013-04-03T06:42:54Z</time>
      </trkpt>
      <trkpt lat="49.17692" lon="6.84014">
        <ele>232.4</ele>
        <time>2013-04-03T06:42:59Z</time>
      </trkpt>
      <trkpt lat="49.17695" lon="6.84021">
        <ele>232.1</ele>
        <time>2013-04-03T06:43:04Z</time>
      </trkpt>
      <trkpt lat="49.17699" lon="6.84028">
        <ele>231.8</ele>
        <time>2013-04-03T06:43:09Z</time>
      </trkpt>
      <trkpt lat="49.17704" lon="6.84036">
        <ele>231.6</ele>
        <time>2013-04-03T06:43:14Z</time>
      </trkpt>
      <trkpt lat="49.17704" lon="6.84037">
        <ele>231.9</ele>
        <time>2013-04-03T06:43:15Z</time>
      </trkpt>
      <trkpt lat="49.17712" lon="6.84052">
        <ele>231.8</ele>
        <time>2013-04-03T06:43:24Z</time>
      </trkpt>
      <trkpt lat="49.17716" lon="6.84059">
        <ele>230.6</ele>
        <time>2013-04-03T06:43:29Z</time>
      </trkpt>
      <trkpt lat="49.1772" lon="6.84066">
        <ele>230.7</ele>
        <time>2013-04-03T06:43:34Z</time>
      </trkpt>
      <trkpt lat="49.17724" lon="6.84073">
        <ele>230.7</ele>
        <time>2013-04-03T06:43:39Z</time>
      </trkpt>
      <trkpt lat="49.17726" lon="6.84081">
        <ele>231</ele>
        <time>2013-04-03T06:43:44Z</time>
      </trkpt>
      <trkpt lat="49.1773" lon="6.84088">
        <ele>230.3</ele>
        <time>2013-04-03T06:43:49Z</time>
      </trkpt>
      <trkpt lat="49.17734" lon="6.84095">
        <ele>231</ele>
        <time>2013-04-03T06:43:54Z</time>
      </trkpt>
      <trkpt lat="49.17738" lon="6.84102">
        <ele>230.6</ele>
        <time>2013-04-03T06:43:59Z</time>
      </trkpt>
      <trkpt lat="49.17743" lon="6.84109">
        <ele>230.7</ele>
        <time>2013-04-03T06:44:04Z</time>
      </trkpt>
      <trkpt lat="49.17747" lon="6.84117">
        <ele>230.2</ele>
        <time>2013-04-03T06:44:09Z</time>
      </trkpt>
      <trkpt lat="49.17751" lon="6.84125">
        <ele>229.9</ele>
        <time>2013-04-03T06:44:14Z</time>
      </trkpt>
      <trkpt lat="49.17756" lon="6.84133">
        <ele>230.4</ele>
        <time>2013-04-03T06:44:19Z</time>
      </trkpt>
      <trkpt lat="49.17757" lon="6.84135">
        <ele>230.4</ele>
        <time>2013-04-03T06:44:20Z</time>
      </trkpt>
      <trkpt lat="49.17767" lon="6.84148">
        <ele>230.4</ele>
        <time>2013-04-03T06:44:29Z</time>
      </trkpt>
      <trkpt lat="49.17773" lon="6.84155">
        <ele>231.4</ele>
        <time>2013-04-03T06:44:34Z</time>
      </trkpt>
      <trkpt lat="49.17778" lon="6.84162">
        <ele>231.4</ele>
        <time>2013-04-03T06:44:39Z</time>
      </trkpt>
      <trkpt lat="49.17781" lon="6.84169">
        <ele>230.7</ele>
        <time>2013-04-03T06:44:44Z</time>
      </trkpt>
      <trkpt lat="49.17786" lon="6.84175">
        <ele>230.6</ele>
        <time>2013-04-03T06:44:49Z</time>
      </trkpt>
      <trkpt lat="49.1779" lon="6.84181">
        <ele>230.8</ele>
        <time>2013-04-03T06:44:54Z</time>
      </trkpt>
      <trkpt lat="49.17795" lon="6.84186">
        <ele>230.3</ele>
        <time>2013-04-03T06:44:59Z</time>
      </trkpt>
      <trkpt lat="49.17799" lon="6.84192">
        <ele>230</ele>
        <time>2013-04-03T06:45:04Z</time>
      </trkpt>
      <trkpt lat="49.17805" lon="6.84198">
        <ele>230.2</ele>
        <time>2013-04-03T06:45:09Z</time>
      </trkpt>
      <trkpt lat="49.17811" lon="6.84206">
        <ele>230.4</ele>
        <time>2013-04-03T06:45:14Z</time>
      </trkpt>
      <trkpt lat="49.17816" lon="6.84212">
        <ele>230.1</ele>
        <time>2013-04-03T06:45:19Z</time>
      </trkpt>
      <trkpt lat="49.17819" lon="6.84217">
        <ele>230</ele>
        <time>2013-04-03T06:45:24Z</time>
      </trkpt>
      <trkpt lat="49.1782" lon="6.84218">
        <ele>230.1</ele>
        <time>2013-04-03T06:45:25Z</time>
      </trkpt>
      <trkpt lat="49.17828" lon="6.84229">
        <ele>230.5</ele>
        <time>2013-04-03T06:45:34Z</time>
      </trkpt>
      <trkpt lat="49.17833" lon="6.84235">
        <ele>230.3</ele>
        <time>2013-04-03T06:45:39Z</time>
      </trkpt>
      <trkpt lat="49.17837" lon="6.84241">
        <ele>229.8</ele>
        <time>2013-04-03T06:45:44Z</time>
      </trkpt>
      <trkpt lat="49.17843" lon="6.84246">
        <ele>230.1</ele>
        <time>2013-04-03T06:45:49Z</time>
      </trkpt>
      <trkpt lat="49.17849" lon="6.8425">
        <ele>229.6</ele>
        <time>2013-04-03T06:45:54Z</time>
      </trkpt>
      <trkpt lat="49.17855" lon="6.84255">
        <ele>229.8</ele>
        <time>2013-04-03T06:45:59Z</time>
      </trkpt>
      <trkpt lat="49.1786" lon="6.84258">
        <ele>229.3</ele>
        <time>2013-04-03T06:46:04Z</time>
      </trkpt>
      <trkpt lat="49.17864" lon="6.84261">
        <ele>229.9</ele>
        <time>2013-04-03T06:46:09Z</time>
      </trkpt>
      <trkpt lat="49.1787" lon="6.84264">
        <ele>230</ele>
        <time>2013-04-03T06:46:14Z</time>
      </trkpt>
      <trkpt lat="49.17875" lon="6.84267">
        <ele>230.2</ele>
        <time>2013-04-03T06:46:19Z</time>
      </trkpt>
      <trkpt lat="49.17881" lon="6.8427">
        <ele>230.3</ele>
        <time>2013-04-03T06:46:24Z</time>
      </trkpt>
      <trkpt lat="49.17886" lon="6.84273">
        <ele>229.9</ele>
        <time>2013-04-03T06:46:29Z</time>
      </trkpt>
      <trkpt lat="49.17887" lon="6.84274">
        <ele>230</ele>
        <time>2013-04-03T06:46:30Z</time>
      </trkpt>
      <trkpt lat="49.17897" lon="6.8428">
        <ele>229.6</ele>
        <time>2013-04-03T06:46:39Z</time>
      </trkpt>
      <trkpt lat="49.17903" lon="6.84283">
        <ele>229.3</ele>
        <time>2013-04-03T06:46:44Z</time>
      </trkpt>
      <trkpt lat="49.1791" lon="6.84286">
        <ele>229.3</ele>
        <time>2013-04-03T06:46:49Z</time>
      </trkpt>
      <trkpt lat="49.17916" lon="6.84289">
        <ele>229.2</ele>
        <time>2013-04-03T06:46:54Z</time>
      </trkpt>
      <trkpt lat="49.17922" lon="6.84292">
        <ele>228.8</ele>
        <time>2013-04-03T06:46:59Z</time>
      </trkpt>
      <trkpt lat="49.17927" lon="6.84295">
        <ele>229.5</ele>
        <time>2013-04-03T06:47:04Z</time>
      </trkpt>
      <trkpt lat="49.17934" lon="6.84297">
        <ele>229.1</ele>
        <time>2013-04-03T06:47:09Z</time>
      </trkpt>
      <trkpt lat="49.17939" lon="6.843">
        <ele>228.3</ele>
        <time>2013-04-03T06:47:14Z</time>
      </trkpt>
      <trkpt lat="49.17947" lon="6.84304">
        <ele>228.6</ele>
        <time>2013-04-03T06:47:19Z</time>
      </trkpt>
      <trkpt lat="49.17953" lon="6.84308">
        <ele>229</ele>
        <time>2013-04-03T06:47:24Z</time>
      </trkpt>
      <trkpt lat="49.17959" lon="6.84312">
        <ele>229.7</ele>
        <time>2013-04-03T06:47:29Z</time>
      </trkpt>
      <trkpt lat="49.17966" lon="6.84315">
        <ele>228.8</ele>
        <time>2013-04-03T06:47:34Z</time>
      </trkpt>
      <trkpt lat="49.17967" lon="6.84316">
        <ele>228.9</ele>
        <time>2013-04-03T06:47:35Z</time>
      </trkpt>
      <trkpt lat="49.17979" lon="6.84324">
        <ele>229.4</ele>
        <time>2013-04-03T06:47:44Z</time>
      </trkpt>
      <trkpt lat="49.17985" lon="6.84327">
        <ele>229</ele>
        <time>2013-04-03T06:47:49Z</time>
      </trkpt>
      <trkpt lat="49.17992" lon="6.84332">
        <ele>228.5</ele>
        <time>2013-04-03T06:47:54Z</time>
      </trkpt>
      <trkpt lat="49.17999" lon="6.84336">
        <ele>228.7</ele>
        <time>2013-04-03T06:47:59Z</time>
      </trkpt>
      <trkpt lat="49.18005" lon="6.84342">
        <ele>229</ele>
        <time>2013-04-03T06:48:04Z</time>
      </trkpt>
      <trkpt lat="49.18012" lon="6.84349">
        <ele>229</ele>
        <time>2013-04-03T06:48:09Z</time>
      </trkpt>
      <trkpt lat="49.18019" lon="6.84356">
        <ele>228.7</ele>
        <time>2013-04-03T06:48:14Z</time>
      </trkpt>
      <trkpt lat="49.18026" lon="6.84363">
        <ele>229.6</ele>
        <time>2013-04-03T06:48:19Z</time>
      </trkpt>
      <trkpt lat="49.18032" lon="6.8437">
        <ele>229.6</ele>
        <time>2013-04-03T06:48:24Z</time>
      </trkpt>
      <trkpt lat="49.18037" lon="6.84377">
        <ele>228.9</ele>
        <time>2013-04-03T06:48:29Z</time>
      </trkpt>
      <trkpt lat="49.18042" lon="6.84383">
        <ele>229.1</ele>
        <time>2013-04-03T06:48:34Z</time>
      </trkpt>
      <trkpt lat="49.18046" lon="6.84389">
        <ele>229</ele>
        <time>2013-04-03T06:48:39Z</time>
      </trkpt>
      <trkpt lat="49.18047" lon="6.8439">
        <ele>229</ele>
        <time>2013-04-03T06:48:40Z</time>
      </trkpt>
      <trkpt lat="49.18053" lon="6.84402">
        <ele>228.8</ele>
        <time>2013-04-03T06:48:49Z</time>
      </trkpt>
      <trkpt lat="49.18058" lon="6.84408">
        <ele>228.8</ele>
        <time>2013-04-03T06:48:54Z</time>
      </trkpt>
      <trkpt lat="49.18062" lon="6.84415">
        <ele>229</ele>
        <time>2013-04-03T06:48:59Z</time>
      </trkpt>
      <trkpt lat="49.18066" lon="6.84422">
        <ele>228.7</ele>
        <time>2013-04-03T06:49:04Z</time>
      </trkpt>
      <trkpt lat="49.18069" lon="6.84429">
        <ele>228.5</ele>
        <time>2013-04-03T06:49:09Z</time>
      </trkpt>
      <trkpt lat="49.18072" lon="6.84437">
        <ele>228.8</ele>
        <time>2013-04-03T06:49:14Z</time>
      </trkpt>
      <trkpt lat="49.18075" lon="6.84444">
        <ele>228.9</ele>
        <time>2013-04-03T06:49:19Z</time>
      </trkpt>
      <trkpt lat="49.18079" lon="6.84452">
        <ele>228.6</ele>
        <time>2013-04-03T06:49:24Z</time>
      </trkpt>
      <trkpt lat="49.18082" lon="6.84461">
        <ele>228.7</ele>
        <time>2013-04-03T06:49:29Z</time>
      </trkpt>
      <trkpt lat="49.18085" lon="6.84469">
        <ele>228.6</ele>
        <time>2013-04-03T06:49:34Z</time>
      </trkpt>
      <trkpt lat="49.18089" lon="6.84478">
        <ele>229.3</ele>
        <time>2013-04-03T06:49:39Z</time>
      </trkpt>
      <trkpt lat="49.18091" lon="6.84488">
        <ele>228.6</ele>
        <time>2013-04-03T06:49:44Z</time>
      </trkpt>
      <trkpt lat="49.18092" lon="6.8449">
        <ele>228.6</ele>
        <time>2013-04-03T06:49:45Z</time>
      </trkpt>
      <trkpt lat="49.18098" lon="6.84506">
        <ele>228.4</ele>
        <time>2013-04-03T06:49:54Z</time>
      </trkpt>
      <trkpt lat="49.18102" lon="6.84514">
        <ele>228.7</ele>
        <time>2013-04-03T06:49:59Z</time>
      </trkpt>
      <trkpt lat="49.18106" lon="6.84524">
        <ele>228.2</ele>
        <time>2013-04-03T06:50:04Z</time>
      </trkpt>
      <trkpt lat="49.18109" lon="6.84532">
        <ele>228</ele>
        <time>2013-04-03T06:50:09Z</time>
      </trkpt>
      <trkpt lat="49.18112" lon="6.84542">
        <ele>227.9</ele>
        <time>2013-04-03T06:50:14Z</time>
      </trkpt>
      <trkpt lat="49.18115" lon="6.84553">
        <ele>228.1</ele>
        <time>2013-04-03T06:50:19Z</time>
      </trkpt>
      <trkpt lat="49.18118" lon="6.84562">
        <ele>228</ele>
        <time>2013-04-03T06:50:24Z</time>
      </trkpt>
      <trkpt lat="49.18121" lon="6.84569">
        <ele>227.6</ele>
        <time>2013-04-03T06:50:29Z</time>
      </trkpt>
      <trkpt lat="49.18124" lon="6.84577">
        <ele>227.5</ele>
        <time>2013-04-03T06:50:34Z</time>
      </trkpt>
      <trkpt lat="49.18126" lon="6.84584">
        <ele>228.5</ele>
        <time>2013-04-03T06:50:39Z</time>
      </trkpt>
      <trkpt lat="49.18128" lon="6.84593">
        <ele>228.2</ele>
        <time>2013-04-03T06:50:44Z</time>
      </trkpt>
      <trkpt lat="49.18131" lon="6.84603">
        <ele>227.8</ele>
        <time>2013-04-03T06:50:49Z</time>
      </trkpt>
      <trkpt lat="49.18131" lon="6.84605">
        <ele>227.9</ele>
        <time>2013-04-03T06:50:50Z</time>
      </trkpt>
      <trkpt lat="49.18142" lon="6.84613">
        <ele>227.4</ele>
        <time>2013-04-03T06:50:59Z</time>
      </trkpt>
      <trkpt lat="49.18147" lon="6.8461">
        <ele>227.1</ele>
        <time>2013-04-03T06:51:04Z</time>
      </trkpt>
      <trkpt lat="49.18152" lon="6.84606">
        <ele>226.7</ele>
        <time>2013-04-03T06:51:09Z</time>
      </trkpt>
      <trkpt lat="49.18158" lon="6.846">
        <ele>226.9</ele>
        <time>2013-04-03T06:51:14Z</time>
      </trkpt>
      <trkpt lat="49.18164" lon="6.84594">
        <ele>227.1</ele>
        <time>2013-04-03T06:51:19Z</time>
      </trkpt>
      <trkpt lat="49.1817" lon="6.84587">
        <ele>226.6</ele>
        <time>2013-04-03T06:51:24Z</time>
      </trkpt>
      <trkpt lat="49.18176" lon="6.8458">
        <ele>226.7</ele>
        <time>2013-04-03T06:51:29Z</time>
      </trkpt>
      <trkpt lat="49.18181" lon="6.84572">
        <ele>227</ele>
        <time>2013-04-03T06:51:34Z</time>
      </trkpt>
      <trkpt lat="49.18185" lon="6.84565">
        <ele>227.9</ele>
        <time>2013-04-03T06:51:39Z</time>
      </trkpt>
      <trkpt lat="49.18188" lon="6.84557">
        <ele>227.8</ele>
        <time>2013-04-03T06:51:44Z</time>
      </trkpt>
      <trkpt lat="49.1819" lon="6.84547">
        <ele>227.8</ele>
        <time>2013-04-03T06:51:49Z</time>
      </trkpt>
      <trkpt lat="49.1819" lon="6.84538">
        <ele>228</ele>
        <time>2013-04-03T06:51:54Z</time>
      </trkpt>
      <trkpt lat="49.18189" lon="6.84537">
        <ele>227.9</ele>
        <time>2013-04-03T06:51:55Z</time>
      </trkpt>
      <trkpt lat="49.18187" lon="6.8452">
        <ele>228.6</ele>
        <time>2013-04-03T06:52:04Z</time>
      </trkpt>
      <trkpt lat="49.18185" lon="6.84511">
        <ele>229.1</ele>
        <time>2013-04-03T06:52:09Z</time>
      </trkpt>
      <trkpt lat="49.18183" lon="6.84503">
        <ele>229.2</ele>
        <time>2013-04-03T06:52:14Z</time>
      </trkpt>
      <trkpt lat="49.18181" lon="6.84494">
        <ele>229.8</ele>
        <time>2013-04-03T06:52:19Z</time>
      </trkpt>
      <trkpt lat="49.1818" lon="6.84485">
        <ele>229.7</ele>
        <time>2013-04-03T06:52:24Z</time>
      </trkpt>
      <trkpt lat="49.18178" lon="6.84476">
        <ele>230.8</ele>
        <time>2013-04-03T06:52:29Z</time>
      </trkpt>
      <trkpt lat="49.18177" lon="6.84467">
        <ele>231.1</ele>
        <time>2013-04-03T06:52:34Z</time>
      </trkpt>
      <trkpt lat="49.18175" lon="6.84458">
        <ele>231.6</ele>
        <time>2013-04-03T06:52:39Z</time>
      </trkpt>
      <trkpt lat="49.18174" lon="6.84449">
        <ele>232.5</ele>
        <time>2013-04-03T06:52:44Z</time>
      </trkpt>
      <trkpt lat="49.18173" lon="6.84441">
        <ele>232.7</ele>
        <time>2013-04-03T06:52:49Z</time>
      </trkpt>
      <trkpt lat="49.18172" lon="6.84432">
        <ele>233</ele>
        <time>2013-04-03T06:52:54Z</time>
      </trkpt>
      <trkpt lat="49.1817" lon="6.84424">
        <ele>234.6</ele>
        <time>2013-04-03T06:52:59Z</time>
      </trkpt>
      <trkpt lat="49.18169" lon="6.84422">
        <ele>234.8</ele>
        <time>2013-04-03T06:53:00Z</time>
      </trkpt>
      <trkpt lat="49.18165" lon="6.84408">
        <ele>235.4</ele>
        <time>2013-04-03T06:53:09Z</time>
      </trkpt>
      <trkpt lat="49.18161" lon="6.84402">
        <ele>236.6</ele>
        <time>2013-04-03T06:53:14Z</time>
      </trkpt>
      <trkpt lat="49.18159" lon="6.84396">
        <ele>236.8</ele>
        <time>2013-04-03T06:53:19Z</time>
      </trkpt>
      <trkpt lat="49.1816" lon="6.84389">
        <ele>237.2</ele>
        <time>2013-04-03T06:53:24Z</time>
      </trkpt>
      <trkpt lat="49.18159" lon="6.84381">
        <ele>238</ele>
        <time>2013-04-03T06:53:29Z</time>
      </trkpt>
      <trkpt lat="49.18157" lon="6.84371">
        <ele>238.2</ele>
        <time>2013-04-03T06:53:34Z</time>
      </trkpt>
      <trkpt lat="49.18154" lon="6.84361">
        <ele>239.6</ele>
        <time>2013-04-03T06:53:39Z</time>
      </trkpt>
      <trkpt lat="49.18153" lon="6.84353">
        <ele>239.8</ele>
        <time>2013-04-03T06:53:44Z</time>
      </trkpt>
      <trkpt lat="49.18151" lon="6.84345">
        <ele>240.2</ele>
        <time>2013-04-03T06:53:49Z</time>
      </trkpt>
      <trkpt lat="49.1815" lon="6.84336">
        <ele>240.4</ele>
        <time>2013-04-03T06:53:54Z</time>
      </trkpt>
      <trkpt lat="49.18147" lon="6.84327">
        <ele>241.1</ele>
        <time>2013-04-03T06:53:59Z</time>
      </trkpt>
      <trkpt lat="49.18144" lon="6.84317">
        <ele>241.9</ele>
        <time>2013-04-03T06:54:04Z</time>
      </trkpt>
      <trkpt lat="49.18143" lon="6.84315">
        <ele>242</ele>
        <time>2013-04-03T06:54:05Z</time>
      </trkpt>
      <trkpt lat="49.18139" lon="6.84297">
        <ele>243.1</ele>
        <time>2013-04-03T06:54:14Z</time>
      </trkpt>
      <trkpt lat="49.18136" lon="6.84288">
        <ele>243.6</ele>
        <time>2013-04-03T06:54:19Z</time>
      </trkpt>
      <trkpt lat="49.18135" lon="6.84279">
        <ele>243.3</ele>
        <time>2013-04-03T06:54:24Z</time>
      </trkpt>
      <trkpt lat="49.18132" lon="6.8427">
        <ele>244.2</ele>
        <time>2013-04-03T06:54:29Z</time>
      </trkpt>
      <trkpt lat="49.1813" lon="6.8426">
        <ele>244.2</ele>
        <time>2013-04-03T06:54:34Z</time>
      </trkpt>
      <trkpt lat="49.18128" lon="6.8425">
        <ele>244.7</ele>
        <time>2013-04-03T06:54:39Z</time>
      </trkpt>
      <trkpt lat="49.18125" lon="6.84241">
        <ele>245.7</ele>
        <time>2013-04-03T06:54:44Z</time>
      </trkpt>
      <trkpt lat="49.18123" lon="6.84232">
        <ele>245.7</ele>
        <time>2013-04-03T06:54:49Z</time>
      </trkpt>
      <trkpt lat="49.18119" lon="6.84226">
        <ele>246.3</ele>
        <time>2013-04-03T06:54:54Z</time>
      </trkpt>
      <trkpt lat="49.18114" lon="6.84223">
        <ele>246.6</ele>
        <time>2013-04-03T06:54:59Z</time>
      </trkpt>
      <trkpt lat="49.1811" lon="6.84218">
        <ele>246</ele>
        <time>2013-04-03T06:55:04Z</time>
      </trkpt>
      <trkpt lat="49.18108" lon="6.8421">
        <ele>246.9</ele>
        <time>2013-04-03T06:55:09Z</time>
      </trkpt>
      <trkpt lat="49.18108" lon="6.84208">
        <ele>247</ele>
        <time>2013-04-03T06:55:10Z</time>
      </trkpt>
      <trkpt lat="49.18105" lon="6.84194">
        <ele>247.7</ele>
        <time>2013-04-03T06:55:19Z</time>
      </trkpt>
      <trkpt lat="49.18102" lon="6.84187">
        <ele>248.1</ele>
        <time>2013-04-03T06:55:24Z</time>
      </trkpt>
      <trkpt lat="49.18098" lon="6.84179">
        <ele>247.8</ele>
        <time>2013-04-03T06:55:29Z</time>
      </trkpt>
      <trkpt lat="49.18095" lon="6.84172">
        <ele>248.3</ele>
        <time>2013-04-03T06:55:34Z</time>
      </trkpt>
      <trkpt lat="49.18091" lon="6.84164">
        <ele>249.1</ele>
        <time>2013-04-03T06:55:39Z</time>
      </trkpt>
      <trkpt lat="49.18087" lon="6.84156">
        <ele>249.1</ele>
        <time>2013-04-03T06:55:44Z</time>
      </trkpt>
      <trkpt lat="49.18083" lon="6.84149">
        <ele>249</ele>
        <time>2013-04-03T06:55:49Z</time>
      </trkpt>
      <trkpt lat="49.18081" lon="6.84142">
        <ele>249.5</ele>
        <time>2013-04-03T06:55:54Z</time>
      </trkpt>
      <trkpt lat="49.18077" lon="6.84135">
        <ele>250.1</ele>
        <time>2013-04-03T06:55:59Z</time>
      </trkpt>
      <trkpt lat="49.18073" lon="6.84128">
        <ele>250.3</ele>
        <time>2013-04-03T06:56:04Z</time>
      </trkpt>
      <trkpt lat="49.1807" lon="6.84121">
        <ele>250.6</ele>
        <time>2013-04-03T06:56:09Z</time>
      </trkpt>
      <trkpt lat="49.18066" lon="6.84113">
        <ele>250.6</ele>
        <time>2013-04-03T06:56:14Z</time>
      </trkpt>
      <trkpt lat="49.18065" lon="6.84113">
        <ele>250.7</ele>
        <time>2013-04-03T06:56:15Z</time>
      </trkpt>
      <trkpt lat="49.18059" lon="6.84101">
        <ele>251.5</ele>
        <time>2013-04-03T06:56:24Z</time>
      </trkpt>
      <trkpt lat="49.18055" lon="6.84093">
        <ele>251.8</ele>
        <time>2013-04-03T06:56:29Z</time>
      </trkpt>
      <trkpt lat="49.18053" lon="6.84085">
        <ele>251.8</ele>
        <time>2013-04-03T06:56:34Z</time>
      </trkpt>
      <trkpt lat="49.18049" lon="6.84078">
        <ele>252.3</ele>
        <time>2013-04-03T06:56:39Z</time>
      </trkpt>
      <trkpt lat="49.18045" lon="6.84071">
        <ele>253</ele>
        <time>2013-04-03T06:56:44Z</time>
      </trkpt>
      <trkpt lat="49.18042" lon="6.84063">
        <ele>252.9</ele>
        <time>2013-04-03T06:56:49Z</time>
      </trkpt>
      <trkpt lat="49.18039" lon="6.84056">
        <ele>253.3</ele>
        <time>2013-04-03T06:56:54Z</time>
      </trkpt>
      <trkpt lat="49.18037" lon="6.84049">
        <ele>253.6</ele>
        <time>2013-04-03T06:56:59Z</time>
      </trkpt>
      <trkpt lat="49.18035" lon="6.84042">
        <ele>254.1</ele>
        <time>2013-04-03T06:57:04Z</time>
      </trkpt>
      <trkpt lat="49.18033" lon="6.84034">
        <ele>254.8</ele>
        <time>2013-04-03T06:57:09Z</time>
      </trkpt>
      <trkpt lat="49.18031" lon="6.84027">
        <ele>255.3</ele>
        <time>2013-04-03T06:57:14Z</time>
      </trkpt>
      <trkpt lat="49.18029" lon="6.8402">
        <ele>255</ele>
        <time>2013-04-03T06:57:19Z</time>
      </trkpt>
      <trkpt lat="49.18029" lon="6.84018">
        <ele>254.9</ele>
        <time>2013-04-03T06:57:20Z</time>
      </trkpt>
      <trkpt lat="49.18023" lon="6.84002">
        <ele>255.9</ele>
        <time>2013-04-03T06:57:29Z</time>
      </trkpt>
      <trkpt lat="49.18019" lon="6.83995">
        <ele>256.7</ele>
        <time>2013-04-03T06:57:34Z</time>
      </trkpt>
      <trkpt lat="49.18015" lon="6.83987">
        <ele>256.8</ele>
        <time>2013-04-03T06:57:39Z</time>
      </trkpt>
      <trkpt lat="49.18011" lon="6.83979">
        <ele>257.4</ele>
        <time>2013-04-03T06:57:44Z</time>
      </trkpt>
      <trkpt lat="49.18007" lon="6.83972">
        <ele>258</ele>
        <time>2013-04-03T06:57:49Z</time>
      </trkpt>
      <trkpt lat="49.18003" lon="6.83965">
        <ele>258.8</ele>
        <time>2013-04-03T06:57:54Z</time>
      </trkpt>
      <trkpt lat="49.18" lon="6.83958">
        <ele>258.7</ele>
        <time>2013-04-03T06:57:59Z</time>
      </trkpt>
      <trkpt lat="49.17995" lon="6.8395">
        <ele>258.9</ele>
        <time>2013-04-03T06:58:04Z</time>
      </trkpt>
      <trkpt lat="49.17992" lon="6.83943">
        <ele>260.1</ele>
        <time>2013-04-03T06:58:09Z</time>
      </trkpt>
      <trkpt lat="49.17988" lon="6.83936">
        <ele>259.4</ele>
        <time>2013-04-03T06:58:14Z</time>
      </trkpt>
      <trkpt lat="49.17984" lon="6.83929">
        <ele>259.5</ele>
        <time>2013-04-03T06:58:19Z</time>
      </trkpt>
      <trkpt lat="49.1798" lon="6.83923">
        <ele>260.3</ele>
        <time>2013-04-03T06:58:24Z</time>
      </trkpt>
      <trkpt lat="49.17979" lon="6.83921">
        <ele>260.4</ele>
        <time>2013-04-03T06:58:25Z</time>
      </trkpt>
      <trkpt lat="49.17973" lon="6.83908">
        <ele>261.4</ele>
        <time>2013-04-03T06:58:34Z</time>
      </trkpt>
      <trkpt lat="49.17969" lon="6.83901">
        <ele>262.1</ele>
        <time>2013-04-03T06:58:39Z</time>
      </trkpt>
      <trkpt lat="49.17966" lon="6.83894">
        <ele>262.4</ele>
        <time>2013-04-03T06:58:44Z</time>
      </trkpt>
      <trkpt lat="49.17962" lon="6.83887">
        <ele>262.4</ele>
        <time>2013-04-03T06:58:49Z</time>
      </trkpt>
      <trkpt lat="49.17959" lon="6.83879">
        <ele>262.3</ele>
        <time>2013-04-03T06:58:54Z</time>
      </trkpt>
      <trkpt lat="49.17955" lon="6.83871">
        <ele>262.9</ele>
        <time>2013-04-03T06:58:59Z</time>
      </trkpt>
      <trkpt lat="49.17951" lon="6.83862">
        <ele>263.2</ele>
        <time>2013-04-03T06:59:04Z</time>
      </trkpt>
      <trkpt lat="49.1795" lon="6.83854">
        <ele>263.7</ele>
        <time>2013-04-03T06:59:09Z</time>
      </trkpt>
      <trkpt lat="49.17948" lon="6.83844">
        <ele>264.1</ele>
        <time>2013-04-03T06:59:14Z</time>
      </trkpt>
      <trkpt lat="49.17947" lon="6.83835">
        <ele>264.7</ele>
        <time>2013-04-03T06:59:19Z</time>
      </trkpt>
      <trkpt lat="49.17947" lon="6.83824">
        <ele>264.8</ele>
        <time>2013-04-03T06:59:24Z</time>
      </trkpt>
      <trkpt lat="49.17949" lon="6.83814">
        <ele>265.1</ele>
        <time>2013-04-03T06:59:29Z</time>
      </trkpt>
      <trkpt lat="49.17949" lon="6.83812">
        <ele>265.3</ele>
        <time>2013-04-03T06:59:30Z</time>
      </trkpt>
      <trkpt lat="49.1795" lon="6.83795">
        <ele>265.7</ele>
        <time>2013-04-03T06:59:39Z</time>
      </trkpt>
      <trkpt lat="49.17951" lon="6.83786">
        <ele>266.6</ele>
        <time>2013-04-03T06:59:44Z</time>
      </trkpt>
      <trkpt lat="49.17953" lon="6.83777">
        <ele>266.9</ele>
        <time>2013-04-03T06:59:49Z</time>
      </trkpt>
      <trkpt lat="49.17955" lon="6.83769">
        <ele>267.5</ele>
        <time>2013-04-03T06:59:54Z</time>
      </trkpt>
      <trkpt lat="49.17955" lon="6.83765">
        <ele>268.5</ele>
        <time>2013-04-03T06:59:59Z</time>
      </trkpt>
      <trkpt lat="49.17955" lon="6.83762">
        <ele>267.6</ele>
        <time>2013-04-03T07:00:04Z</time>
      </trkpt>
      <trkpt lat="49.17954" lon="6.83758">
        <ele>267.8</ele>
        <time>2013-04-03T07:00:09Z</time>
      </trkpt>
      <trkpt lat="49.17955" lon="6.83749">
        <ele>267.7</ele>
        <time>2013-04-03T07:00:14Z</time>
      </trkpt>
      <trkpt lat="49.17958" lon="6.83741">
        <ele>267.9</ele>
        <time>2013-04-03T07:00:19Z</time>
      </trkpt>
      <trkpt lat="49.1796" lon="6.83735">
        <ele>268.2</ele>
        <time>2013-04-03T07:00:24Z</time>
      </trkpt>
      <trkpt lat="49.17962" lon="6.83726">
        <ele>268.9</ele>
        <time>2013-04-03T07:00:29Z</time>
      </trkpt>
      <trkpt lat="49.17965" lon="6.83719">
        <ele>268.8</ele>
        <time>2013-04-03T07:00:34Z</time>
      </trkpt>
      <trkpt lat="49.17965" lon="6.83717">
        <ele>268.8</ele>
        <time>2013-04-03T07:00:35Z</time>
      </trkpt>
      <trkpt lat="49.17969" lon="6.83701">
        <ele>268.6</ele>
        <time>2013-04-03T07:00:44Z</time>
      </trkpt>
      <trkpt lat="49.17972" lon="6.83691">
        <ele>268.5</ele>
        <time>2013-04-03T07:00:49Z</time>
      </trkpt>
      <trkpt lat="49.17974" lon="6.83681">
        <ele>268.9</ele>
        <time>2013-04-03T07:00:54Z</time>
      </trkpt>
      <trkpt lat="49.17976" lon="6.83671">
        <ele>269.1</ele>
        <time>2013-04-03T07:00:59Z</time>
      </trkpt>
      <trkpt lat="49.17979" lon="6.83663">
        <ele>268.3</ele>
        <time>2013-04-03T07:01:04Z</time>
      </trkpt>
      <trkpt lat="49.17982" lon="6.83654">
        <ele>268</ele>
        <time>2013-04-03T07:01:09Z</time>
      </trkpt>
      <trkpt lat="49.17984" lon="6.83644">
        <ele>268.1</ele>
        <time>2013-04-03T07:01:14Z</time>
      </trkpt>
      <trkpt lat="49.17986" lon="6.83635">
        <ele>268.1</ele>
        <time>2013-04-03T07:01:19Z</time>
      </trkpt>
      <trkpt lat="49.17988" lon="6.83626">
        <ele>267.7</ele>
        <time>2013-04-03T07:01:24Z</time>
      </trkpt>
      <trkpt lat="49.17992" lon="6.83617">
        <ele>267.6</ele>
        <time>2013-04-03T07:01:29Z</time>
      </trkpt>
      <trkpt lat="49.17996" lon="6.83611">
        <ele>266.9</ele>
        <time>2013-04-03T07:01:34Z</time>
      </trkpt>
      <trkpt lat="49.18002" lon="6.83604">
        <ele>265.9</ele>
        <time>2013-04-03T07:01:39Z</time>
      </trkpt>
      <trkpt lat="49.18003" lon="6.83602">
        <ele>265.8</ele>
        <time>2013-04-03T07:01:40Z</time>
      </trkpt>
      <trkpt lat="49.18011" lon="6.8359">
        <ele>265</ele>
        <time>2013-04-03T07:01:49Z</time>
      </trkpt>
      <trkpt lat="49.18015" lon="6.83584">
        <ele>265.4</ele>
        <time>2013-04-03T07:01:54Z</time>
      </trkpt>
      <trkpt lat="49.1802" lon="6.83578">
        <ele>264.8</ele>
        <time>2013-04-03T07:01:59Z</time>
      </trkpt>
      <trkpt lat="49.18024" lon="6.83573">
        <ele>264.9</ele>
        <time>2013-04-03T07:02:04Z</time>
      </trkpt>
      <trkpt lat="49.18029" lon="6.83566">
        <ele>264.5</ele>
        <time>2013-04-03T07:02:09Z</time>
      </trkpt>
      <trkpt lat="49.18036" lon="6.83561">
        <ele>264</ele>
        <time>2013-04-03T07:02:14Z</time>
      </trkpt>
      <trkpt lat="49.18041" lon="6.83555">
        <ele>263.3</ele>
        <time>2013-04-03T07:02:19Z</time>
      </trkpt>
      <trkpt lat="49.18046" lon="6.83549">
        <ele>263.3</ele>
        <time>2013-04-03T07:02:24Z</time>
      </trkpt>
      <trkpt lat="49.18052" lon="6.83542">
        <ele>262.3</ele>
        <time>2013-04-03T07:02:29Z</time>
      </trkpt>
      <trkpt lat="49.18057" lon="6.83536">
        <ele>262.6</ele>
        <time>2013-04-03T07:02:34Z</time>
      </trkpt>
      <trkpt lat="49.18062" lon="6.83529">
        <ele>262.1</ele>
        <time>2013-04-03T07:02:39Z</time>
      </trkpt>
      <trkpt lat="49.18068" lon="6.83523">
        <ele>261.6</ele>
        <time>2013-04-03T07:02:44Z</time>
      </trkpt>
      <trkpt lat="49.18069" lon="6.83523">
        <ele>261.4</ele>
        <time>2013-04-03T07:02:45Z</time>
      </trkpt>
      <trkpt lat="49.18079" lon="6.83511">
        <ele>259.9</ele>
        <time>2013-04-03T07:02:54Z</time>
      </trkpt>
      <trkpt lat="49.18084" lon="6.83505">
        <ele>259.5</ele>
        <time>2013-04-03T07:02:59Z</time>
      </trkpt>
      <trkpt lat="49.18089" lon="6.83498">
        <ele>259.1</ele>
        <time>2013-04-03T07:03:04Z</time>
      </trkpt>
      <trkpt lat="49.18093" lon="6.83491">
        <ele>258.8</ele>
        <time>2013-04-03T07:03:09Z</time>
      </trkpt>
      <trkpt lat="49.18098" lon="6.83484">
        <ele>258.6</ele>
        <time>2013-04-03T07:03:14Z</time>
      </trkpt>
      <trkpt lat="49.18104" lon="6.83478">
        <ele>258.1</ele>
        <time>2013-04-03T07:03:19Z</time>
      </trkpt>
      <trkpt lat="49.18108" lon="6.83472">
        <ele>257.5</ele>
        <time>2013-04-03T07:03:24Z</time>
      </trkpt>
      <trkpt lat="49.18113" lon="6.83466">
        <ele>257.1</ele>
        <time>2013-04-03T07:03:29Z</time>
      </trkpt>
      <trkpt lat="49.18117" lon="6.8346">
        <ele>256.9</ele>
        <time>2013-04-03T07:03:34Z</time>
      </trkpt>
      <trkpt lat="49.18122" lon="6.83454">
        <ele>256.4</ele>
        <time>2013-04-03T07:03:39Z</time>
      </trkpt>
      <trkpt lat="49.18126" lon="6.83448">
        <ele>256</ele>
        <time>2013-04-03T07:03:44Z</time>
      </trkpt>
      <trkpt lat="49.18131" lon="6.83441">
        <ele>256</ele>
        <time>2013-04-03T07:03:49Z</time>
      </trkpt>
      <trkpt lat="49.18132" lon="6.8344">
        <ele>255.8</ele>
        <time>2013-04-03T07:03:50Z</time>
      </trkpt>
      <trkpt lat="49.18142" lon="6.83428">
        <ele>255.8</ele>
        <time>2013-04-03T07:03:59Z</time>
      </trkpt>
      <trkpt lat="49.18145" lon="6.8342">
        <ele>255.1</ele>
        <time>2013-04-03T07:04:04Z</time>
      </trkpt>
      <trkpt lat="49.18149" lon="6.83412">
        <ele>254.4</ele>
        <time>2013-04-03T07:04:09Z</time>
      </trkpt>
      <trkpt lat="49.18151" lon="6.83403">
        <ele>254</ele>
        <time>2013-04-03T07:04:14Z</time>
      </trkpt>
      <trkpt lat="49.18152" lon="6.83394">
        <ele>253.7</ele>
        <time>2013-04-03T07:04:19Z</time>
      </trkpt>
      <trkpt lat="49.18154" lon="6.83384">
        <ele>253.5</ele>
        <time>2013-04-03T07:04:24Z</time>
      </trkpt>
      <trkpt lat="49.18155" lon="6.83375">
        <ele>253.2</ele>
        <time>2013-04-03T07:04:29Z</time>
      </trkpt>
      <trkpt lat="49.18157" lon="6.83366">
        <ele>253.2</ele>
        <time>2013-04-03T07:04:34Z</time>
      </trkpt>
      <trkpt lat="49.18159" lon="6.83357">
        <ele>252.5</ele>
        <time>2013-04-03T07:04:39Z</time>
      </trkpt>
      <trkpt lat="49.1816" lon="6.83349">
        <ele>252</ele>
        <time>2013-04-03T07:04:44Z</time>
      </trkpt>
      <trkpt lat="49.18161" lon="6.8334">
        <ele>251.6</ele>
        <time>2013-04-03T07:04:49Z</time>
      </trkpt>
      <trkpt lat="49.18163" lon="6.83332">
        <ele>251.2</ele>
        <time>2013-04-03T07:04:54Z</time>
      </trkpt>
      <trkpt lat="49.18163" lon="6.8333">
        <ele>251.3</ele>
        <time>2013-04-03T07:04:55Z</time>
      </trkpt>
      <trkpt lat="49.18163" lon="6.83313">
        <ele>250.1</ele>
        <time>2013-04-03T07:05:04Z</time>
      </trkpt>
      <trkpt lat="49.18163" lon="6.83304">
        <ele>249.4</ele>
        <time>2013-04-03T07:05:09Z</time>
      </trkpt>
      <trkpt lat="49.18162" lon="6.83295">
        <ele>249.4</ele>
        <time>2013-04-03T07:05:14Z</time>
      </trkpt>
      <trkpt lat="49.1816" lon="6.83286">
        <ele>249.6</ele>
        <time>2013-04-03T07:05:19Z</time>
      </trkpt>
      <trkpt lat="49.18158" lon="6.83277">
        <ele>248.6</ele>
        <time>2013-04-03T07:05:24Z</time>
      </trkpt>
      <trkpt lat="49.18156" lon="6.83267">
        <ele>248.4</ele>
        <time>2013-04-03T07:05:29Z</time>
      </trkpt>
      <trkpt lat="49.18156" lon="6.83258">
        <ele>247.5</ele>
        <time>2013-04-03T07:05:34Z</time>
      </trkpt>
      <trkpt lat="49.18156" lon="6.83247">
        <ele>247.7</ele>
        <time>2013-04-03T07:05:39Z</time>
      </trkpt>
      <trkpt lat="49.18156" lon="6.83237">
        <ele>247.2</ele>
        <time>2013-04-03T07:05:44Z</time>
      </trkpt>
      <trkpt lat="49.18156" lon="6.83228">
        <ele>247.1</ele>
        <time>2013-04-03T07:05:49Z</time>
      </trkpt>
      <trkpt lat="49.18157" lon="6.83219">
        <ele>247.1</ele>
        <time>2013-04-03T07:05:54Z</time>
      </trkpt>
      <trkpt lat="49.18158" lon="6.83213">
        <ele>246.4</ele>
        <time>2013-04-03T07:05:59Z</time>
      </trkpt>
      <trkpt lat="49.18159" lon="6.83212">
        <ele>246.3</ele>
        <time>2013-04-03T07:06:00Z</time>
      </trkpt>
      <trkpt lat="49.18165" lon="6.83199">
        <ele>246.6</ele>
        <time>2013-04-03T07:06:09Z</time>
      </trkpt>
      <trkpt lat="49.18169" lon="6.83192">
        <ele>246.3</ele>
        <time>2013-04-03T07:06:14Z</time>
      </trkpt>
      <trkpt lat="49.18174" lon="6.83185">
        <ele>246.5</ele>
        <time>2013-04-03T07:06:19Z</time>
      </trkpt>
      <trkpt lat="49.18179" lon="6.83176">
        <ele>246.9</ele>
        <time>2013-04-03T07:06:24Z</time>
      </trkpt>
      <trkpt lat="49.18184" lon="6.83167">
        <ele>246.9</ele>
        <time>2013-04-03T07:06:29Z</time>
      </trkpt>
      <trkpt lat="49.18188" lon="6.83158">
        <ele>247</ele>
        <time>2013-04-03T07:06:34Z</time>
      </trkpt>
      <trkpt lat="49.18191" lon="6.8315">
        <ele>247.1</ele>
        <time>2013-04-03T07:06:39Z</time>
      </trkpt>
      <trkpt lat="49.18195" lon="6.83141">
        <ele>246.8</ele>
        <time>2013-04-03T07:06:44Z</time>
      </trkpt>
      <trkpt lat="49.182" lon="6.83132">
        <ele>246.5</ele>
        <time>2013-04-03T07:06:49Z</time>
      </trkpt>
      <trkpt lat="49.18204" lon="6.83123">
        <ele>246.5</ele>
        <time>2013-04-03T07:06:54Z</time>
      </trkpt>
      <trkpt lat="49.18208" lon="6.83115">
        <ele>246.3</ele>
        <time>2013-04-03T07:06:59Z</time>
      </trkpt>
      <trkpt lat="49.18213" lon="6.83107">
        <ele>246.8</ele>
        <time>2013-04-03T07:07:04Z</time>
      </trkpt>
      <trkpt lat="49.18214" lon="6.83106">
        <ele>247</ele>
        <time>2013-04-03T07:07:05Z</time>
      </trkpt>
      <trkpt lat="49.18221" lon="6.83092">
        <ele>247.2</ele>
        <time>2013-04-03T07:07:14Z</time>
      </trkpt>
      <trkpt lat="49.18224" lon="6.83085">
        <ele>247.6</ele>
        <time>2013-04-03T07:07:19Z</time>
      </trkpt>
      <trkpt lat="49.18228" lon="6.83077">
        <ele>247.1</ele>
        <time>2013-04-03T07:07:24Z</time>
      </trkpt>
      <trkpt lat="49.18231" lon="6.83069">
        <ele>246.5</ele>
        <time>2013-04-03T07:07:29Z</time>
      </trkpt>
      <trkpt lat="49.18234" lon="6.83062">
        <ele>247.4</ele>
        <time>2013-04-03T07:07:34Z</time>
      </trkpt>
      <trkpt lat="49.18238" lon="6.83055">
        <ele>247.1</ele>
        <time>2013-04-03T07:07:39Z</time>
      </trkpt>
      <trkpt lat="49.18242" lon="6.83047">
        <ele>247.1</ele>
        <time>2013-04-03T07:07:44Z</time>
      </trkpt>
      <trkpt lat="49.18247" lon="6.83041">
        <ele>246.8</ele>
        <time>2013-04-03T07:07:49Z</time>
      </trkpt>
      <trkpt lat="49.18251" lon="6.83034">
        <ele>247.2</ele>
        <time>2013-04-03T07:07:54Z</time>
      </trkpt>
      <trkpt lat="49.18256" lon="6.83027">
        <ele>248</ele>
        <time>2013-04-03T07:07:59Z</time>
      </trkpt>
      <trkpt lat="49.1826" lon="6.83022">
        <ele>247.8</ele>
        <time>2013-04-03T07:08:04Z</time>
      </trkpt>
      <trkpt lat="49.18266" lon="6.83016">
        <ele>247.6</ele>
        <time>2013-04-03T07:08:09Z</time>
      </trkpt>
      <trkpt lat="49.18267" lon="6.83015">
        <ele>247.6</ele>
        <time>2013-04-03T07:08:10Z</time>
      </trkpt>
      <trkpt lat="49.18277" lon="6.83001">
        <ele>248.1</ele>
        <time>2013-04-03T07:08:19Z</time>
      </trkpt>
      <trkpt lat="49.18283" lon="6.82993">
        <ele>247.4</ele>
        <time>2013-04-03T07:08:24Z</time>
      </trkpt>
      <trkpt lat="49.18288" lon="6.82986">
        <ele>248.3</ele>
        <time>2013-04-03T07:08:29Z</time>
      </trkpt>
      <trkpt lat="49.18292" lon="6.82979">
        <ele>248.8</ele>
        <time>2013-04-03T07:08:34Z</time>
      </trkpt>
      <trkpt lat="49.18296" lon="6.82972">
        <ele>248.2</ele>
        <time>2013-04-03T07:08:39Z</time>
      </trkpt>
      <trkpt lat="49.18299" lon="6.82965">
        <ele>248.1</ele>
        <time>2013-04-03T07:08:44Z</time>
      </trkpt>
      <trkpt lat="49.18302" lon="6.82959">
        <ele>248.2</ele>
        <time>2013-04-03T07:08:49Z</time>
      </trkpt>
      <trkpt lat="49.18306" lon="6.82953">
        <ele>248.4</ele>
        <time>2013-04-03T07:08:54Z</time>
      </trkpt>
      <trkpt lat="49.1831" lon="6.82946">
        <ele>249</ele>
        <time>2013-04-03T07:08:59Z</time>
      </trkpt>
      <trkpt lat="49.18316" lon="6.82939">
        <ele>248.8</ele>
        <time>2013-04-03T07:09:04Z</time>
      </trkpt>
      <trkpt lat="49.18321" lon="6.82932">
        <ele>249.4</ele>
        <time>2013-04-03T07:09:09Z</time>
      </trkpt>
      <trkpt lat="49.18326" lon="6.82926">
        <ele>248.9</ele>
        <time>2013-04-03T07:09:14Z</time>
      </trkpt>
      <trkpt lat="49.18327" lon="6.82924">
        <ele>248.7</ele>
        <time>2013-04-03T07:09:15Z</time>
      </trkpt>
      <trkpt lat="49.18335" lon="6.82913">
        <ele>249</ele>
        <time>2013-04-03T07:09:24Z</time>
      </trkpt>
      <trkpt lat="49.18341" lon="6.82908">
        <ele>249.2</ele>
        <time>2013-04-03T07:09:29Z</time>
      </trkpt>
      <trkpt lat="49.18347" lon="6.82901">
        <ele>249.3</ele>
        <time>2013-04-03T07:09:34Z</time>
      </trkpt>
      <trkpt lat="49.18353" lon="6.82895">
        <ele>249.6</ele>
        <time>2013-04-03T07:09:39Z</time>
      </trkpt>
      <trkpt lat="49.18358" lon="6.82888">
        <ele>250.1</ele>
        <time>2013-04-03T07:09:44Z</time>
      </trkpt>
      <trkpt lat="49.18363" lon="6.82882">
        <ele>250.6</ele>
        <time>2013-04-03T07:09:49Z</time>
      </trkpt>
      <trkpt lat="49.18369" lon="6.82875">
        <ele>250.6</ele>
        <time>2013-04-03T07:09:54Z</time>
      </trkpt>
      <trkpt lat="49.18374" lon="6.82871">
        <ele>250.2</ele>
        <time>2013-04-03T07:09:59Z</time>
      </trkpt>
      <trkpt lat="49.18379" lon="6.82864">
        <ele>250.5</ele>
        <time>2013-04-03T07:10:04Z</time>
      </trkpt>
      <trkpt lat="49.18384" lon="6.82858">
        <ele>251.4</ele>
        <time>2013-04-03T07:10:09Z</time>
      </trkpt>
      <trkpt lat="49.18391" lon="6.82851">
        <ele>250.5</ele>
        <time>2013-04-03T07:10:14Z</time>
      </trkpt>
      <trkpt lat="49.18396" lon="6.82845">
        <ele>251.1</ele>
        <time>2013-04-03T07:10:19Z</time>
      </trkpt>
      <trkpt lat="49.18397" lon="6.82843">
        <ele>251.6</ele>
        <time>2013-04-03T07:10:20Z</time>
      </trkpt>
      <trkpt lat="49.18406" lon="6.82829">
        <ele>251.2</ele>
        <time>2013-04-03T07:10:29Z</time>
      </trkpt>
      <trkpt lat="49.18411" lon="6.82821">
        <ele>251.6</ele>
        <time>2013-04-03T07:10:34Z</time>
      </trkpt>
      <trkpt lat="49.18415" lon="6.82812">
        <ele>252</ele>
        <time>2013-04-03T07:10:39Z</time>
      </trkpt>
      <trkpt lat="49.18419" lon="6.82805">
        <ele>252.5</ele>
        <time>2013-04-03T07:10:44Z</time>
      </trkpt>
      <trkpt lat="49.18422" lon="6.82798">
        <ele>252.6</ele>
        <time>2013-04-03T07:10:49Z</time>
      </trkpt>
      <trkpt lat="49.18424" lon="6.8279">
        <ele>252.5</ele>
        <time>2013-04-03T07:10:54Z</time>
      </trkpt>
      <trkpt lat="49.18428" lon="6.82782">
        <ele>252.4</ele>
        <time>2013-04-03T07:10:59Z</time>
      </trkpt>
      <trkpt lat="49.18431" lon="6.82773">
        <ele>251.5</ele>
        <time>2013-04-03T07:11:04Z</time>
      </trkpt>
      <trkpt lat="49.18434" lon="6.82764">
        <ele>252</ele>
        <time>2013-04-03T07:11:09Z</time>
      </trkpt>
      <trkpt lat="49.18439" lon="6.82759">
        <ele>252.1</ele>
        <time>2013-04-03T07:11:14Z</time>
      </trkpt>
      <trkpt lat="49.18443" lon="6.82758">
        <ele>251.9</ele>
        <time>2013-04-03T07:11:19Z</time>
      </trkpt>
      <trkpt lat="49.18449" lon="6.82758">
        <ele>251.6</ele>
        <time>2013-04-03T07:11:24Z</time>
      </trkpt>
      <trkpt lat="49.18451" lon="6.82758">
        <ele>251.7</ele>
        <time>2013-04-03T07:11:25Z</time>
      </trkpt>
      <trkpt lat="49.1846" lon="6.82763">
        <ele>252.5</ele>
        <time>2013-04-03T07:11:34Z</time>
      </trkpt>
      <trkpt lat="49.18465" lon="6.82767">
        <ele>252.1</ele>
        <time>2013-04-03T07:11:39Z</time>
      </trkpt>
      <trkpt lat="49.18471" lon="6.82772">
        <ele>252.5</ele>
        <time>2013-04-03T07:11:44Z</time>
      </trkpt>
      <trkpt lat="49.18476" lon="6.82775">
        <ele>252.8</ele>
        <time>2013-04-03T07:11:49Z</time>
      </trkpt>
      <trkpt lat="49.18484" lon="6.82776">
        <ele>253.3</ele>
        <time>2013-04-03T07:11:54Z</time>
      </trkpt>
      <trkpt lat="49.1849" lon="6.82773">
        <ele>253.5</ele>
        <time>2013-04-03T07:11:59Z</time>
      </trkpt>
      <trkpt lat="49.18494" lon="6.82766">
        <ele>253.3</ele>
        <time>2013-04-03T07:12:04Z</time>
      </trkpt>
      <trkpt lat="49.18499" lon="6.82759">
        <ele>253.8</ele>
        <time>2013-04-03T07:12:09Z</time>
      </trkpt>
      <trkpt lat="49.18503" lon="6.82751">
        <ele>253.7</ele>
        <time>2013-04-03T07:12:14Z</time>
      </trkpt>
      <trkpt lat="49.18507" lon="6.82745">
        <ele>254.4</ele>
        <time>2013-04-03T07:12:19Z</time>
      </trkpt>
      <trkpt lat="49.18512" lon="6.82741">
        <ele>254</ele>
        <time>2013-04-03T07:12:24Z</time>
      </trkpt>
      <trkpt lat="49.18517" lon="6.82736">
        <ele>254.6</ele>
        <time>2013-04-03T07:12:29Z</time>
      </trkpt>
      <trkpt lat="49.18518" lon="6.82735">
        <ele>254.5</ele>
        <time>2013-04-03T07:12:30Z</time>
      </trkpt>
      <trkpt lat="49.18522" lon="6.82724">
        <ele>255.4</ele>
        <time>2013-04-03T07:12:39Z</time>
      </trkpt>
      <trkpt lat="49.18526" lon="6.82716">
        <ele>255.6</ele>
        <time>2013-04-03T07:12:44Z</time>
      </trkpt>
      <trkpt lat="49.18531" lon="6.82709">
        <ele>255.9</ele>
        <time>2013-04-03T07:12:49Z</time>
      </trkpt>
      <trkpt lat="49.18536" lon="6.82701">
        <ele>255.9</ele>
        <time>2013-04-03T07:12:54Z</time>
      </trkpt>
      <trkpt lat="49.18541" lon="6.82693">
        <ele>256.2</ele>
        <time>2013-04-03T07:12:59Z</time>
      </trkpt>
      <trkpt lat="49.18546" lon="6.82685">
        <ele>256.3</ele>
        <time>2013-04-03T07:13:04Z</time>
      </trkpt>
      <trkpt lat="49.18551" lon="6.82676">
        <ele>256.3</ele>
        <time>2013-04-03T07:13:09Z</time>
      </trkpt>
      <trkpt lat="49.18555" lon="6.82667">
        <ele>255.8</ele>
        <time>2013-04-03T07:13:14Z</time>
      </trkpt>
      <trkpt lat="49.1856" lon="6.8266">
        <ele>257.1</ele>
        <time>2013-04-03T07:13:19Z</time>
      </trkpt>
      <trkpt lat="49.18564" lon="6.82653">
        <ele>256.9</ele>
        <time>2013-04-03T07:13:24Z</time>
      </trkpt>
      <trkpt lat="49.18568" lon="6.82647">
        <ele>257.5</ele>
        <time>2013-04-03T07:13:29Z</time>
      </trkpt>
      <trkpt lat="49.18572" lon="6.82641">
        <ele>257.5</ele>
        <time>2013-04-03T07:13:34Z</time>
      </trkpt>
      <trkpt lat="49.18572" lon="6.82639">
        <ele>257.7</ele>
        <time>2013-04-03T07:13:35Z</time>
      </trkpt>
      <trkpt lat="49.1858" lon="6.82629">
        <ele>258.6</ele>
        <time>2013-04-03T07:13:44Z</time>
      </trkpt>
      <trkpt lat="49.18583" lon="6.82622">
        <ele>258.9</ele>
        <time>2013-04-03T07:13:49Z</time>
      </trkpt>
      <trkpt lat="49.18588" lon="6.82615">
        <ele>259.3</ele>
        <time>2013-04-03T07:13:54Z</time>
      </trkpt>
      <trkpt lat="49.18593" lon="6.82608">
        <ele>259.7</ele>
        <time>2013-04-03T07:13:59Z</time>
      </trkpt>
      <trkpt lat="49.18597" lon="6.82602">
        <ele>260</ele>
        <time>2013-04-03T07:14:04Z</time>
      </trkpt>
      <trkpt lat="49.18603" lon="6.82595">
        <ele>261.2</ele>
        <time>2013-04-03T07:14:09Z</time>
      </trkpt>
      <trkpt lat="49.18607" lon="6.8259">
        <ele>261.3</ele>
        <time>2013-04-03T07:14:14Z</time>
      </trkpt>
      <trkpt lat="49.18613" lon="6.82585">
        <ele>261.6</ele>
        <time>2013-04-03T07:14:19Z</time>
      </trkpt>
      <trkpt lat="49.18618" lon="6.8258">
        <ele>262.4</ele>
        <time>2013-04-03T07:14:24Z</time>
      </trkpt>
      <trkpt lat="49.18623" lon="6.82571">
        <ele>262.7</ele>
        <time>2013-04-03T07:14:29Z</time>
      </trkpt>
      <trkpt lat="49.18627" lon="6.82563">
        <ele>263</ele>
        <time>2013-04-03T07:14:34Z</time>
      </trkpt>
      <trkpt lat="49.1863" lon="6.82553">
        <ele>263.6</ele>
        <time>2013-04-03T07:14:39Z</time>
      </trkpt>
      <trkpt lat="49.1863" lon="6.82551">
        <ele>263.6</ele>
        <time>2013-04-03T07:14:40Z</time>
      </trkpt>
      <trkpt lat="49.18633" lon="6.82535">
        <ele>263.6</ele>
        <time>2013-04-03T07:14:49Z</time>
      </trkpt>
      <trkpt lat="49.18634" lon="6.82528">
        <ele>263.7</ele>
        <time>2013-04-03T07:14:54Z</time>
      </trkpt>
      <trkpt lat="49.18635" lon="6.82519">
        <ele>263.1</ele>
        <time>2013-04-03T07:14:59Z</time>
      </trkpt>
      <trkpt lat="49.18634" lon="6.8251">
        <ele>264.2</ele>
        <time>2013-04-03T07:15:04Z</time>
      </trkpt>
      <trkpt lat="49.18634" lon="6.825">
        <ele>264.2</ele>
        <time>2013-04-03T07:15:09Z</time>
      </trkpt>
      <trkpt lat="49.18632" lon="6.82491">
        <ele>263.7</ele>
        <time>2013-04-03T07:15:14Z</time>
      </trkpt>
      <trkpt lat="49.1863" lon="6.82483">
        <ele>263.5</ele>
        <time>2013-04-03T07:15:19Z</time>
      </trkpt>
      <trkpt lat="49.18627" lon="6.82474">
        <ele>263.9</ele>
        <time>2013-04-03T07:15:24Z</time>
      </trkpt>
      <trkpt lat="49.18625" lon="6.82465">
        <ele>264.3</ele>
        <time>2013-04-03T07:15:29Z</time>
      </trkpt>
      <trkpt lat="49.18622" lon="6.82456">
        <ele>264.3</ele>
        <time>2013-04-03T07:15:34Z</time>
      </trkpt>
      <trkpt lat="49.18618" lon="6.82447">
        <ele>264.1</ele>
        <time>2013-04-03T07:15:39Z</time>
      </trkpt>
      <trkpt lat="49.18616" lon="6.82437">
        <ele>264.5</ele>
        <time>2013-04-03T07:15:44Z</time>
      </trkpt>
      <trkpt lat="49.18616" lon="6.82436">
        <ele>264.4</ele>
        <time>2013-04-03T07:15:45Z</time>
      </trkpt>
      <trkpt lat="49.1861" lon="6.8242">
        <ele>264.7</ele>
        <time>2013-04-03T07:15:54Z</time>
      </trkpt>
      <trkpt lat="49.18607" lon="6.82412">
        <ele>265.2</ele>
        <time>2013-04-03T07:15:59Z</time>
      </trkpt>
      <trkpt lat="49.18605" lon="6.82404">
        <ele>265.3</ele>
        <time>2013-04-03T07:16:04Z</time>
      </trkpt>
      <trkpt lat="49.18603" lon="6.82395">
        <ele>265.7</ele>
        <time>2013-04-03T07:16:09Z</time>
      </trkpt>
      <trkpt lat="49.18602" lon="6.82385">
        <ele>266</ele>
        <time>2013-04-03T07:16:14Z</time>
      </trkpt>
      <trkpt lat="49.18601" lon="6.82374">
        <ele>266.5</ele>
        <time>2013-04-03T07:16:19Z</time>
      </trkpt>
      <trkpt lat="49.186" lon="6.82364">
        <ele>266.6</ele>
        <time>2013-04-03T07:16:24Z</time>
      </trkpt>
      <trkpt lat="49.186" lon="6.82353">
        <ele>267.3</ele>
        <time>2013-04-03T07:16:29Z</time>
      </trkpt>
      <trkpt lat="49.18601" lon="6.82343">
        <ele>267.5</ele>
        <time>2013-04-03T07:16:34Z</time>
      </trkpt>
      <trkpt lat="49.18602" lon="6.82332">
        <ele>268.2</ele>
        <time>2013-04-03T07:16:39Z</time>
      </trkpt>
      <trkpt lat="49.18603" lon="6.82322">
        <ele>268.9</ele>
        <time>2013-04-03T07:16:44Z</time>
      </trkpt>
      <trkpt lat="49.18604" lon="6.82313">
        <ele>268.6</ele>
        <time>2013-04-03T07:16:49Z</time>
      </trkpt>
      <trkpt lat="49.18604" lon="6.82311">
        <ele>268.7</ele>
        <time>2013-04-03T07:16:50Z</time>
      </trkpt>
      <trkpt lat="49.18608" lon="6.82294">
        <ele>269.7</ele>
        <time>2013-04-03T07:16:59Z</time>
      </trkpt>
      <trkpt lat="49.18609" lon="6.82284">
        <ele>270</ele>
        <time>2013-04-03T07:17:04Z</time>
      </trkpt>
      <trkpt lat="49.1861" lon="6.82276">
        <ele>270.6</ele>
        <time>2013-04-03T07:17:09Z</time>
      </trkpt>
      <trkpt lat="49.18612" lon="6.82267">
        <ele>270.8</ele>
        <time>2013-04-03T07:17:14Z</time>
      </trkpt>
      <trkpt lat="49.18614" lon="6.82259">
        <ele>270.9</ele>
        <time>2013-04-03T07:17:19Z</time>
      </trkpt>
      <trkpt lat="49.18618" lon="6.82253">
        <ele>271.1</ele>
        <time>2013-04-03T07:17:24Z</time>
      </trkpt>
      <trkpt lat="49.18619" lon="6.82247">
        <ele>271.7</ele>
        <time>2013-04-03T07:17:29Z</time>
      </trkpt>
      <trkpt lat="49.18623" lon="6.82239">
        <ele>272.3</ele>
        <time>2013-04-03T07:17:34Z</time>
      </trkpt>
      <trkpt lat="49.18628" lon="6.82232">
        <ele>272.8</ele>
        <time>2013-04-03T07:17:39Z</time>
      </trkpt>
      <trkpt lat="49.18633" lon="6.82225">
        <ele>272.9</ele>
        <time>2013-04-03T07:17:44Z</time>
      </trkpt>
      <trkpt lat="49.18637" lon="6.82218">
        <ele>273.1</ele>
        <time>2013-04-03T07:17:49Z</time>
      </trkpt>
      <trkpt lat="49.1864" lon="6.82213">
        <ele>273.4</ele>
        <time>2013-04-03T07:17:54Z</time>
      </trkpt>
      <trkpt lat="49.18641" lon="6.82211">
        <ele>273.5</ele>
        <time>2013-04-03T07:17:55Z</time>
      </trkpt>
      <trkpt lat="49.18647" lon="6.82199">
        <ele>274.1</ele>
        <time>2013-04-03T07:18:04Z</time>
      </trkpt>
      <trkpt lat="49.18652" lon="6.82193">
        <ele>274.5</ele>
        <time>2013-04-03T07:18:09Z</time>
      </trkpt>
      <trkpt lat="49.18656" lon="6.82187">
        <ele>274.7</ele>
        <time>2013-04-03T07:18:14Z</time>
      </trkpt>
      <trkpt lat="49.18661" lon="6.82182">
        <ele>275.3</ele>
        <time>2013-04-03T07:18:19Z</time>
      </trkpt>
      <trkpt lat="49.18666" lon="6.82176">
        <ele>275.1</ele>
        <time>2013-04-03T07:18:24Z</time>
      </trkpt>
      <trkpt lat="49.18671" lon="6.82171">
        <ele>276</ele>
        <time>2013-04-03T07:18:29Z</time>
      </trkpt>
      <trkpt lat="49.18676" lon="6.82164">
        <ele>275.9</ele>
        <time>2013-04-03T07:18:34Z</time>
      </trkpt>
      <trkpt lat="49.18681" lon="6.82158">
        <ele>276.4</ele>
        <time>2013-04-03T07:18:39Z</time>
      </trkpt>
      <trkpt lat="49.18685" lon="6.82155">
        <ele>276.7</ele>
        <time>2013-04-03T07:18:44Z</time>
      </trkpt>
      <trkpt lat="49.18687" lon="6.82152">
        <ele>277.1</ele>
        <time>2013-04-03T07:18:49Z</time>
      </trkpt>
      <trkpt lat="49.1869" lon="6.82148">
        <ele>277.2</ele>
        <time>2013-04-03T07:18:54Z</time>
      </trkpt>
      <trkpt lat="49.18694" lon="6.82141">
        <ele>277.4</ele>
        <time>2013-04-03T07:18:59Z</time>
      </trkpt>
      <trkpt lat="49.18695" lon="6.8214">
        <ele>277.6</ele>
        <time>2013-04-03T07:19:00Z</time>
      </trkpt>
      <trkpt lat="49.18701" lon="6.82132">
        <ele>278.2</ele>
        <time>2013-04-03T07:19:09Z</time>
      </trkpt>
      <trkpt lat="49.18701" lon="6.82129">
        <ele>278.6</ele>
        <time>2013-04-03T07:19:14Z</time>
      </trkpt>
      <trkpt lat="49.18702" lon="6.82125">
        <ele>278.4</ele>
        <time>2013-04-03T07:19:19Z</time>
      </trkpt>
      <trkpt lat="49.18703" lon="6.82124">
        <ele>278.1</ele>
        <time>2013-04-03T07:19:24Z</time>
      </trkpt>
      <trkpt lat="49.18703" lon="6.82124">
        <ele>277.9</ele>
        <time>2013-04-03T07:19:29Z</time>
      </trkpt>
      <trkpt lat="49.18704" lon="6.82125">
        <ele>278.3</ele>
        <time>2013-04-03T07:19:34Z</time>
      </trkpt>
      <trkpt lat="49.18706" lon="6.82124">
        <ele>278.5</ele>
        <time>2013-04-03T07:19:39Z</time>
      </trkpt>
      <trkpt lat="49.18709" lon="6.82121">
        <ele>278.1</ele>
        <time>2013-04-03T07:19:44Z</time>
      </trkpt>
      <trkpt lat="49.18711" lon="6.82118">
        <ele>278.8</ele>
        <time>2013-04-03T07:19:49Z</time>
      </trkpt>
      <trkpt lat="49.18714" lon="6.82114">
        <ele>278.7</ele>
        <time>2013-04-03T07:19:54Z</time>
      </trkpt>
      <trkpt lat="49.18717" lon="6.82107">
        <ele>278.7</ele>
        <time>2013-04-03T07:19:59Z</time>
      </trkpt>
      <trkpt lat="49.18721" lon="6.821">
        <ele>278.9</ele>
        <time>2013-04-03T07:20:04Z</time>
      </trkpt>
      <trkpt lat="49.18722" lon="6.82099">
        <ele>278.9</ele>
        <time>2013-04-03T07:20:05Z</time>
      </trkpt>
      <trkpt lat="49.18729" lon="6.82088">
        <ele>279.7</ele>
        <time>2013-04-03T07:20:14Z</time>
      </trkpt>
      <trkpt lat="49.18733" lon="6.82081">
        <ele>279.4</ele>
        <time>2013-04-03T07:20:19Z</time>
      </trkpt>
      <trkpt lat="49.18736" lon="6.82073">
        <ele>279.8</ele>
        <time>2013-04-03T07:20:24Z</time>
      </trkpt>
      <trkpt lat="49.18739" lon="6.82065">
        <ele>280.2</ele>
        <time>2013-04-03T07:20:29Z</time>
      </trkpt>
      <trkpt lat="49.1874" lon="6.82056">
        <ele>280.3</ele>
        <time>2013-04-03T07:20:34Z</time>
      </trkpt>
      <trkpt lat="49.1874" lon="6.82048">
        <ele>280.7</ele>
        <time>2013-04-03T07:20:39Z</time>
      </trkpt>
      <trkpt lat="49.18737" lon="6.82042">
        <ele>281.3</ele>
        <time>2013-04-03T07:20:44Z</time>
      </trkpt>
      <trkpt lat="49.18734" lon="6.82037">
        <ele>281.8</ele>
        <time>2013-04-03T07:20:49Z</time>
      </trkpt>
      <trkpt lat="49.1873" lon="6.82034">
        <ele>281.9</ele>
        <time>2013-04-03T07:20:54Z</time>
      </trkpt>
      <trkpt lat="49.18724" lon="6.82033">
        <ele>281.4</ele>
        <time>2013-04-03T07:20:59Z</time>
      </trkpt>
      <trkpt lat="49.1872" lon="6.82033">
        <ele>281.9</ele>
        <time>2013-04-03T07:21:04Z</time>
      </trkpt>
      <trkpt lat="49.18715" lon="6.82035">
        <ele>282.7</ele>
        <time>2013-04-03T07:21:09Z</time>
      </trkpt>
      <trkpt lat="49.18715" lon="6.82036">
        <ele>282.9</ele>
        <time>2013-04-03T07:21:10Z</time>
      </trkpt>
      <trkpt lat="49.18706" lon="6.82041">
        <ele>283.4</ele>
        <time>2013-04-03T07:21:19Z</time>
      </trkpt>
      <trkpt lat="49.187" lon="6.82046">
        <ele>284.1</ele>
        <time>2013-04-03T07:21:24Z</time>
      </trkpt>
      <trkpt lat="49.18695" lon="6.8205">
        <ele>284.4</ele>
        <time>2013-04-03T07:21:29Z</time>
      </trkpt>
      <trkpt lat="49.18689" lon="6.82053">
        <ele>285</ele>
        <time>2013-04-03T07:21:34Z</time>
      </trkpt>
      <trkpt lat="49.18684" lon="6.82055">
        <ele>285.3</ele>
        <time>2013-04-03T07:21:39Z</time>
      </trkpt>
      <trkpt lat="49.18678" lon="6.82055">
        <ele>286.1</ele>
        <time>2013-04-03T07:21:44Z</time>
      </trkpt>
      <trkpt lat="49.18674" lon="6.82054">
        <ele>287.3</ele>
        <time>2013-04-03T07:21:49Z</time>
      </trkpt>
      <trkpt lat="49.18669" lon="6.82052">
        <ele>287.2</ele>
        <time>2013-04-03T07:21:54Z</time>
      </trkpt>
      <trkpt lat="49.18665" lon="6.82049">
        <ele>287.6</ele>
        <time>2013-04-03T07:21:59Z</time>
      </trkpt>
      <trkpt lat="49.1866" lon="6.82044">
        <ele>288.2</ele>
        <time>2013-04-03T07:22:04Z</time>
      </trkpt>
      <trkpt lat="49.18655" lon="6.82037">
        <ele>289</ele>
        <time>2013-04-03T07:22:09Z</time>
      </trkpt>
      <trkpt lat="49.18649" lon="6.8203">
        <ele>288.9</ele>
        <time>2013-04-03T07:22:14Z</time>
      </trkpt>
      <trkpt lat="49.18648" lon="6.82029">
        <ele>289.2</ele>
        <time>2013-04-03T07:22:15Z</time>
      </trkpt>
      <trkpt lat="49.1864" lon="6.82018">
        <ele>290.2</ele>
        <time>2013-04-03T07:22:24Z</time>
      </trkpt>
      <trkpt lat="49.18636" lon="6.82012">
        <ele>290.7</ele>
        <time>2013-04-03T07:22:29Z</time>
      </trkpt>
      <trkpt lat="49.18633" lon="6.82003">
        <ele>291.1</ele>
        <time>2013-04-03T07:22:34Z</time>
      </trkpt>
      <trkpt lat="49.1863" lon="6.81994">
        <ele>291.5</ele>
        <time>2013-04-03T07:22:39Z</time>
      </trkpt>
      <trkpt lat="49.18628" lon="6.81985">
        <ele>291.6</ele>
        <time>2013-04-03T07:22:44Z</time>
      </trkpt>
      <trkpt lat="49.18626" lon="6.81976">
        <ele>292.4</ele>
        <time>2013-04-03T07:22:49Z</time>
      </trkpt>
      <trkpt lat="49.18624" lon="6.81967">
        <ele>292.4</ele>
        <time>2013-04-03T07:22:54Z</time>
      </trkpt>
      <trkpt lat="49.18621" lon="6.81957">
        <ele>292.8</ele>
        <time>2013-04-03T07:22:59Z</time>
      </trkpt>
      <trkpt lat="49.18619" lon="6.81946">
        <ele>293.4</ele>
        <time>2013-04-03T07:23:04Z</time>
      </trkpt>
      <trkpt lat="49.18617" lon="6.81937">
        <ele>294</ele>
        <time>2013-04-03T07:23:09Z</time>
      </trkpt>
      <trkpt lat="49.18616" lon="6.81927">
        <ele>294.3</ele>
        <time>2013-04-03T07:23:14Z</time>
      </trkpt>
      <trkpt lat="49.18614" lon="6.81917">
        <ele>293.9</ele>
        <time>2013-04-03T07:23:19Z</time>
      </trkpt>
      <trkpt lat="49.18613" lon="6.81915">
        <ele>294.3</ele>
        <time>2013-04-03T07:23:20Z</time>
      </trkpt>
      <trkpt lat="49.18604" lon="6.81908">
        <ele>294.6</ele>
        <time>2013-04-03T07:23:29Z</time>
      </trkpt>
      <trkpt lat="49.186" lon="6.81908">
        <ele>294.3</ele>
        <time>2013-04-03T07:23:34Z</time>
      </trkpt>
      <trkpt lat="49.18595" lon="6.8191">
        <ele>293</ele>
        <time>2013-04-03T07:23:39Z</time>
      </trkpt>
      <trkpt lat="49.1859" lon="6.81911">
        <ele>292.3</ele>
        <time>2013-04-03T07:23:44Z</time>
      </trkpt>
      <trkpt lat="49.18585" lon="6.81913">
        <ele>291.1</ele>
        <time>2013-04-03T07:23:49Z</time>
      </trkpt>
      <trkpt lat="49.18579" lon="6.81917">
        <ele>289.5</ele>
        <time>2013-04-03T07:23:54Z</time>
      </trkpt>
      <trkpt lat="49.18575" lon="6.81921">
        <ele>288.6</ele>
        <time>2013-04-03T07:23:59Z</time>
      </trkpt>
      <trkpt lat="49.18569" lon="6.81925">
        <ele>287.2</ele>
        <time>2013-04-03T07:24:04Z</time>
      </trkpt>
      <trkpt lat="49.18565" lon="6.81929">
        <ele>286.3</ele>
        <time>2013-04-03T07:24:09Z</time>
      </trkpt>
      <trkpt lat="49.1856" lon="6.81931">
        <ele>285</ele>
        <time>2013-04-03T07:24:14Z</time>
      </trkpt>
      <trkpt lat="49.18555" lon="6.81934">
        <ele>285.2</ele>
        <time>2013-04-03T07:24:19Z</time>
      </trkpt>
      <trkpt lat="49.18551" lon="6.81936">
        <ele>283.7</ele>
        <time>2013-04-03T07:24:24Z</time>
      </trkpt>
      <trkpt lat="49.18551" lon="6.81936">
        <ele>283.2</ele>
        <time>2013-04-03T07:24:25Z</time>
      </trkpt>
      <trkpt lat="49.18542" lon="6.81939">
        <ele>281.6</ele>
        <time>2013-04-03T07:24:34Z</time>
      </trkpt>
      <trkpt lat="49.18537" lon="6.81943">
        <ele>282.2</ele>
        <time>2013-04-03T07:24:39Z</time>
      </trkpt>
      <trkpt lat="49.18531" lon="6.81947">
        <ele>281.8</ele>
        <time>2013-04-03T07:24:44Z</time>
      </trkpt>
      <trkpt lat="49.18526" lon="6.8195">
        <ele>280.8</ele>
        <time>2013-04-03T07:24:49Z</time>
      </trkpt>
      <trkpt lat="49.18521" lon="6.81952">
        <ele>280.4</ele>
        <time>2013-04-03T07:24:54Z</time>
      </trkpt>
      <trkpt lat="49.18519" lon="6.81952">
        <ele>280.1</ele>
        <time>2013-04-03T07:24:59Z</time>
      </trkpt>
      <trkpt lat="49.18515" lon="6.81954">
        <ele>280.1</ele>
        <time>2013-04-03T07:25:04Z</time>
      </trkpt>
      <trkpt lat="49.18513" lon="6.81955">
        <ele>280</ele>
        <time>2013-04-03T07:25:09Z</time>
      </trkpt>
      <trkpt lat="49.18508" lon="6.81958">
        <ele>280</ele>
        <time>2013-04-03T07:25:14Z</time>
      </trkpt>
      <trkpt lat="49.18505" lon="6.81961">
        <ele>279.7</ele>
        <time>2013-04-03T07:25:19Z</time>
      </trkpt>
      <trkpt lat="49.18503" lon="6.81961">
        <ele>279.8</ele>
        <time>2013-04-03T07:25:24Z</time>
      </trkpt>
      <trkpt lat="49.185" lon="6.81962">
        <ele>279.3</ele>
        <time>2013-04-03T07:25:29Z</time>
      </trkpt>
      <trkpt lat="49.18499" lon="6.81962">
        <ele>279.1</ele>
        <time>2013-04-03T07:25:30Z</time>
      </trkpt>
      <trkpt lat="49.1849" lon="6.81959">
        <ele>278.4</ele>
        <time>2013-04-03T07:25:39Z</time>
      </trkpt>
      <trkpt lat="49.18486" lon="6.81956">
        <ele>276.1</ele>
        <time>2013-04-03T07:25:44Z</time>
      </trkpt>
      <trkpt lat="49.18482" lon="6.81953">
        <ele>275.7</ele>
        <time>2013-04-03T07:25:49Z</time>
      </trkpt>
      <trkpt lat="49.18478" lon="6.81949">
        <ele>275.4</ele>
        <time>2013-04-03T07:25:54Z</time>
      </trkpt>
      <trkpt lat="49.18475" lon="6.81943">
        <ele>274.2</ele>
        <time>2013-04-03T07:25:59Z</time>
      </trkpt>
      <trkpt lat="49.18474" lon="6.81937">
        <ele>273.5</ele>
        <time>2013-04-03T07:26:04Z</time>
      </trkpt>
      <trkpt lat="49.18472" lon="6.8193">
        <ele>273.3</ele>
        <time>2013-04-03T07:26:09Z</time>
      </trkpt>
      <trkpt lat="49.18471" lon="6.81924">
        <ele>273.1</ele>
        <time>2013-04-03T07:26:14Z</time>
      </trkpt>
      <trkpt lat="49.18468" lon="6.81917">
        <ele>272.6</ele>
        <time>2013-04-03T07:26:19Z</time>
      </trkpt>
      <trkpt lat="49.18464" lon="6.81913">
        <ele>272.4</ele>
        <time>2013-04-03T07:26:24Z</time>
      </trkpt>
      <trkpt lat="49.18459" lon="6.8191">
        <ele>272.8</ele>
        <time>2013-04-03T07:26:29Z</time>
      </trkpt>
      <trkpt lat="49.18455" lon="6.81911">
        <ele>272.9</ele>
        <time>2013-04-03T07:26:34Z</time>
      </trkpt>
      <trkpt lat="49.18455" lon="6.81911">
        <ele>272.7</ele>
        <time>2013-04-03T07:26:35Z</time>
      </trkpt>
      <trkpt lat="49.18449" lon="6.81911">
        <ele>272</ele>
        <time>2013-04-03T07:26:44Z</time>
      </trkpt>
      <trkpt lat="49.18443" lon="6.81912">
        <ele>272.3</ele>
        <time>2013-04-03T07:26:49Z</time>
      </trkpt>
      <trkpt lat="49.18437" lon="6.81914">
        <ele>272.1</ele>
        <time>2013-04-03T07:26:54Z</time>
      </trkpt>
      <trkpt lat="49.18431" lon="6.81918">
        <ele>271.5</ele>
        <time>2013-04-03T07:26:59Z</time>
      </trkpt>
      <trkpt lat="49.18425" lon="6.81923">
        <ele>271.4</ele>
        <time>2013-04-03T07:27:04Z</time>
      </trkpt>
      <trkpt lat="49.18419" lon="6.81926">
        <ele>271</ele>
        <time>2013-04-03T07:27:09Z</time>
      </trkpt>
      <trkpt lat="49.18413" lon="6.81928">
        <ele>270.1</ele>
        <time>2013-04-03T07:27:14Z</time>
      </trkpt>
      <trkpt lat="49.18407" lon="6.81931">
        <ele>269.7</ele>
        <time>2013-04-03T07:27:19Z</time>
      </trkpt>
      <trkpt lat="49.18401" lon="6.81935">
        <ele>269.8</ele>
        <time>2013-04-03T07:27:24Z</time>
      </trkpt>
      <trkpt lat="49.18394" lon="6.8194">
        <ele>269.8</ele>
        <time>2013-04-03T07:27:29Z</time>
      </trkpt>
      <trkpt lat="49.18388" lon="6.81946">
        <ele>269.1</ele>
        <time>2013-04-03T07:27:34Z</time>
      </trkpt>
      <trkpt lat="49.18382" lon="6.81953">
        <ele>268.5</ele>
        <time>2013-04-03T07:27:39Z</time>
      </trkpt>
      <trkpt lat="49.18381" lon="6.81954">
        <ele>268.4</ele>
        <time>2013-04-03T07:27:40Z</time>
      </trkpt>
      <trkpt lat="49.18383" lon="6.8197">
        <ele>267.6</ele>
        <time>2013-04-03T07:27:49Z</time>
      </trkpt>
      <trkpt lat="49.18384" lon="6.81976">
        <ele>267.8</ele>
        <time>2013-04-03T07:27:54Z</time>
      </trkpt>
      <trkpt lat="49.18383" lon="6.81982">
        <ele>268.4</ele>
        <time>2013-04-03T07:27:59Z</time>
      </trkpt>
      <trkpt lat="49.18382" lon="6.81988">
        <ele>268.6</ele>
        <time>2013-04-03T07:28:04Z</time>
      </trkpt>
      <trkpt lat="49.1838" lon="6.81995">
        <ele>268.1</ele>
        <time>2013-04-03T07:28:09Z</time>
      </trkpt>
      <trkpt lat="49.18379" lon="6.82001">
        <ele>267</ele>
        <time>2013-04-03T07:28:14Z</time>
      </trkpt>
      <trkpt lat="49.18378" lon="6.82007">
        <ele>267</ele>
        <time>2013-04-03T07:28:19Z</time>
      </trkpt>
      <trkpt lat="49.18378" lon="6.82014">
        <ele>267.3</ele>
        <time>2013-04-03T07:28:24Z</time>
      </trkpt>
      <trkpt lat="49.18374" lon="6.82019">
        <ele>268.2</ele>
        <time>2013-04-03T07:28:29Z</time>
      </trkpt>
      <trkpt lat="49.1837" lon="6.82026">
        <ele>267.5</ele>
        <time>2013-04-03T07:28:34Z</time>
      </trkpt>
      <trkpt lat="49.18367" lon="6.82031">
        <ele>267.9</ele>
        <time>2013-04-03T07:28:39Z</time>
      </trkpt>
      <trkpt lat="49.18362" lon="6.82036">
        <ele>267.7</ele>
        <time>2013-04-03T07:28:44Z</time>
      </trkpt>
      <trkpt lat="49.1836" lon="6.82036">
        <ele>267.6</ele>
        <time>2013-04-03T07:28:45Z</time>
      </trkpt>
      <trkpt lat="49.18341" lon="6.82036">
        <ele>266.6</ele>
        <time>2013-04-03T07:28:54Z</time>
      </trkpt>
      <trkpt lat="49.18336" lon="6.8204">
        <ele>266.1</ele>
        <time>2013-04-03T07:28:59Z</time>
      </trkpt>
      <trkpt lat="49.1833" lon="6.82046">
        <ele>265.8</ele>
        <time>2013-04-03T07:29:04Z</time>
      </trkpt>
      <trkpt lat="49.18325" lon="6.82052">
        <ele>266.7</ele>
        <time>2013-04-03T07:29:09Z</time>
      </trkpt>
      <trkpt lat="49.1832" lon="6.82057">
        <ele>266.8</ele>
        <time>2013-04-03T07:29:14Z</time>
      </trkpt>
      <trkpt lat="49.18318" lon="6.82062">
        <ele>267</ele>
        <time>2013-04-03T07:29:19Z</time>
      </trkpt>
      <trkpt lat="49.18317" lon="6.8207">
        <ele>267.2</ele>
        <time>2013-04-03T07:29:24Z</time>
      </trkpt>
      <trkpt lat="49.18315" lon="6.82077">
        <ele>267.5</ele>
        <time>2013-04-03T07:29:29Z</time>
      </trkpt>
      <trkpt lat="49.18311" lon="6.82085">
        <ele>267.6</ele>
        <time>2013-04-03T07:29:34Z</time>
      </trkpt>
      <trkpt lat="49.18308" lon="6.82093">
        <ele>268.9</ele>
        <time>2013-04-03T07:29:39Z</time>
      </trkpt>
      <trkpt lat="49.18304" lon="6.821">
        <ele>269.8</ele>
        <time>2013-04-03T07:29:44Z</time>
      </trkpt>
      <trkpt lat="49.18298" lon="6.82105">
        <ele>271.2</ele>
        <time>2013-04-03T07:29:49Z</time>
      </trkpt>
      <trkpt lat="49.18297" lon="6.82106">
        <ele>271.1</ele>
        <time>2013-04-03T07:29:50Z</time>
      </trkpt>
      <trkpt lat="49.18287" lon="6.82112">
        <ele>272.1</ele>
        <time>2013-04-03T07:29:59Z</time>
      </trkpt>
      <trkpt lat="49.18282" lon="6.82114">
        <ele>273.1</ele>
        <time>2013-04-03T07:30:04Z</time>
      </trkpt>
      <trkpt lat="49.18277" lon="6.82116">
        <ele>273.7</ele>
        <time>2013-04-03T07:30:09Z</time>
      </trkpt>
      <trkpt lat="49.18271" lon="6.82119">
        <ele>274.4</ele>
        <time>2013-04-03T07:30:14Z</time>
      </trkpt>
      <trkpt lat="49.18265" lon="6.82122">
        <ele>275.7</ele>
        <time>2013-04-03T07:30:19Z</time>
      </trkpt>
      <trkpt lat="49.18259" lon="6.82126">
        <ele>276</ele>
        <time>2013-04-03T07:30:24Z</time>
      </trkpt>
      <trkpt lat="49.18253" lon="6.82127">
        <ele>275.9</ele>
        <time>2013-04-03T07:30:29Z</time>
      </trkpt>
      <trkpt lat="49.18247" lon="6.82129">
        <ele>275.9</ele>
        <time>2013-04-03T07:30:34Z</time>
      </trkpt>
      <trkpt lat="49.18241" lon="6.82131">
        <ele>276.7</ele>
        <time>2013-04-03T07:30:39Z</time>
      </trkpt>
      <trkpt lat="49.18235" lon="6.82132">
        <ele>276.7</ele>
        <time>2013-04-03T07:30:44Z</time>
      </trkpt>
      <trkpt lat="49.18228" lon="6.82134">
        <ele>276.8</ele>
        <time>2013-04-03T07:30:49Z</time>
      </trkpt>
      <trkpt lat="49.18222" lon="6.82137">
        <ele>277.2</ele>
        <time>2013-04-03T07:30:54Z</time>
      </trkpt>
      <trkpt lat="49.18221" lon="6.82137">
        <ele>277.3</ele>
        <time>2013-04-03T07:30:55Z</time>
      </trkpt>
      <trkpt lat="49.18209" lon="6.82141">
        <ele>277.4</ele>
        <time>2013-04-03T07:31:04Z</time>
      </trkpt>
      <trkpt lat="49.18202" lon="6.82143">
        <ele>278.5</ele>
        <time>2013-04-03T07:31:09Z</time>
      </trkpt>
      <trkpt lat="49.18197" lon="6.82144">
        <ele>279.3</ele>
        <time>2013-04-03T07:31:14Z</time>
      </trkpt>
      <trkpt lat="49.18191" lon="6.82146">
        <ele>278.9</ele>
        <time>2013-04-03T07:31:19Z</time>
      </trkpt>
      <trkpt lat="49.18185" lon="6.82148">
        <ele>279.7</ele>
        <time>2013-04-03T07:31:24Z</time>
      </trkpt>
      <trkpt lat="49.1818" lon="6.82151">
        <ele>280.2</ele>
        <time>2013-04-03T07:31:29Z</time>
      </trkpt>
      <trkpt lat="49.18174" lon="6.82153">
        <ele>280.7</ele>
        <time>2013-04-03T07:31:34Z</time>
      </trkpt>
      <trkpt lat="49.18167" lon="6.82157">
        <ele>281.1</ele>
        <time>2013-04-03T07:31:39Z</time>
      </trkpt>
      <trkpt lat="49.1816" lon="6.8216">
        <ele>280.8</ele>
        <time>2013-04-03T07:31:44Z</time>
      </trkpt>
      <trkpt lat="49.18154" lon="6.8216">
        <ele>281.7</ele>
        <time>2013-04-03T07:31:49Z</time>
      </trkpt>
      <trkpt lat="49.18147" lon="6.82159">
        <ele>282.4</ele>
        <time>2013-04-03T07:31:54Z</time>
      </trkpt>
      <trkpt lat="49.18142" lon="6.82158">
        <ele>282.3</ele>
        <time>2013-04-03T07:31:59Z</time>
      </trkpt>
      <trkpt lat="49.18141" lon="6.82157">
        <ele>282.3</ele>
        <time>2013-04-03T07:32:00Z</time>
      </trkpt>
      <trkpt lat="49.1813" lon="6.82155">
        <ele>283.1</ele>
        <time>2013-04-03T07:32:09Z</time>
      </trkpt>
      <trkpt lat="49.18125" lon="6.82152">
        <ele>284</ele>
        <time>2013-04-03T07:32:14Z</time>
      </trkpt>
      <trkpt lat="49.18121" lon="6.82147">
        <ele>284.7</ele>
        <time>2013-04-03T07:32:19Z</time>
      </trkpt>
      <trkpt lat="49.18116" lon="6.82142">
        <ele>285.6</ele>
        <time>2013-04-03T07:32:24Z</time>
      </trkpt>
      <trkpt lat="49.18111" lon="6.82135">
        <ele>285.7</ele>
        <time>2013-04-03T07:32:29Z</time>
      </trkpt>
      <trkpt lat="49.18108" lon="6.82127">
        <ele>285.8</ele>
        <time>2013-04-03T07:32:34Z</time>
      </trkpt>
      <trkpt lat="49.18105" lon="6.8212">
        <ele>286.3</ele>
        <time>2013-04-03T07:32:39Z</time>
      </trkpt>
      <trkpt lat="49.18102" lon="6.82113">
        <ele>286.6</ele>
        <time>2013-04-03T07:32:44Z</time>
      </trkpt>
      <trkpt lat="49.18097" lon="6.82106">
        <ele>287.2</ele>
        <time>2013-04-03T07:32:49Z</time>
      </trkpt>
      <trkpt lat="49.18091" lon="6.82099">
        <ele>287.9</ele>
        <time>2013-04-03T07:32:54Z</time>
      </trkpt>
      <trkpt lat="49.18086" lon="6.82093">
        <ele>287.5</ele>
        <time>2013-04-03T07:32:59Z</time>
      </trkpt>
      <trkpt lat="49.1808" lon="6.82088">
        <ele>288</ele>
        <time>2013-04-03T07:33:04Z</time>
      </trkpt>
      <trkpt lat="49.18079" lon="6.82086">
        <ele>288.2</ele>
        <time>2013-04-03T07:33:05Z</time>
      </trkpt>
      <trkpt lat="49.18068" lon="6.82076">
        <ele>288.4</ele>
        <time>2013-04-03T07:33:14Z</time>
      </trkpt>
      <trkpt lat="49.18063" lon="6.82069">
        <ele>289.2</ele>
        <time>2013-04-03T07:33:19Z</time>
      </trkpt>
      <trkpt lat="49.18058" lon="6.82062">
        <ele>289.6</ele>
        <time>2013-04-03T07:33:24Z</time>
      </trkpt>
      <trkpt lat="49.18052" lon="6.82062">
        <ele>290.4</ele>
        <time>2013-04-03T07:33:29Z</time>
      </trkpt>
      <trkpt lat="49.18046" lon="6.82066">
        <ele>290.7</ele>
        <time>2013-04-03T07:33:34Z</time>
      </trkpt>
      <trkpt lat="49.18041" lon="6.82067">
        <ele>290.6</ele>
        <time>2013-04-03T07:33:39Z</time>
      </trkpt>
      <trkpt lat="49.18035" lon="6.82068">
        <ele>290.2</ele>
        <time>2013-04-03T07:33:44Z</time>
      </trkpt>
      <trkpt lat="49.18029" lon="6.82067">
        <ele>291.1</ele>
        <time>2013-04-03T07:33:49Z</time>
      </trkpt>
      <trkpt lat="49.18022" lon="6.82067">
        <ele>291.1</ele>
        <time>2013-04-03T07:33:54Z</time>
      </trkpt>
      <trkpt lat="49.18016" lon="6.82066">
        <ele>291.8</ele>
        <time>2013-04-03T07:33:59Z</time>
      </trkpt>
      <trkpt lat="49.1801" lon="6.82064">
        <ele>292.1</ele>
        <time>2013-04-03T07:34:04Z</time>
      </trkpt>
      <trkpt lat="49.18004" lon="6.82064">
        <ele>292.3</ele>
        <time>2013-04-03T07:34:09Z</time>
      </trkpt>
      <trkpt lat="49.18002" lon="6.82063">
        <ele>292.3</ele>
        <time>2013-04-03T07:34:10Z</time>
      </trkpt>
      <trkpt lat="49.17991" lon="6.82061">
        <ele>293</ele>
        <time>2013-04-03T07:34:19Z</time>
      </trkpt>
      <trkpt lat="49.17986" lon="6.82061">
        <ele>292.5</ele>
        <time>2013-04-03T07:34:24Z</time>
      </trkpt>
      <trkpt lat="49.1798" lon="6.82059">
        <ele>293.1</ele>
        <time>2013-04-03T07:34:29Z</time>
      </trkpt>
      <trkpt lat="49.17973" lon="6.82058">
        <ele>292.6</ele>
        <time>2013-04-03T07:34:34Z</time>
      </trkpt>
      <trkpt lat="49.17967" lon="6.82058">
        <ele>292.4</ele>
        <time>2013-04-03T07:34:39Z</time>
      </trkpt>
      <trkpt lat="49.1796" lon="6.82057">
        <ele>292.5</ele>
        <time>2013-04-03T07:34:44Z</time>
      </trkpt>
      <trkpt lat="49.17955" lon="6.82057">
        <ele>292.5</ele>
        <time>2013-04-03T07:34:49Z</time>
      </trkpt>
      <trkpt lat="49.17948" lon="6.82056">
        <ele>292.8</ele>
        <time>2013-04-03T07:34:54Z</time>
      </trkpt>
      <trkpt lat="49.17941" lon="6.82055">
        <ele>292.4</ele>
        <time>2013-04-03T07:34:59Z</time>
      </trkpt>
      <trkpt lat="49.17935" lon="6.82054">
        <ele>292.6</ele>
        <time>2013-04-03T07:35:04Z</time>
      </trkpt>
      <trkpt lat="49.17929" lon="6.82054">
        <ele>293.8</ele>
        <time>2013-04-03T07:35:09Z</time>
      </trkpt>
      <trkpt lat="49.17923" lon="6.82054">
        <ele>293.6</ele>
        <time>2013-04-03T07:35:14Z</time>
      </trkpt>
      <trkpt lat="49.17922" lon="6.82054">
        <ele>293.7</ele>
        <time>2013-04-03T07:35:15Z</time>
      </trkpt>
      <trkpt lat="49.17911" lon="6.82054">
        <ele>294</ele>
        <time>2013-04-03T07:35:24Z</time>
      </trkpt>
      <trkpt lat="49.17905" lon="6.82054">
        <ele>294.2</ele>
        <time>2013-04-03T07:35:29Z</time>
      </trkpt>
      <trkpt lat="49.17899" lon="6.82053">
        <ele>295</ele>
        <time>2013-04-03T07:35:34Z</time>
      </trkpt>
      <trkpt lat="49.17892" lon="6.82052">
        <ele>295.6</ele>
        <time>2013-04-03T07:35:39Z</time>
      </trkpt>
      <trkpt lat="49.17884" lon="6.82051">
        <ele>296.5</ele>
        <time>2013-04-03T07:35:44Z</time>
      </trkpt>
      <trkpt lat="49.17878" lon="6.8205">
        <ele>296.3</ele>
        <time>2013-04-03T07:35:49Z</time>
      </trkpt>
      <trkpt lat="49.17871" lon="6.82049">
        <ele>296.7</ele>
        <time>2013-04-03T07:35:54Z</time>
      </trkpt>
      <trkpt lat="49.17864" lon="6.82048">
        <ele>296.9</ele>
        <time>2013-04-03T07:35:59Z</time>
      </trkpt>
      <trkpt lat="49.17857" lon="6.82047">
        <ele>296.5</ele>
        <time>2013-04-03T07:36:04Z</time>
      </trkpt>
      <trkpt lat="49.17851" lon="6.82045">
        <ele>296.9</ele>
        <time>2013-04-03T07:36:09Z</time>
      </trkpt>
      <trkpt lat="49.17844" lon="6.82042">
        <ele>297.5</ele>
        <time>2013-04-03T07:36:14Z</time>
      </trkpt>
      <trkpt lat="49.17836" lon="6.8204">
        <ele>297.7</ele>
        <time>2013-04-03T07:36:19Z</time>
      </trkpt>
      <trkpt lat="49.17835" lon="6.82039">
        <ele>297.5</ele>
        <time>2013-04-03T07:36:20Z</time>
      </trkpt>
      <trkpt lat="49.17823" lon="6.82035">
        <ele>298.4</ele>
        <time>2013-04-03T07:36:29Z</time>
      </trkpt>
      <trkpt lat="49.17817" lon="6.82032">
        <ele>299.2</ele>
        <time>2013-04-03T07:36:34Z</time>
      </trkpt>
      <trkpt lat="49.17812" lon="6.8203">
        <ele>298.8</ele>
        <time>2013-04-03T07:36:39Z</time>
      </trkpt>
      <trkpt lat="49.17805" lon="6.82027">
        <ele>299.5</ele>
        <time>2013-04-03T07:36:44Z</time>
      </trkpt>
      <trkpt lat="49.17799" lon="6.82024">
        <ele>299.7</ele>
        <time>2013-04-03T07:36:49Z</time>
      </trkpt>
      <trkpt lat="49.17793" lon="6.82021">
        <ele>300.2</ele>
        <time>2013-04-03T07:36:54Z</time>
      </trkpt>
      <trkpt lat="49.17787" lon="6.82018">
        <ele>300.8</ele>
        <time>2013-04-03T07:36:59Z</time>
      </trkpt>
      <trkpt lat="49.17782" lon="6.82013">
        <ele>301.1</ele>
        <time>2013-04-03T07:37:04Z</time>
      </trkpt>
      <trkpt lat="49.17777" lon="6.82007">
        <ele>301.6</ele>
        <time>2013-04-03T07:37:09Z</time>
      </trkpt>
      <trkpt lat="49.17771" lon="6.82002">
        <ele>302</ele>
        <time>2013-04-03T07:37:14Z</time>
      </trkpt>
      <trkpt lat="49.17766" lon="6.81996">
        <ele>302.2</ele>
        <time>2013-04-03T07:37:19Z</time>
      </trkpt>
      <trkpt lat="49.1776" lon="6.81991">
        <ele>302.6</ele>
        <time>2013-04-03T07:37:24Z</time>
      </trkpt>
      <trkpt lat="49.17759" lon="6.8199">
        <ele>303</ele>
        <time>2013-04-03T07:37:25Z</time>
      </trkpt>
      <trkpt lat="49.17748" lon="6.8198">
        <ele>303.7</ele>
        <time>2013-04-03T07:37:34Z</time>
      </trkpt>
      <trkpt lat="49.17742" lon="6.81974">
        <ele>303.8</ele>
        <time>2013-04-03T07:37:39Z</time>
      </trkpt>
      <trkpt lat="49.17736" lon="6.81967">
        <ele>304</ele>
        <time>2013-04-03T07:37:44Z</time>
      </trkpt>
      <trkpt lat="49.1773" lon="6.8196">
        <ele>304.6</ele>
        <time>2013-04-03T07:37:49Z</time>
      </trkpt>
      <trkpt lat="49.17725" lon="6.81954">
        <ele>304.8</ele>
        <time>2013-04-03T07:37:54Z</time>
      </trkpt>
      <trkpt lat="49.17719" lon="6.81947">
        <ele>304.9</ele>
        <time>2013-04-03T07:37:59Z</time>
      </trkpt>
      <trkpt lat="49.17714" lon="6.81941">
        <ele>305.4</ele>
        <time>2013-04-03T07:38:04Z</time>
      </trkpt>
      <trkpt lat="49.17708" lon="6.81934">
        <ele>305.2</ele>
        <time>2013-04-03T07:38:09Z</time>
      </trkpt>
      <trkpt lat="49.17703" lon="6.81928">
        <ele>305</ele>
        <time>2013-04-03T07:38:14Z</time>
      </trkpt>
      <trkpt lat="49.17697" lon="6.81922">
        <ele>305.6</ele>
        <time>2013-04-03T07:38:19Z</time>
      </trkpt>
      <trkpt lat="49.17692" lon="6.81916">
        <ele>305.6</ele>
        <time>2013-04-03T07:38:24Z</time>
      </trkpt>
      <trkpt lat="49.17687" lon="6.81911">
        <ele>305.6</ele>
        <time>2013-04-03T07:38:29Z</time>
      </trkpt>
      <trkpt lat="49.17686" lon="6.8191">
        <ele>305.5</ele>
        <time>2013-04-03T07:38:30Z</time>
      </trkpt>
      <trkpt lat="49.17676" lon="6.819">
        <ele>306.1</ele>
        <time>2013-04-03T07:38:39Z</time>
      </trkpt>
      <trkpt lat="49.17671" lon="6.81895">
        <ele>306.9</ele>
        <time>2013-04-03T07:38:44Z</time>
      </trkpt>
      <trkpt lat="49.17665" lon="6.8189">
        <ele>305.9</ele>
        <time>2013-04-03T07:38:49Z</time>
      </trkpt>
      <trkpt lat="49.1766" lon="6.81885">
        <ele>305.9</ele>
        <time>2013-04-03T07:38:54Z</time>
      </trkpt>
      <trkpt lat="49.17654" lon="6.8188">
        <ele>306.2</ele>
        <time>2013-04-03T07:38:59Z</time>
      </trkpt>
      <trkpt lat="49.17648" lon="6.81875">
        <ele>306.2</ele>
        <time>2013-04-03T07:39:04Z</time>
      </trkpt>
      <trkpt lat="49.17642" lon="6.8187">
        <ele>307.3</ele>
        <time>2013-04-03T07:39:09Z</time>
      </trkpt>
      <trkpt lat="49.17637" lon="6.81865">
        <ele>306.6</ele>
        <time>2013-04-03T07:39:14Z</time>
      </trkpt>
      <trkpt lat="49.17631" lon="6.81861">
        <ele>307.2</ele>
        <time>2013-04-03T07:39:19Z</time>
      </trkpt>
      <trkpt lat="49.17626" lon="6.81856">
        <ele>307.6</ele>
        <time>2013-04-03T07:39:24Z</time>
      </trkpt>
      <trkpt lat="49.1762" lon="6.81851">
        <ele>307.8</ele>
        <time>2013-04-03T07:39:29Z</time>
      </trkpt>
      <trkpt lat="49.17615" lon="6.81846">
        <ele>308</ele>
        <time>2013-04-03T07:39:34Z</time>
      </trkpt>
      <trkpt lat="49.17614" lon="6.81845">
        <ele>308.1</ele>
        <time>2013-04-03T07:39:35Z</time>
      </trkpt>
      <trkpt lat="49.17604" lon="6.81835">
        <ele>309.3</ele>
        <time>2013-04-03T07:39:44Z</time>
      </trkpt>
      <trkpt lat="49.17599" lon="6.8183">
        <ele>310.3</ele>
        <time>2013-04-03T07:39:49Z</time>
      </trkpt>
      <trkpt lat="49.17594" lon="6.81825">
        <ele>310</ele>
        <time>2013-04-03T07:39:54Z</time>
      </trkpt>
      <trkpt lat="49.17588" lon="6.8182">
        <ele>311.8</ele>
        <time>2013-04-03T07:39:59Z</time>
      </trkpt>
      <trkpt lat="49.17583" lon="6.81816">
        <ele>312</ele>
        <time>2013-04-03T07:40:04Z</time>
      </trkpt>
      <trkpt lat="49.17578" lon="6.81812">
        <ele>313.2</ele>
        <time>2013-04-03T07:40:09Z</time>
      </trkpt>
      <trkpt lat="49.17573" lon="6.81807">
        <ele>314</ele>
        <time>2013-04-03T07:40:14Z</time>
      </trkpt>
      <trkpt lat="49.17568" lon="6.81803">
        <ele>313.7</ele>
        <time>2013-04-03T07:40:19Z</time>
      </trkpt>
      <trkpt lat="49.17563" lon="6.81799">
        <ele>314.3</ele>
        <time>2013-04-03T07:40:24Z</time>
      </trkpt>
      <trkpt lat="49.17557" lon="6.81795">
        <ele>314.7</ele>
        <time>2013-04-03T07:40:29Z</time>
      </trkpt>
      <trkpt lat="49.17552" lon="6.81791">
        <ele>315.1</ele>
        <time>2013-04-03T07:40:34Z</time>
      </trkpt>
      <trkpt lat="49.17546" lon="6.81786">
        <ele>314.5</ele>
        <time>2013-04-03T07:40:39Z</time>
      </trkpt>
      <trkpt lat="49.17545" lon="6.81785">
        <ele>314.6</ele>
        <time>2013-04-03T07:40:40Z</time>
      </trkpt>
      <trkpt lat="49.17535" lon="6.81775">
        <ele>314.9</ele>
        <time>2013-04-03T07:40:49Z</time>
      </trkpt>
      <trkpt lat="49.1753" lon="6.81767">
        <ele>315.1</ele>
        <time>2013-04-03T07:40:54Z</time>
      </trkpt>
      <trkpt lat="49.17526" lon="6.8176">
        <ele>315.4</ele>
        <time>2013-04-03T07:40:59Z</time>
      </trkpt>
      <trkpt lat="49.17524" lon="6.81755">
        <ele>315</ele>
        <time>2013-04-03T07:41:04Z</time>
      </trkpt>
      <trkpt lat="49.17524" lon="6.81749">
        <ele>315.2</ele>
        <time>2013-04-03T07:41:09Z</time>
      </trkpt>
      <trkpt lat="49.17524" lon="6.81748">
        <ele>315.8</ele>
        <time>2013-04-03T07:41:14Z</time>
      </trkpt>
      <trkpt lat="49.17524" lon="6.81748">
        <ele>315.9</ele>
        <time>2013-04-03T07:41:19Z</time>
      </trkpt>
      <trkpt lat="49.17523" lon="6.81745">
        <ele>315.7</ele>
        <time>2013-04-03T07:41:24Z</time>
      </trkpt>
      <trkpt lat="49.17522" lon="6.8174">
        <ele>315.8</ele>
        <time>2013-04-03T07:41:29Z</time>
      </trkpt>
      <trkpt lat="49.17521" lon="6.81733">
        <ele>315.9</ele>
        <time>2013-04-03T07:41:34Z</time>
      </trkpt>
      <trkpt lat="49.17519" lon="6.81725">
        <ele>316</ele>
        <time>2013-04-03T07:41:39Z</time>
      </trkpt>
      <trkpt lat="49.17518" lon="6.81718">
        <ele>316</ele>
        <time>2013-04-03T07:41:44Z</time>
      </trkpt>
      <trkpt lat="49.17518" lon="6.81716">
        <ele>316.1</ele>
        <time>2013-04-03T07:41:45Z</time>
      </trkpt>
      <trkpt lat="49.17516" lon="6.81703">
        <ele>316.8</ele>
        <time>2013-04-03T07:41:54Z</time>
      </trkpt>
      <trkpt lat="49.17515" lon="6.81696">
        <ele>316.6</ele>
        <time>2013-04-03T07:41:59Z</time>
      </trkpt>
      <trkpt lat="49.17513" lon="6.81687">
        <ele>316.8</ele>
        <time>2013-04-03T07:42:04Z</time>
      </trkpt>
      <trkpt lat="49.17512" lon="6.81679">
        <ele>317.7</ele>
        <time>2013-04-03T07:42:09Z</time>
      </trkpt>
      <trkpt lat="49.17511" lon="6.81671">
        <ele>318.7</ele>
        <time>2013-04-03T07:42:14Z</time>
      </trkpt>
      <trkpt lat="49.17509" lon="6.81663">
        <ele>318.6</ele>
        <time>2013-04-03T07:42:19Z</time>
      </trkpt>
      <trkpt lat="49.17508" lon="6.81655">
        <ele>319.4</ele>
        <time>2013-04-03T07:42:24Z</time>
      </trkpt>
      <trkpt lat="49.17506" lon="6.81646">
        <ele>319.4</ele>
        <time>2013-04-03T07:42:29Z</time>
      </trkpt>
      <trkpt lat="49.17504" lon="6.81637">
        <ele>319.6</ele>
        <time>2013-04-03T07:42:34Z</time>
      </trkpt>
      <trkpt lat="49.17502" lon="6.81626">
        <ele>319.2</ele>
        <time>2013-04-03T07:42:39Z</time>
      </trkpt>
      <trkpt lat="49.17501" lon="6.81616">
        <ele>319.4</ele>
        <time>2013-04-03T07:42:44Z</time>
      </trkpt>
      <trkpt lat="49.175" lon="6.81606">
        <ele>319.4</ele>
        <time>2013-04-03T07:42:49Z</time>
      </trkpt>
      <trkpt lat="49.175" lon="6.81603">
        <ele>319.4</ele>
        <time>2013-04-03T07:42:50Z</time>
      </trkpt>
      <trkpt lat="49.17501" lon="6.81584">
        <ele>319.6</ele>
        <time>2013-04-03T07:42:59Z</time>
      </trkpt>
      <trkpt lat="49.17503" lon="6.81574">
        <ele>319.4</ele>
        <time>2013-04-03T07:43:04Z</time>
      </trkpt>
      <trkpt lat="49.17507" lon="6.81566">
        <ele>320.1</ele>
        <time>2013-04-03T07:43:09Z</time>
      </trkpt>
      <trkpt lat="49.17512" lon="6.8156">
        <ele>320.3</ele>
        <time>2013-04-03T07:43:14Z</time>
      </trkpt>
      <trkpt lat="49.17519" lon="6.81555">
        <ele>321.1</ele>
        <time>2013-04-03T07:43:19Z</time>
      </trkpt>
      <trkpt lat="49.17526" lon="6.8155">
        <ele>321.5</ele>
        <time>2013-04-03T07:43:24Z</time>
      </trkpt>
      <trkpt lat="49.17533" lon="6.81547">
        <ele>322.4</ele>
        <time>2013-04-03T07:43:29Z</time>
      </trkpt>
      <trkpt lat="49.1754" lon="6.81543">
        <ele>322.6</ele>
        <time>2013-04-03T07:43:34Z</time>
      </trkpt>
      <trkpt lat="49.17546" lon="6.81538">
        <ele>321.9</ele>
        <time>2013-04-03T07:43:39Z</time>
      </trkpt>
      <trkpt lat="49.17551" lon="6.81532">
        <ele>322.2</ele>
        <time>2013-04-03T07:43:44Z</time>
      </trkpt>
      <trkpt lat="49.17556" lon="6.81525">
        <ele>322.6</ele>
        <time>2013-04-03T07:43:49Z</time>
      </trkpt>
      <trkpt lat="49.17561" lon="6.81518">
        <ele>322.9</ele>
        <time>2013-04-03T07:43:54Z</time>
      </trkpt>
      <trkpt lat="49.17562" lon="6.81517">
        <ele>323</ele>
        <time>2013-04-03T07:43:55Z</time>
      </trkpt>
      <trkpt lat="49.17572" lon="6.81505">
        <ele>324.1</ele>
        <time>2013-04-03T07:44:04Z</time>
      </trkpt>
      <trkpt lat="49.17576" lon="6.81498">
        <ele>323.5</ele>
        <time>2013-04-03T07:44:09Z</time>
      </trkpt>
      <trkpt lat="49.17581" lon="6.81491">
        <ele>323.9</ele>
        <time>2013-04-03T07:44:14Z</time>
      </trkpt>
      <trkpt lat="49.17585" lon="6.81484">
        <ele>323.4</ele>
        <time>2013-04-03T07:44:19Z</time>
      </trkpt>
      <trkpt lat="49.17589" lon="6.81478">
        <ele>324</ele>
        <time>2013-04-03T07:44:24Z</time>
      </trkpt>
      <trkpt lat="49.17594" lon="6.81472">
        <ele>324.1</ele>
        <time>2013-04-03T07:44:29Z</time>
      </trkpt>
      <trkpt lat="49.17597" lon="6.81465">
        <ele>324.6</ele>
        <time>2013-04-03T07:44:34Z</time>
      </trkpt>
      <trkpt lat="49.17598" lon="6.81458">
        <ele>324.2</ele>
        <time>2013-04-03T07:44:39Z</time>
      </trkpt>
      <trkpt lat="49.17594" lon="6.81452">
        <ele>324.4</ele>
        <time>2013-04-03T07:44:44Z</time>
      </trkpt>
      <trkpt lat="49.17589" lon="6.81444">
        <ele>324.2</ele>
        <time>2013-04-03T07:44:49Z</time>
      </trkpt>
      <trkpt lat="49.17585" lon="6.81437">
        <ele>323.6</ele>
        <time>2013-04-03T07:44:54Z</time>
      </trkpt>
      <trkpt lat="49.1758" lon="6.8143">
        <ele>323.7</ele>
        <time>2013-04-03T07:44:59Z</time>
      </trkpt>
      <trkpt lat="49.1758" lon="6.81428">
        <ele>323.6</ele>
        <time>2013-04-03T07:45:00Z</time>
      </trkpt>
      <trkpt lat="49.17572" lon="6.81416">
        <ele>322.3</ele>
        <time>2013-04-03T07:45:09Z</time>
      </trkpt>
      <trkpt lat="49.17567" lon="6.81408">
        <ele>322</ele>
        <time>2013-04-03T07:45:14Z</time>
      </trkpt>
      <trkpt lat="49.17563" lon="6.81402">
        <ele>321.3</ele>
        <time>2013-04-03T07:45:19Z</time>
      </trkpt>
      <trkpt lat="49.17559" lon="6.81395">
        <ele>321</ele>
        <time>2013-04-03T07:45:24Z</time>
      </trkpt>
      <trkpt lat="49.17555" lon="6.81389">
        <ele>320</ele>
        <time>2013-04-03T07:45:29Z</time>
      </trkpt>
      <trkpt lat="49.17551" lon="6.81384">
        <ele>319.5</ele>
        <time>2013-04-03T07:45:34Z</time>
      </trkpt>
      <trkpt lat="49.17547" lon="6.81378">
        <ele>318.8</ele>
        <time>2013-04-03T07:45:39Z</time>
      </trkpt>
      <trkpt lat="49.17544" lon="6.81372">
        <ele>317.9</ele>
        <time>2013-04-03T07:45:44Z</time>
      </trkpt>
      <trkpt lat="49.1754" lon="6.81367">
        <ele>317.2</ele>
        <time>2013-04-03T07:45:49Z</time>
      </trkpt>
      <trkpt lat="49.17537" lon="6.81361">
        <ele>316.2</ele>
        <time>2013-04-03T07:45:54Z</time>
      </trkpt>
      <trkpt lat="49.17533" lon="6.81355">
        <ele>316</ele>
        <time>2013-04-03T07:45:59Z</time>
      </trkpt>
      <trkpt lat="49.1753" lon="6.81349">
        <ele>314.7</ele>
        <time>2013-04-03T07:46:04Z</time>
      </trkpt>
      <trkpt lat="49.17529" lon="6.81347">
        <ele>314.1</ele>
        <time>2013-04-03T07:46:05Z</time>
      </trkpt>
      <trkpt lat="49.17524" lon="6.81338">
        <ele>312.3</ele>
        <time>2013-04-03T07:46:14Z</time>
      </trkpt>
      <trkpt lat="49.17522" lon="6.81332">
        <ele>310.8</ele>
        <time>2013-04-03T07:46:19Z</time>
      </trkpt>
      <trkpt lat="49.1752" lon="6.81329">
        <ele>310.1</ele>
        <time>2013-04-03T07:46:24Z</time>
      </trkpt>
      <trkpt lat="49.1752" lon="6.81328">
        <ele>309.9</ele>
        <time>2013-04-03T07:46:29Z</time>
      </trkpt>
      <trkpt lat="49.1752" lon="6.81328">
        <ele>310.2</ele>
        <time>2013-04-03T07:46:34Z</time>
      </trkpt>
      <trkpt lat="49.17525" lon="6.81326">
        <ele>310.2</ele>
        <time>2013-04-03T07:46:39Z</time>
      </trkpt>
      <trkpt lat="49.17531" lon="6.81325">
        <ele>310</ele>
        <time>2013-04-03T07:46:44Z</time>
      </trkpt>
      <trkpt lat="49.17535" lon="6.81323">
        <ele>310.1</ele>
        <time>2013-04-03T07:46:49Z</time>
      </trkpt>
      <trkpt lat="49.17535" lon="6.81323">
        <ele>309.6</ele>
        <time>2013-04-03T07:46:54Z</time>
      </trkpt>
      <trkpt lat="49.17534" lon="6.81324">
        <ele>309.5</ele>
        <time>2013-04-03T07:46:59Z</time>
      </trkpt>
      <trkpt lat="49.17532" lon="6.81325">
        <ele>309.8</ele>
        <time>2013-04-03T07:47:04Z</time>
      </trkpt>
      <trkpt lat="49.17529" lon="6.81326">
        <ele>309.3</ele>
        <time>2013-04-03T07:47:09Z</time>
      </trkpt>
      <trkpt lat="49.17528" lon="6.81326">
        <ele>309.2</ele>
        <time>2013-04-03T07:47:10Z</time>
      </trkpt>
      <trkpt lat="49.17526" lon="6.8133">
        <ele>309.7</ele>
        <time>2013-04-03T07:47:19Z</time>
      </trkpt>
      <trkpt lat="49.17525" lon="6.81332">
        <ele>310.1</ele>
        <time>2013-04-03T07:47:24Z</time>
      </trkpt>
      <trkpt lat="49.17526" lon="6.81333">
        <ele>310.1</ele>
        <time>2013-04-03T07:47:29Z</time>
      </trkpt>
      <trkpt lat="49.17526" lon="6.81335">
        <ele>310.6</ele>
        <time>2013-04-03T07:47:34Z</time>
      </trkpt>
      <trkpt lat="49.17526" lon="6.81332">
        <ele>310.8</ele>
        <time>2013-04-03T07:47:39Z</time>
      </trkpt>
      <trkpt lat="49.17526" lon="6.81332">
        <ele>310.8</ele>
        <time>2013-04-03T07:47:44Z</time>
      </trkpt>
      <trkpt lat="49.17526" lon="6.81332">
        <ele>311.1</ele>
        <time>2013-04-03T07:47:49Z</time>
      </trkpt>
      <trkpt lat="49.17526" lon="6.81332">
        <ele>311.1</ele>
        <time>2013-04-03T07:47:54Z</time>
      </trkpt>
      <trkpt lat="49.17529" lon="6.81329">
        <ele>309.8</ele>
        <time>2013-04-03T07:47:59Z</time>
      </trkpt>
      <trkpt lat="49.1753" lon="6.81328">
        <ele>309.4</ele>
        <time>2013-04-03T07:48:04Z</time>
      </trkpt>
      <trkpt lat="49.17534" lon="6.81325">
        <ele>310.1</ele>
        <time>2013-04-03T07:48:09Z</time>
      </trkpt>
      <trkpt lat="49.17537" lon="6.81324">
        <ele>309.3</ele>
        <time>2013-04-03T07:48:14Z</time>
      </trkpt>
      <trkpt lat="49.17537" lon="6.81324">
        <ele>309</ele>
        <time>2013-04-03T07:48:15Z</time>
      </trkpt>
      <trkpt lat="49.17537" lon="6.81323">
        <ele>308.7</ele>
        <time>2013-04-03T07:48:24Z</time>
      </trkpt>
      <trkpt lat="49.17537" lon="6.81323">
        <ele>309</ele>
        <time>2013-04-03T07:48:29Z</time>
      </trkpt>
      <trkpt lat="49.17536" lon="6.81324">
        <ele>309</ele>
        <time>2013-04-03T07:48:34Z</time>
      </trkpt>
      <trkpt lat="49.17536" lon="6.81323">
        <ele>308.7</ele>
        <time>2013-04-03T07:48:39Z</time>
      </trkpt>
      <trkpt lat="49.17536" lon="6.81322">
        <ele>308.7</ele>
        <time>2013-04-03T07:48:44Z</time>
      </trkpt>
      <trkpt lat="49.17536" lon="6.81322">
        <ele>308.3</ele>
        <time>2013-04-03T07:48:49Z</time>
      </trkpt>
      <trkpt lat="49.17537" lon="6.81319">
        <ele>307.9</ele>
        <time>2013-04-03T07:48:54Z</time>
      </trkpt>
      <trkpt lat="49.17535" lon="6.81315">
        <ele>306.5</ele>
        <time>2013-04-03T07:48:59Z</time>
      </trkpt>
      <trkpt lat="49.17532" lon="6.81313">
        <ele>305.3</ele>
        <time>2013-04-03T07:49:04Z</time>
      </trkpt>
      <trkpt lat="49.1753" lon="6.8131">
        <ele>304.3</ele>
        <time>2013-04-03T07:49:09Z</time>
      </trkpt>
      <trkpt lat="49.17526" lon="6.81308">
        <ele>303</ele>
        <time>2013-04-03T07:49:14Z</time>
      </trkpt>
      <trkpt lat="49.17523" lon="6.81305">
        <ele>302.4</ele>
        <time>2013-04-03T07:49:19Z</time>
      </trkpt>
      <trkpt lat="49.17523" lon="6.81304">
        <ele>302</ele>
        <time>2013-04-03T07:49:20Z</time>
      </trkpt>
      <trkpt lat="49.17514" lon="6.81304">
        <ele>299.6</ele>
        <time>2013-04-03T07:49:29Z</time>
      </trkpt>
      <trkpt lat="49.1751" lon="6.81304">
        <ele>299.3</ele>
        <time>2013-04-03T07:49:34Z</time>
      </trkpt>
      <trkpt lat="49.17507" lon="6.81301">
        <ele>299.2</ele>
        <time>2013-04-03T07:49:39Z</time>
      </trkpt>
      <trkpt lat="49.17508" lon="6.81299">
        <ele>298.3</ele>
        <time>2013-04-03T07:49:44Z</time>
      </trkpt>
      <trkpt lat="49.17509" lon="6.81298">
        <ele>297.9</ele>
        <time>2013-04-03T07:49:49Z</time>
      </trkpt>
      <trkpt lat="49.17513" lon="6.81294">
        <ele>297</ele>
        <time>2013-04-03T07:49:54Z</time>
      </trkpt>
      <trkpt lat="49.17518" lon="6.81289">
        <ele>295.6</ele>
        <time>2013-04-03T07:49:59Z</time>
      </trkpt>
      <trkpt lat="49.17522" lon="6.81284">
        <ele>295.6</ele>
        <time>2013-04-03T07:50:04Z</time>
      </trkpt>
      <trkpt lat="49.17521" lon="6.81281">
        <ele>294.2</ele>
        <time>2013-04-03T07:50:09Z</time>
      </trkpt>
      <trkpt lat="49.17517" lon="6.81282">
        <ele>293.6</ele>
        <time>2013-04-03T07:50:14Z</time>
      </trkpt>
      <trkpt lat="49.17512" lon="6.81282">
        <ele>293</ele>
        <time>2013-04-03T07:50:19Z</time>
      </trkpt>
      <trkpt lat="49.17507" lon="6.81283">
        <ele>292.5</ele>
        <time>2013-04-03T07:50:24Z</time>
      </trkpt>
      <trkpt lat="49.17506" lon="6.81283">
        <ele>292.3</ele>
        <time>2013-04-03T07:50:25Z</time>
      </trkpt>
      <trkpt lat="49.1751" lon="6.81278">
        <ele>290.6</ele>
        <time>2013-04-03T07:50:34Z</time>
      </trkpt>
      <trkpt lat="49.17514" lon="6.81274">
        <ele>290.1</ele>
        <time>2013-04-03T07:50:39Z</time>
      </trkpt>
      <trkpt lat="49.1751" lon="6.81272">
        <ele>289.3</ele>
        <time>2013-04-03T07:50:44Z</time>
      </trkpt>
      <trkpt lat="49.17505" lon="6.81273">
        <ele>289.3</ele>
        <time>2013-04-03T07:50:49Z</time>
      </trkpt>
      <trkpt lat="49.175" lon="6.81276">
        <ele>289.3</ele>
        <time>2013-04-03T07:50:54Z</time>
      </trkpt>
      <trkpt lat="49.17495" lon="6.81275">
        <ele>287.9</ele>
        <time>2013-04-03T07:50:59Z</time>
      </trkpt>
      <trkpt lat="49.17495" lon="6.81275">
        <ele>287.8</ele>
        <time>2013-04-03T07:51:04Z</time>
      </trkpt>
      <trkpt lat="49.17498" lon="6.8127">
        <ele>287.5</ele>
        <time>2013-04-03T07:51:09Z</time>
      </trkpt>
      <trkpt lat="49.17502" lon="6.81266">
        <ele>286.1</ele>
        <time>2013-04-03T07:51:14Z</time>
      </trkpt>
      <trkpt lat="49.17506" lon="6.81261">
        <ele>285.4</ele>
        <time>2013-04-03T07:51:19Z</time>
      </trkpt>
      <trkpt lat="49.17509" lon="6.81256">
        <ele>284.6</ele>
        <time>2013-04-03T07:51:24Z</time>
      </trkpt>
      <trkpt lat="49.17509" lon="6.81254">
        <ele>283.9</ele>
        <time>2013-04-03T07:51:29Z</time>
      </trkpt>
      <trkpt lat="49.17509" lon="6.81254">
        <ele>284</ele>
        <time>2013-04-03T07:51:30Z</time>
      </trkpt>
      <trkpt lat="49.17498" lon="6.81255">
        <ele>282</ele>
        <time>2013-04-03T07:51:41Z</time>
      </trkpt>
      <trkpt lat="49.17493" lon="6.81255">
        <ele>282.4</ele>
        <time>2013-04-03T07:51:46Z</time>
      </trkpt>
      <trkpt lat="49.17493" lon="6.81249">
        <ele>282.2</ele>
        <time>2013-04-03T07:51:51Z</time>
      </trkpt>
      <trkpt lat="49.17498" lon="6.81244">
        <ele>281</ele>
        <time>2013-04-03T07:51:56Z</time>
      </trkpt>
      <trkpt lat="49.17503" lon="6.81238">
        <ele>280.8</ele>
        <time>2013-04-03T07:52:01Z</time>
      </trkpt>
      <trkpt lat="49.17502" lon="6.81234">
        <ele>280</ele>
        <time>2013-04-03T07:52:06Z</time>
      </trkpt>
      <trkpt lat="49.17496" lon="6.81234">
        <ele>279.2</ele>
        <time>2013-04-03T07:52:11Z</time>
      </trkpt>
      <trkpt lat="49.1749" lon="6.81236">
        <ele>278.4</ele>
        <time>2013-04-03T07:52:16Z</time>
      </trkpt>
      <trkpt lat="49.17484" lon="6.81239">
        <ele>278.1</ele>
        <time>2013-04-03T07:52:21Z</time>
      </trkpt>
      <trkpt lat="49.1748" lon="6.81234">
        <ele>277.5</ele>
        <time>2013-04-03T07:52:26Z</time>
      </trkpt>
      <trkpt lat="49.17483" lon="6.81227">
        <ele>276.9</ele>
        <time>2013-04-03T07:52:31Z</time>
      </trkpt>
      <trkpt lat="49.17484" lon="6.81225">
        <ele>276.5</ele>
        <time>2013-04-03T07:52:32Z</time>
      </trkpt>
      <trkpt lat="49.17488" lon="6.81216">
        <ele>275.5</ele>
        <time>2013-04-03T07:52:41Z</time>
      </trkpt>
      <trkpt lat="49.1749" lon="6.81211">
        <ele>274.7</ele>
        <time>2013-04-03T07:52:46Z</time>
      </trkpt>
      <trkpt lat="49.1749" lon="6.81207">
        <ele>274.5</ele>
        <time>2013-04-03T07:52:51Z</time>
      </trkpt>
      <trkpt lat="49.17489" lon="6.81203">
        <ele>274.3</ele>
        <time>2013-04-03T07:52:56Z</time>
      </trkpt>
      <trkpt lat="49.17487" lon="6.812">
        <ele>273.6</ele>
        <time>2013-04-03T07:53:01Z</time>
      </trkpt>
      <trkpt lat="49.17487" lon="6.81197">
        <ele>273</ele>
        <time>2013-04-03T07:53:06Z</time>
      </trkpt>
      <trkpt lat="49.1749" lon="6.81191">
        <ele>272.4</ele>
        <time>2013-04-03T07:53:11Z</time>
      </trkpt>
      <trkpt lat="49.17494" lon="6.81186">
        <ele>272.2</ele>
        <time>2013-04-03T07:53:16Z</time>
      </trkpt>
      <trkpt lat="49.17495" lon="6.81179">
        <ele>272.4</ele>
        <time>2013-04-03T07:53:21Z</time>
      </trkpt>
      <trkpt lat="49.17492" lon="6.81171">
        <ele>271.4</ele>
        <time>2013-04-03T07:53:26Z</time>
      </trkpt>
      <trkpt lat="49.17489" lon="6.81164">
        <ele>270.3</ele>
        <time>2013-04-03T07:53:31Z</time>
      </trkpt>
      <trkpt lat="49.17486" lon="6.81157">
        <ele>269.5</ele>
        <time>2013-04-03T07:53:36Z</time>
      </trkpt>
      <trkpt lat="49.17486" lon="6.81155">
        <ele>269.4</ele>
        <time>2013-04-03T07:53:37Z</time>
      </trkpt>
      <trkpt lat="49.1748" lon="6.81142">
        <ele>267.7</ele>
        <time>2013-04-03T07:53:46Z</time>
      </trkpt>
      <trkpt lat="49.17476" lon="6.81134">
        <ele>266.8</ele>
        <time>2013-04-03T07:53:51Z</time>
      </trkpt>
      <trkpt lat="49.17472" lon="6.81126">
        <ele>265.7</ele>
        <time>2013-04-03T07:53:56Z</time>
      </trkpt>
      <trkpt lat="49.17469" lon="6.8112">
        <ele>265.3</ele>
        <time>2013-04-03T07:54:01Z</time>
      </trkpt>
      <trkpt lat="49.17466" lon="6.81114">
        <ele>264</ele>
        <time>2013-04-03T07:54:06Z</time>
      </trkpt>
      <trkpt lat="49.17463" lon="6.81111">
        <ele>263.2</ele>
        <time>2013-04-03T07:54:11Z</time>
      </trkpt>
      <trkpt lat="49.17462" lon="6.8111">
        <ele>262.5</ele>
        <time>2013-04-03T07:54:16Z</time>
      </trkpt>
      <trkpt lat="49.17463" lon="6.8111">
        <ele>262.1</ele>
        <time>2013-04-03T07:54:21Z</time>
      </trkpt>
      <trkpt lat="49.17463" lon="6.81108">
        <ele>261.5</ele>
        <time>2013-04-03T07:54:26Z</time>
      </trkpt>
      <trkpt lat="49.17461" lon="6.81103">
        <ele>261.6</ele>
        <time>2013-04-03T07:54:31Z</time>
      </trkpt>
      <trkpt lat="49.17461" lon="6.81098">
        <ele>261.6</ele>
        <time>2013-04-03T07:54:36Z</time>
      </trkpt>
      <trkpt lat="49.17461" lon="6.81096">
        <ele>261.3</ele>
        <time>2013-04-03T07:54:41Z</time>
      </trkpt>
      <trkpt lat="49.17461" lon="6.81096">
        <ele>261.2</ele>
        <time>2013-04-03T07:54:42Z</time>
      </trkpt>
      <trkpt lat="49.17457" lon="6.81094">
        <ele>261</ele>
        <time>2013-04-03T07:54:51Z</time>
      </trkpt>
      <trkpt lat="49.17453" lon="6.81094">
        <ele>260.8</ele>
        <time>2013-04-03T07:54:56Z</time>
      </trkpt>
      <trkpt lat="49.17452" lon="6.81094">
        <ele>261.4</ele>
        <time>2013-04-03T07:55:01Z</time>
      </trkpt>
      <trkpt lat="49.17451" lon="6.81095">
        <ele>260.9</ele>
        <time>2013-04-03T07:55:06Z</time>
      </trkpt>
      <trkpt lat="49.1745" lon="6.81097">
        <ele>260.7</ele>
        <time>2013-04-03T07:55:11Z</time>
      </trkpt>
      <trkpt lat="49.17446" lon="6.81101">
        <ele>260.7</ele>
        <time>2013-04-03T07:55:16Z</time>
      </trkpt>
      <trkpt lat="49.17445" lon="6.81102">
        <ele>260.4</ele>
        <time>2013-04-03T07:55:21Z</time>
      </trkpt>
      <trkpt lat="49.17447" lon="6.81102">
        <ele>260.4</ele>
        <time>2013-04-03T07:55:26Z</time>
      </trkpt>
      <trkpt lat="49.1745" lon="6.811">
        <ele>260.8</ele>
        <time>2013-04-03T07:55:31Z</time>
      </trkpt>
      <trkpt lat="49.17451" lon="6.81095">
        <ele>260.8</ele>
        <time>2013-04-03T07:55:36Z</time>
      </trkpt>
      <trkpt lat="49.1745" lon="6.81093">
        <ele>260.1</ele>
        <time>2013-04-03T07:55:41Z</time>
      </trkpt>
      <trkpt lat="49.17449" lon="6.81095">
        <ele>259.3</ele>
        <time>2013-04-03T07:55:46Z</time>
      </trkpt>
      <trkpt lat="49.17449" lon="6.81095">
        <ele>259.7</ele>
        <time>2013-04-03T07:55:47Z</time>
      </trkpt>
      <trkpt lat="49.17448" lon="6.81098">
        <ele>260</ele>
        <time>2013-04-03T07:55:56Z</time>
      </trkpt>
      <trkpt lat="49.17451" lon="6.81096">
        <ele>260.6</ele>
        <time>2013-04-03T07:56:01Z</time>
      </trkpt>
      <trkpt lat="49.17454" lon="6.81091">
        <ele>259.7</ele>
        <time>2013-04-03T07:56:06Z</time>
      </trkpt>
      <trkpt lat="49.17456" lon="6.8109">
        <ele>259.7</ele>
        <time>2013-04-03T07:56:11Z</time>
      </trkpt>
      <trkpt lat="49.17459" lon="6.81088">
        <ele>259.2</ele>
        <time>2013-04-03T07:56:16Z</time>
      </trkpt>
      <trkpt lat="49.17462" lon="6.81084">
        <ele>257.6</ele>
        <time>2013-04-03T07:56:21Z</time>
      </trkpt>
      <trkpt lat="49.17465" lon="6.8108">
        <ele>256.1</ele>
        <time>2013-04-03T07:56:26Z</time>
      </trkpt>
      <trkpt lat="49.17468" lon="6.81075">
        <ele>254.6</ele>
        <time>2013-04-03T07:56:31Z</time>
      </trkpt>
      <trkpt lat="49.17469" lon="6.81074">
        <ele>254.4</ele>
        <time>2013-04-03T07:56:36Z</time>
      </trkpt>
      <trkpt lat="49.17469" lon="6.81073">
        <ele>254</ele>
        <time>2013-04-03T07:56:41Z</time>
      </trkpt>
      <trkpt lat="49.17469" lon="6.81073">
        <ele>254.6</ele>
        <time>2013-04-03T07:56:46Z</time>
      </trkpt>
      <trkpt lat="49.17468" lon="6.81074">
        <ele>254.5</ele>
        <time>2013-04-03T07:56:51Z</time>
      </trkpt>
      <trkpt lat="49.17468" lon="6.81074">
        <ele>254.2</ele>
        <time>2013-04-03T07:56:52Z</time>
      </trkpt>
      <trkpt lat="49.17468" lon="6.81071">
        <ele>253.6</ele>
        <time>2013-04-03T07:57:01Z</time>
      </trkpt>
      <trkpt lat="49.1747" lon="6.81062">
        <ele>253.8</ele>
        <time>2013-04-03T07:57:06Z</time>
      </trkpt>
      <trkpt lat="49.17472" lon="6.81054">
        <ele>254.1</ele>
        <time>2013-04-03T07:57:11Z</time>
      </trkpt>
      <trkpt lat="49.17474" lon="6.81047">
        <ele>254.1</ele>
        <time>2013-04-03T07:57:16Z</time>
      </trkpt>
      <trkpt lat="49.17475" lon="6.81044">
        <ele>254.2</ele>
        <time>2013-04-03T07:57:21Z</time>
      </trkpt>
      <trkpt lat="49.17475" lon="6.81042">
        <ele>254.2</ele>
        <time>2013-04-03T07:57:26Z</time>
      </trkpt>
      <trkpt lat="49.17476" lon="6.81042">
        <ele>254.6</ele>
        <time>2013-04-03T07:57:31Z</time>
      </trkpt>
      <trkpt lat="49.17477" lon="6.8104">
        <ele>254.5</ele>
        <time>2013-04-03T07:57:36Z</time>
      </trkpt>
      <trkpt lat="49.17479" lon="6.81036">
        <ele>254.3</ele>
        <time>2013-04-03T07:57:41Z</time>
      </trkpt>
      <trkpt lat="49.17482" lon="6.81028">
        <ele>254.2</ele>
        <time>2013-04-03T07:57:46Z</time>
      </trkpt>
      <trkpt lat="49.17485" lon="6.8102">
        <ele>253.7</ele>
        <time>2013-04-03T07:57:51Z</time>
      </trkpt>
      <trkpt lat="49.17488" lon="6.81012">
        <ele>254</ele>
        <time>2013-04-03T07:57:56Z</time>
      </trkpt>
      <trkpt lat="49.17489" lon="6.8101">
        <ele>254</ele>
        <time>2013-04-03T07:57:57Z</time>
      </trkpt>
      <trkpt lat="49.17493" lon="6.80995">
        <ele>253.6</ele>
        <time>2013-04-03T07:58:06Z</time>
      </trkpt>
      <trkpt lat="49.17496" lon="6.80986">
        <ele>254.2</ele>
        <time>2013-04-03T07:58:11Z</time>
      </trkpt>
      <trkpt lat="49.17498" lon="6.80977">
        <ele>254.6</ele>
        <time>2013-04-03T07:58:16Z</time>
      </trkpt>
      <trkpt lat="49.17501" lon="6.80968">
        <ele>255.2</ele>
        <time>2013-04-03T07:58:21Z</time>
      </trkpt>
      <trkpt lat="49.17502" lon="6.8096">
        <ele>255.6</ele>
        <time>2013-04-03T07:58:26Z</time>
      </trkpt>
      <trkpt lat="49.17503" lon="6.80952">
        <ele>255.6</ele>
        <time>2013-04-03T07:58:31Z</time>
      </trkpt>
      <trkpt lat="49.175" lon="6.80943">
        <ele>256.3</ele>
        <time>2013-04-03T07:58:36Z</time>
      </trkpt>
      <trkpt lat="49.17499" lon="6.80934">
        <ele>256.7</ele>
        <time>2013-04-03T07:58:41Z</time>
      </trkpt>
      <trkpt lat="49.17497" lon="6.80926">
        <ele>256.9</ele>
        <time>2013-04-03T07:58:46Z</time>
      </trkpt>
      <trkpt lat="49.17496" lon="6.80917">
        <ele>258.2</ele>
        <time>2013-04-03T07:58:51Z</time>
      </trkpt>
      <trkpt lat="49.17496" lon="6.80908">
        <ele>258.1</ele>
        <time>2013-04-03T07:58:56Z</time>
      </trkpt>
      <trkpt lat="49.17496" lon="6.809">
        <ele>259</ele>
        <time>2013-04-03T07:59:01Z</time>
      </trkpt>
      <trkpt lat="49.17496" lon="6.80898">
        <ele>259.4</ele>
        <time>2013-04-03T07:59:02Z</time>
      </trkpt>
      <trkpt lat="49.17499" lon="6.80885">
        <ele>260</ele>
        <time>2013-04-03T07:59:11Z</time>
      </trkpt>
      <trkpt lat="49.17502" lon="6.80878">
        <ele>260.7</ele>
        <time>2013-04-03T07:59:16Z</time>
      </trkpt>
      <trkpt lat="49.17505" lon="6.80871">
        <ele>260.8</ele>
        <time>2013-04-03T07:59:21Z</time>
      </trkpt>
      <trkpt lat="49.17507" lon="6.80863">
        <ele>260.7</ele>
        <time>2013-04-03T07:59:26Z</time>
      </trkpt>
      <trkpt lat="49.17509" lon="6.80855">
        <ele>260.4</ele>
        <time>2013-04-03T07:59:31Z</time>
      </trkpt>
      <trkpt lat="49.17511" lon="6.80846">
        <ele>260.6</ele>
        <time>2013-04-03T07:59:36Z</time>
      </trkpt>
      <trkpt lat="49.17514" lon="6.80837">
        <ele>260.8</ele>
        <time>2013-04-03T07:59:41Z</time>
      </trkpt>
      <trkpt lat="49.17515" lon="6.8083">
        <ele>261.4</ele>
        <time>2013-04-03T07:59:46Z</time>
      </trkpt>
      <trkpt lat="49.17517" lon="6.80823">
        <ele>261.8</ele>
        <time>2013-04-03T07:59:51Z</time>
      </trkpt>
      <trkpt lat="49.17519" lon="6.80815">
        <ele>262.2</ele>
        <time>2013-04-03T07:59:56Z</time>
      </trkpt>
      <trkpt lat="49.17522" lon="6.80807">
        <ele>261.9</ele>
        <time>2013-04-03T08:00:01Z</time>
      </trkpt>
      <trkpt lat="49.17525" lon="6.808">
        <ele>262.4</ele>
        <time>2013-04-03T08:00:06Z</time>
      </trkpt>
      <trkpt lat="49.17526" lon="6.80799">
        <ele>262.6</ele>
        <time>2013-04-03T08:00:07Z</time>
      </trkpt>
      <trkpt lat="49.17528" lon="6.80786">
        <ele>261.8</ele>
        <time>2013-04-03T08:00:16Z</time>
      </trkpt>
      <trkpt lat="49.17525" lon="6.80783">
        <ele>262</ele>
        <time>2013-04-03T08:00:21Z</time>
      </trkpt>
      <trkpt lat="49.17521" lon="6.80779">
        <ele>261</ele>
        <time>2013-04-03T08:00:26Z</time>
      </trkpt>
      <trkpt lat="49.17519" lon="6.80777">
        <ele>260.3</ele>
        <time>2013-04-03T08:00:31Z</time>
      </trkpt>
      <trkpt lat="49.17519" lon="6.80777">
        <ele>260.3</ele>
        <time>2013-04-03T08:00:36Z</time>
      </trkpt>
      <trkpt lat="49.1752" lon="6.80776">
        <ele>259.6</ele>
        <time>2013-04-03T08:00:41Z</time>
      </trkpt>
      <trkpt lat="49.17518" lon="6.80773">
        <ele>258.9</ele>
        <time>2013-04-03T08:00:46Z</time>
      </trkpt>
      <trkpt lat="49.17515" lon="6.80769">
        <ele>258.9</ele>
        <time>2013-04-03T08:00:51Z</time>
      </trkpt>
      <trkpt lat="49.17512" lon="6.80764">
        <ele>258.4</ele>
        <time>2013-04-03T08:00:56Z</time>
      </trkpt>
      <trkpt lat="49.17509" lon="6.80761">
        <ele>258.6</ele>
        <time>2013-04-03T08:01:01Z</time>
      </trkpt>
      <trkpt lat="49.17506" lon="6.80758">
        <ele>258</ele>
        <time>2013-04-03T08:01:06Z</time>
      </trkpt>
      <trkpt lat="49.17503" lon="6.80752">
        <ele>258.2</ele>
        <time>2013-04-03T08:01:11Z</time>
      </trkpt>
      <trkpt lat="49.17503" lon="6.8075">
        <ele>258.3</ele>
        <time>2013-04-03T08:01:12Z</time>
      </trkpt>
      <trkpt lat="49.17496" lon="6.80735">
        <ele>258.3</ele>
        <time>2013-04-03T08:01:21Z</time>
      </trkpt>
      <trkpt lat="49.17494" lon="6.80728">
        <ele>257.6</ele>
        <time>2013-04-03T08:01:26Z</time>
      </trkpt>
      <trkpt lat="49.17491" lon="6.8072">
        <ele>257.7</ele>
        <time>2013-04-03T08:01:31Z</time>
      </trkpt>
      <trkpt lat="49.17487" lon="6.80712">
        <ele>257.4</ele>
        <time>2013-04-03T08:01:36Z</time>
      </trkpt>
      <trkpt lat="49.17483" lon="6.80705">
        <ele>257.9</ele>
        <time>2013-04-03T08:01:41Z</time>
      </trkpt>
      <trkpt lat="49.1748" lon="6.80699">
        <ele>257.5</ele>
        <time>2013-04-03T08:01:46Z</time>
      </trkpt>
      <trkpt lat="49.17479" lon="6.80691">
        <ele>257.3</ele>
        <time>2013-04-03T08:01:51Z</time>
      </trkpt>
      <trkpt lat="49.17479" lon="6.80683">
        <ele>257.1</ele>
        <time>2013-04-03T08:01:56Z</time>
      </trkpt>
      <trkpt lat="49.1748" lon="6.80674">
        <ele>257.1</ele>
        <time>2013-04-03T08:02:01Z</time>
      </trkpt>
      <trkpt lat="49.17484" lon="6.80667">
        <ele>257</ele>
        <time>2013-04-03T08:02:06Z</time>
      </trkpt>
      <trkpt lat="49.17488" lon="6.80661">
        <ele>256.9</ele>
        <time>2013-04-03T08:02:11Z</time>
      </trkpt>
      <trkpt lat="49.17493" lon="6.80655">
        <ele>256.9</ele>
        <time>2013-04-03T08:02:16Z</time>
      </trkpt>
      <trkpt lat="49.17494" lon="6.80654">
        <ele>256.7</ele>
        <time>2013-04-03T08:02:17Z</time>
      </trkpt>
      <trkpt lat="49.17504" lon="6.80643">
        <ele>256.2</ele>
        <time>2013-04-03T08:02:26Z</time>
      </trkpt>
      <trkpt lat="49.1751" lon="6.80637">
        <ele>256.8</ele>
        <time>2013-04-03T08:02:31Z</time>
      </trkpt>
      <trkpt lat="49.17514" lon="6.80631">
        <ele>256.6</ele>
        <time>2013-04-03T08:02:36Z</time>
      </trkpt>
      <trkpt lat="49.17519" lon="6.80626">
        <ele>257.1</ele>
        <time>2013-04-03T08:02:41Z</time>
      </trkpt>
      <trkpt lat="49.17524" lon="6.8062">
        <ele>257.2</ele>
        <time>2013-04-03T08:02:46Z</time>
      </trkpt>
      <trkpt lat="49.1753" lon="6.80614">
        <ele>256.8</ele>
        <time>2013-04-03T08:02:51Z</time>
      </trkpt>
      <trkpt lat="49.17534" lon="6.80609">
        <ele>256.4</ele>
        <time>2013-04-03T08:02:56Z</time>
      </trkpt>
      <trkpt lat="49.17539" lon="6.80603">
        <ele>256.7</ele>
        <time>2013-04-03T08:03:01Z</time>
      </trkpt>
      <trkpt lat="49.17544" lon="6.80597">
        <ele>256.5</ele>
        <time>2013-04-03T08:03:06Z</time>
      </trkpt>
      <trkpt lat="49.1755" lon="6.80595">
        <ele>256.6</ele>
        <time>2013-04-03T08:03:11Z</time>
      </trkpt>
      <trkpt lat="49.17557" lon="6.80595">
        <ele>255.8</ele>
        <time>2013-04-03T08:03:16Z</time>
      </trkpt>
      <trkpt lat="49.17563" lon="6.80597">
        <ele>256.4</ele>
        <time>2013-04-03T08:03:21Z</time>
      </trkpt>
      <trkpt lat="49.17564" lon="6.80597">
        <ele>256.3</ele>
        <time>2013-04-03T08:03:22Z</time>
      </trkpt>
      <trkpt lat="49.17573" lon="6.80587">
        <ele>256.8</ele>
        <time>2013-04-03T08:03:31Z</time>
      </trkpt>
      <trkpt lat="49.17578" lon="6.80581">
        <ele>257</ele>
        <time>2013-04-03T08:03:36Z</time>
      </trkpt>
      <trkpt lat="49.17583" lon="6.80575">
        <ele>256.7</ele>
        <time>2013-04-03T08:03:41Z</time>
      </trkpt>
      <trkpt lat="49.17588" lon="6.80568">
        <ele>256.2</ele>
        <time>2013-04-03T08:03:46Z</time>
      </trkpt>
      <trkpt lat="49.17593" lon="6.80561">
        <ele>256.1</ele>
        <time>2013-04-03T08:03:51Z</time>
      </trkpt>
      <trkpt lat="49.17598" lon="6.80554">
        <ele>255.4</ele>
        <time>2013-04-03T08:03:56Z</time>
      </trkpt>
      <trkpt lat="49.17603" lon="6.80547">
        <ele>255.6</ele>
        <time>2013-04-03T08:04:01Z</time>
      </trkpt>
      <trkpt lat="49.17609" lon="6.80539">
        <ele>255.8</ele>
        <time>2013-04-03T08:04:06Z</time>
      </trkpt>
      <trkpt lat="49.17614" lon="6.80532">
        <ele>255.8</ele>
        <time>2013-04-03T08:04:11Z</time>
      </trkpt>
      <trkpt lat="49.17619" lon="6.80525">
        <ele>256.4</ele>
        <time>2013-04-03T08:04:16Z</time>
      </trkpt>
      <trkpt lat="49.17625" lon="6.80517">
        <ele>256.5</ele>
        <time>2013-04-03T08:04:21Z</time>
      </trkpt>
      <trkpt lat="49.1763" lon="6.80511">
        <ele>256.4</ele>
        <time>2013-04-03T08:04:26Z</time>
      </trkpt>
      <trkpt lat="49.17631" lon="6.80509">
        <ele>256.1</ele>
        <time>2013-04-03T08:04:27Z</time>
      </trkpt>
      <trkpt lat="49.17633" lon="6.80504">
        <ele>255.4</ele>
        <time>2013-04-03T08:04:36Z</time>
      </trkpt>
      <trkpt lat="49.17632" lon="6.80503">
        <ele>255.4</ele>
        <time>2013-04-03T08:04:41Z</time>
      </trkpt>
      <trkpt lat="49.17631" lon="6.80504">
        <ele>255.3</ele>
        <time>2013-04-03T08:04:46Z</time>
      </trkpt>
      <trkpt lat="49.17631" lon="6.80504">
        <ele>255.3</ele>
        <time>2013-04-03T08:04:51Z</time>
      </trkpt>
      <trkpt lat="49.1763" lon="6.80506">
        <ele>256.1</ele>
        <time>2013-04-03T08:04:56Z</time>
      </trkpt>
      <trkpt lat="49.17629" lon="6.80506">
        <ele>256.2</ele>
        <time>2013-04-03T08:05:01Z</time>
      </trkpt>
      <trkpt lat="49.17628" lon="6.80507">
        <ele>255.3</ele>
        <time>2013-04-03T08:05:06Z</time>
      </trkpt>
      <trkpt lat="49.1763" lon="6.80506">
        <ele>255.4</ele>
        <time>2013-04-03T08:05:11Z</time>
      </trkpt>
      <trkpt lat="49.17635" lon="6.80502">
        <ele>256</ele>
        <time>2013-04-03T08:05:16Z</time>
      </trkpt>
      <trkpt lat="49.1764" lon="6.80496">
        <ele>255.4</ele>
        <time>2013-04-03T08:05:21Z</time>
      </trkpt>
      <trkpt lat="49.17645" lon="6.80492">
        <ele>255.6</ele>
        <time>2013-04-03T08:05:26Z</time>
      </trkpt>
      <trkpt lat="49.17651" lon="6.80491">
        <ele>255.6</ele>
        <time>2013-04-03T08:05:31Z</time>
      </trkpt>
      <trkpt lat="49.17652" lon="6.80491">
        <ele>255.7</ele>
        <time>2013-04-03T08:05:32Z</time>
      </trkpt>
      <trkpt lat="49.17662" lon="6.80491">
        <ele>254.7</ele>
        <time>2013-04-03T08:05:41Z</time>
      </trkpt>
      <trkpt lat="49.17666" lon="6.80488">
        <ele>254.2</ele>
        <time>2013-04-03T08:05:46Z</time>
      </trkpt>
      <trkpt lat="49.17669" lon="6.80482">
        <ele>253.9</ele>
        <time>2013-04-03T08:05:51Z</time>
      </trkpt>
      <trkpt lat="49.17671" lon="6.80475">
        <ele>255.2</ele>
        <time>2013-04-03T08:05:56Z</time>
      </trkpt>
      <trkpt lat="49.17673" lon="6.80467">
        <ele>255.6</ele>
        <time>2013-04-03T08:06:01Z</time>
      </trkpt>
      <trkpt lat="49.17675" lon="6.8046">
        <ele>255.5</ele>
        <time>2013-04-03T08:06:06Z</time>
      </trkpt>
      <trkpt lat="49.17677" lon="6.80452">
        <ele>254.4</ele>
        <time>2013-04-03T08:06:11Z</time>
      </trkpt>
      <trkpt lat="49.1768" lon="6.80444">
        <ele>254</ele>
        <time>2013-04-03T08:06:16Z</time>
      </trkpt>
      <trkpt lat="49.17682" lon="6.80435">
        <ele>254.9</ele>
        <time>2013-04-03T08:06:21Z</time>
      </trkpt>
      <trkpt lat="49.17683" lon="6.80426">
        <ele>254.7</ele>
        <time>2013-04-03T08:06:26Z</time>
      </trkpt>
      <trkpt lat="49.17686" lon="6.80417">
        <ele>255.4</ele>
        <time>2013-04-03T08:06:31Z</time>
      </trkpt>
      <trkpt lat="49.17688" lon="6.80407">
        <ele>256</ele>
        <time>2013-04-03T08:06:36Z</time>
      </trkpt>
      <trkpt lat="49.17689" lon="6.80405">
        <ele>255.3</ele>
        <time>2013-04-03T08:06:37Z</time>
      </trkpt>
      <trkpt lat="49.17693" lon="6.80388">
        <ele>255.2</ele>
        <time>2013-04-03T08:06:46Z</time>
      </trkpt>
      <trkpt lat="49.17695" lon="6.80378">
        <ele>255.7</ele>
        <time>2013-04-03T08:06:51Z</time>
      </trkpt>
      <trkpt lat="49.17698" lon="6.80369">
        <ele>255.6</ele>
        <time>2013-04-03T08:06:56Z</time>
      </trkpt>
      <trkpt lat="49.17701" lon="6.80361">
        <ele>255.7</ele>
        <time>2013-04-03T08:07:01Z</time>
      </trkpt>
      <trkpt lat="49.17704" lon="6.80353">
        <ele>256.4</ele>
        <time>2013-04-03T08:07:06Z</time>
      </trkpt>
      <trkpt lat="49.17707" lon="6.80345">
        <ele>256.6</ele>
        <time>2013-04-03T08:07:11Z</time>
      </trkpt>
      <trkpt lat="49.1771" lon="6.80337">
        <ele>256.2</ele>
        <time>2013-04-03T08:07:16Z</time>
      </trkpt>
      <trkpt lat="49.17713" lon="6.80329">
        <ele>256.2</ele>
        <time>2013-04-03T08:07:21Z</time>
      </trkpt>
      <trkpt lat="49.17715" lon="6.80322">
        <ele>256.7</ele>
        <time>2013-04-03T08:07:26Z</time>
      </trkpt>
      <trkpt lat="49.17718" lon="6.80315">
        <ele>256.7</ele>
        <time>2013-04-03T08:07:31Z</time>
      </trkpt>
      <trkpt lat="49.17721" lon="6.80308">
        <ele>256.9</ele>
        <time>2013-04-03T08:07:36Z</time>
      </trkpt>
      <trkpt lat="49.17724" lon="6.803">
        <ele>256.5</ele>
        <time>2013-04-03T08:07:41Z</time>
      </trkpt>
      <trkpt lat="49.17725" lon="6.80298">
        <ele>256.7</ele>
        <time>2013-04-03T08:07:42Z</time>
      </trkpt>
      <trkpt lat="49.17729" lon="6.80281">
        <ele>257</ele>
        <time>2013-04-03T08:07:51Z</time>
      </trkpt>
      <trkpt lat="49.17731" lon="6.80271">
        <ele>257.2</ele>
        <time>2013-04-03T08:07:56Z</time>
      </trkpt>
      <trkpt lat="49.17732" lon="6.80262">
        <ele>257.1</ele>
        <time>2013-04-03T08:08:01Z</time>
      </trkpt>
      <trkpt lat="49.17734" lon="6.80252">
        <ele>256.6</ele>
        <time>2013-04-03T08:08:06Z</time>
      </trkpt>
      <trkpt lat="49.17736" lon="6.80244">
        <ele>256.8</ele>
        <time>2013-04-03T08:08:11Z</time>
      </trkpt>
      <trkpt lat="49.17738" lon="6.80236">
        <ele>257.6</ele>
        <time>2013-04-03T08:08:16Z</time>
      </trkpt>
      <trkpt lat="49.1774" lon="6.80228">
        <ele>258</ele>
        <time>2013-04-03T08:08:21Z</time>
      </trkpt>
      <trkpt lat="49.17743" lon="6.80219">
        <ele>258.4</ele>
        <time>2013-04-03T08:08:26Z</time>
      </trkpt>
      <trkpt lat="49.17744" lon="6.80211">
        <ele>259.3</ele>
        <time>2013-04-03T08:08:31Z</time>
      </trkpt>
      <trkpt lat="49.17745" lon="6.80203">
        <ele>259.5</ele>
        <time>2013-04-03T08:08:36Z</time>
      </trkpt>
      <trkpt lat="49.17747" lon="6.80194">
        <ele>259.4</ele>
        <time>2013-04-03T08:08:41Z</time>
      </trkpt>
      <trkpt lat="49.17748" lon="6.80187">
        <ele>258.4</ele>
        <time>2013-04-03T08:08:46Z</time>
      </trkpt>
      <trkpt lat="49.17748" lon="6.80185">
        <ele>258.6</ele>
        <time>2013-04-03T08:08:47Z</time>
      </trkpt>
      <trkpt lat="49.1775" lon="6.8017">
        <ele>258.2</ele>
        <time>2013-04-03T08:08:56Z</time>
      </trkpt>
      <trkpt lat="49.17751" lon="6.80159">
        <ele>259.3</ele>
        <time>2013-04-03T08:09:01Z</time>
      </trkpt>
      <trkpt lat="49.1775" lon="6.80149">
        <ele>259.7</ele>
        <time>2013-04-03T08:09:06Z</time>
      </trkpt>
      <trkpt lat="49.17749" lon="6.80138">
        <ele>259.9</ele>
        <time>2013-04-03T08:09:11Z</time>
      </trkpt>
      <trkpt lat="49.17747" lon="6.80128">
        <ele>259.4</ele>
        <time>2013-04-03T08:09:16Z</time>
      </trkpt>
      <trkpt lat="49.17745" lon="6.80119">
        <ele>260.2</ele>
        <time>2013-04-03T08:09:21Z</time>
      </trkpt>
      <trkpt lat="49.17742" lon="6.80109">
        <ele>260.1</ele>
        <time>2013-04-03T08:09:26Z</time>
      </trkpt>
      <trkpt lat="49.1774" lon="6.80098">
        <ele>260.6</ele>
        <time>2013-04-03T08:09:31Z</time>
      </trkpt>
      <trkpt lat="49.17737" lon="6.80088">
        <ele>261.2</ele>
        <time>2013-04-03T08:09:36Z</time>
      </trkpt>
      <trkpt lat="49.17735" lon="6.80078">
        <ele>261.1</ele>
        <time>2013-04-03T08:09:41Z</time>
      </trkpt>
      <trkpt lat="49.17734" lon="6.80068">
        <ele>261.5</ele>
        <time>2013-04-03T08:09:46Z</time>
      </trkpt>
      <trkpt lat="49.17734" lon="6.80056">
        <ele>261.1</ele>
        <time>2013-04-03T08:09:51Z</time>
      </trkpt>
      <trkpt lat="49.17734" lon="6.80054">
        <ele>260.9</ele>
        <time>2013-04-03T08:09:52Z</time>
      </trkpt>
      <trkpt lat="49.17737" lon="6.80036">
        <ele>259.7</ele>
        <time>2013-04-03T08:10:01Z</time>
      </trkpt>
      <trkpt lat="49.1774" lon="6.80028">
        <ele>260.3</ele>
        <time>2013-04-03T08:10:06Z</time>
      </trkpt>
      <trkpt lat="49.17742" lon="6.8002">
        <ele>260.5</ele>
        <time>2013-04-03T08:10:11Z</time>
      </trkpt>
      <trkpt lat="49.17741" lon="6.80012">
        <ele>261.4</ele>
        <time>2013-04-03T08:10:16Z</time>
      </trkpt>
      <trkpt lat="49.17738" lon="6.80004">
        <ele>262.7</ele>
        <time>2013-04-03T08:10:21Z</time>
      </trkpt>
      <trkpt lat="49.17734" lon="6.79997">
        <ele>262.9</ele>
        <time>2013-04-03T08:10:26Z</time>
      </trkpt>
      <trkpt lat="49.17729" lon="6.79991">
        <ele>262.3</ele>
        <time>2013-04-03T08:10:31Z</time>
      </trkpt>
      <trkpt lat="49.17724" lon="6.79983">
        <ele>261.8</ele>
        <time>2013-04-03T08:10:36Z</time>
      </trkpt>
      <trkpt lat="49.1772" lon="6.79976">
        <ele>262.6</ele>
        <time>2013-04-03T08:10:41Z</time>
      </trkpt>
      <trkpt lat="49.17715" lon="6.79968">
        <ele>262.8</ele>
        <time>2013-04-03T08:10:46Z</time>
      </trkpt>
      <trkpt lat="49.1771" lon="6.7996">
        <ele>263.4</ele>
        <time>2013-04-03T08:10:51Z</time>
      </trkpt>
      <trkpt lat="49.17707" lon="6.79952">
        <ele>263.3</ele>
        <time>2013-04-03T08:10:56Z</time>
      </trkpt>
      <trkpt lat="49.17706" lon="6.79951">
        <ele>263.4</ele>
        <time>2013-04-03T08:10:57Z</time>
      </trkpt>
      <trkpt lat="49.177" lon="6.79939">
        <ele>262.8</ele>
        <time>2013-04-03T08:11:06Z</time>
      </trkpt>
      <trkpt lat="49.17696" lon="6.79932">
        <ele>263.8</ele>
        <time>2013-04-03T08:11:11Z</time>
      </trkpt>
      <trkpt lat="49.17693" lon="6.79925">
        <ele>264.7</ele>
        <time>2013-04-03T08:11:16Z</time>
      </trkpt>
      <trkpt lat="49.1769" lon="6.79917">
        <ele>264</ele>
        <time>2013-04-03T08:11:21Z</time>
      </trkpt>
      <trkpt lat="49.17686" lon="6.79911">
        <ele>264.7</ele>
        <time>2013-04-03T08:11:26Z</time>
      </trkpt>
      <trkpt lat="49.17683" lon="6.79904">
        <ele>265.1</ele>
        <time>2013-04-03T08:11:31Z</time>
      </trkpt>
      <trkpt lat="49.17679" lon="6.79897">
        <ele>265.2</ele>
        <time>2013-04-03T08:11:36Z</time>
      </trkpt>
      <trkpt lat="49.17675" lon="6.79889">
        <ele>265.6</ele>
        <time>2013-04-03T08:11:41Z</time>
      </trkpt>
      <trkpt lat="49.17672" lon="6.79882">
        <ele>265.8</ele>
        <time>2013-04-03T08:11:46Z</time>
      </trkpt>
      <trkpt lat="49.17668" lon="6.79875">
        <ele>265.9</ele>
        <time>2013-04-03T08:11:51Z</time>
      </trkpt>
      <trkpt lat="49.17665" lon="6.79868">
        <ele>265.2</ele>
        <time>2013-04-03T08:11:56Z</time>
      </trkpt>
      <trkpt lat="49.17662" lon="6.7986">
        <ele>265.4</ele>
        <time>2013-04-03T08:12:01Z</time>
      </trkpt>
      <trkpt lat="49.17661" lon="6.79859">
        <ele>265.6</ele>
        <time>2013-04-03T08:12:02Z</time>
      </trkpt>
      <trkpt lat="49.17655" lon="6.79844">
        <ele>265.8</ele>
        <time>2013-04-03T08:12:11Z</time>
      </trkpt>
      <trkpt lat="49.17652" lon="6.79836">
        <ele>266.5</ele>
        <time>2013-04-03T08:12:16Z</time>
      </trkpt>
      <trkpt lat="49.17648" lon="6.79828">
        <ele>266.9</ele>
        <time>2013-04-03T08:12:21Z</time>
      </trkpt>
      <trkpt lat="49.17643" lon="6.7982">
        <ele>266.4</ele>
        <time>2013-04-03T08:12:26Z</time>
      </trkpt>
      <trkpt lat="49.1764" lon="6.79811">
        <ele>267.2</ele>
        <time>2013-04-03T08:12:31Z</time>
      </trkpt>
      <trkpt lat="49.17637" lon="6.79802">
        <ele>267.4</ele>
        <time>2013-04-03T08:12:36Z</time>
      </trkpt>
      <trkpt lat="49.17634" lon="6.79793">
        <ele>267.1</ele>
        <time>2013-04-03T08:12:41Z</time>
      </trkpt>
      <trkpt lat="49.17631" lon="6.79782">
        <ele>267.5</ele>
        <time>2013-04-03T08:12:46Z</time>
      </trkpt>
      <trkpt lat="49.17628" lon="6.79772">
        <ele>268</ele>
        <time>2013-04-03T08:12:51Z</time>
      </trkpt>
      <trkpt lat="49.17627" lon="6.79764">
        <ele>267.7</ele>
        <time>2013-04-03T08:12:56Z</time>
      </trkpt>
      <trkpt lat="49.17624" lon="6.79753">
        <ele>267.3</ele>
        <time>2013-04-03T08:13:01Z</time>
      </trkpt>
      <trkpt lat="49.17622" lon="6.79744">
        <ele>266.9</ele>
        <time>2013-04-03T08:13:06Z</time>
      </trkpt>
      <trkpt lat="49.17622" lon="6.79742">
        <ele>266.7</ele>
        <time>2013-04-03T08:13:07Z</time>
      </trkpt>
      <trkpt lat="49.17619" lon="6.79724">
        <ele>268.6</ele>
        <time>2013-04-03T08:13:16Z</time>
      </trkpt>
      <trkpt lat="49.17616" lon="6.79715">
        <ele>268.6</ele>
        <time>2013-04-03T08:13:21Z</time>
      </trkpt>
      <trkpt lat="49.17613" lon="6.79705">
        <ele>268.3</ele>
        <time>2013-04-03T08:13:26Z</time>
      </trkpt>
      <trkpt lat="49.17612" lon="6.79696">
        <ele>268.6</ele>
        <time>2013-04-03T08:13:31Z</time>
      </trkpt>
      <trkpt lat="49.17609" lon="6.79687">
        <ele>269.1</ele>
        <time>2013-04-03T08:13:36Z</time>
      </trkpt>
      <trkpt lat="49.17607" lon="6.79679">
        <ele>269.2</ele>
        <time>2013-04-03T08:13:41Z</time>
      </trkpt>
      <trkpt lat="49.17605" lon="6.7967">
        <ele>268.9</ele>
        <time>2013-04-03T08:13:46Z</time>
      </trkpt>
      <trkpt lat="49.17601" lon="6.79662">
        <ele>268.8</ele>
        <time>2013-04-03T08:13:51Z</time>
      </trkpt>
      <trkpt lat="49.17598" lon="6.79654">
        <ele>268.8</ele>
        <time>2013-04-03T08:13:56Z</time>
      </trkpt>
      <trkpt lat="49.17596" lon="6.79644">
        <ele>269.6</ele>
        <time>2013-04-03T08:14:01Z</time>
      </trkpt>
      <trkpt lat="49.17595" lon="6.79635">
        <ele>270.6</ele>
        <time>2013-04-03T08:14:06Z</time>
      </trkpt>
      <trkpt lat="49.17593" lon="6.79625">
        <ele>270</ele>
        <time>2013-04-03T08:14:11Z</time>
      </trkpt>
      <trkpt lat="49.17593" lon="6.79623">
        <ele>269.9</ele>
        <time>2013-04-03T08:14:12Z</time>
      </trkpt>
      <trkpt lat="49.1759" lon="6.79605">
        <ele>270.7</ele>
        <time>2013-04-03T08:14:21Z</time>
      </trkpt>
      <trkpt lat="49.17589" lon="6.79597">
        <ele>271.2</ele>
        <time>2013-04-03T08:14:26Z</time>
      </trkpt>
      <trkpt lat="49.17588" lon="6.79587">
        <ele>271.4</ele>
        <time>2013-04-03T08:14:31Z</time>
      </trkpt>
      <trkpt lat="49.17587" lon="6.79578">
        <ele>271.3</ele>
        <time>2013-04-03T08:14:36Z</time>
      </trkpt>
      <trkpt lat="49.17586" lon="6.79568">
        <ele>272.1</ele>
        <time>2013-04-03T08:14:41Z</time>
      </trkpt>
      <trkpt lat="49.17585" lon="6.79558">
        <ele>272.2</ele>
        <time>2013-04-03T08:14:46Z</time>
      </trkpt>
      <trkpt lat="49.17584" lon="6.79548">
        <ele>273.1</ele>
        <time>2013-04-03T08:14:51Z</time>
      </trkpt>
      <trkpt lat="49.17585" lon="6.7954">
        <ele>273.2</ele>
        <time>2013-04-03T08:14:56Z</time>
      </trkpt>
      <trkpt lat="49.17585" lon="6.79531">
        <ele>272.5</ele>
        <time>2013-04-03T08:15:01Z</time>
      </trkpt>
      <trkpt lat="49.17586" lon="6.79522">
        <ele>272.3</ele>
        <time>2013-04-03T08:15:06Z</time>
      </trkpt>
      <trkpt lat="49.17586" lon="6.79513">
        <ele>272.9</ele>
        <time>2013-04-03T08:15:11Z</time>
      </trkpt>
      <trkpt lat="49.17586" lon="6.79503">
        <ele>272.3</ele>
        <time>2013-04-03T08:15:16Z</time>
      </trkpt>
      <trkpt lat="49.17586" lon="6.79502">
        <ele>272.7</ele>
        <time>2013-04-03T08:15:17Z</time>
      </trkpt>
      <trkpt lat="49.17586" lon="6.79487">
        <ele>274.1</ele>
        <time>2013-04-03T08:15:26Z</time>
      </trkpt>
      <trkpt lat="49.17587" lon="6.7948">
        <ele>274.7</ele>
        <time>2013-04-03T08:15:31Z</time>
      </trkpt>
      <trkpt lat="49.17587" lon="6.79472">
        <ele>274.4</ele>
        <time>2013-04-03T08:15:36Z</time>
      </trkpt>
      <trkpt lat="49.17585" lon="6.79463">
        <ele>274.7</ele>
        <time>2013-04-03T08:15:41Z</time>
      </trkpt>
      <trkpt lat="49.17584" lon="6.79454">
        <ele>274.4</ele>
        <time>2013-04-03T08:15:46Z</time>
      </trkpt>
      <trkpt lat="49.17582" lon="6.79444">
        <ele>274.9</ele>
        <time>2013-04-03T08:15:51Z</time>
      </trkpt>
      <trkpt lat="49.17579" lon="6.79432">
        <ele>274.3</ele>
        <time>2013-04-03T08:15:56Z</time>
      </trkpt>
      <trkpt lat="49.17576" lon="6.79422">
        <ele>274.4</ele>
        <time>2013-04-03T08:16:01Z</time>
      </trkpt>
      <trkpt lat="49.17574" lon="6.7941">
        <ele>274.9</ele>
        <time>2013-04-03T08:16:06Z</time>
      </trkpt>
      <trkpt lat="49.17571" lon="6.79399">
        <ele>276</ele>
        <time>2013-04-03T08:16:11Z</time>
      </trkpt>
      <trkpt lat="49.17569" lon="6.79389">
        <ele>276.4</ele>
        <time>2013-04-03T08:16:16Z</time>
      </trkpt>
      <trkpt lat="49.17566" lon="6.79381">
        <ele>276.2</ele>
        <time>2013-04-03T08:16:21Z</time>
      </trkpt>
      <trkpt lat="49.17566" lon="6.79379">
        <ele>276.2</ele>
        <time>2013-04-03T08:16:22Z</time>
      </trkpt>
      <trkpt lat="49.17563" lon="6.79363">
        <ele>277.1</ele>
        <time>2013-04-03T08:16:31Z</time>
      </trkpt>
      <trkpt lat="49.17561" lon="6.79355">
        <ele>277.3</ele>
        <time>2013-04-03T08:16:36Z</time>
      </trkpt>
      <trkpt lat="49.17559" lon="6.79347">
        <ele>277.4</ele>
        <time>2013-04-03T08:16:41Z</time>
      </trkpt>
      <trkpt lat="49.17557" lon="6.79338">
        <ele>277</ele>
        <time>2013-04-03T08:16:46Z</time>
      </trkpt>
      <trkpt lat="49.17554" lon="6.79329">
        <ele>277.6</ele>
        <time>2013-04-03T08:16:51Z</time>
      </trkpt>
      <trkpt lat="49.17552" lon="6.7932">
        <ele>277.7</ele>
        <time>2013-04-03T08:16:56Z</time>
      </trkpt>
      <trkpt lat="49.17549" lon="6.79311">
        <ele>277.5</ele>
        <time>2013-04-03T08:17:01Z</time>
      </trkpt>
      <trkpt lat="49.17546" lon="6.79304">
        <ele>277.3</ele>
        <time>2013-04-03T08:17:06Z</time>
      </trkpt>
      <trkpt lat="49.17542" lon="6.79295">
        <ele>278.2</ele>
        <time>2013-04-03T08:17:11Z</time>
      </trkpt>
      <trkpt lat="49.17539" lon="6.79288">
        <ele>278.5</ele>
        <time>2013-04-03T08:17:16Z</time>
      </trkpt>
      <trkpt lat="49.17536" lon="6.79281">
        <ele>279.2</ele>
        <time>2013-04-03T08:17:21Z</time>
      </trkpt>
      <trkpt lat="49.17533" lon="6.79276">
        <ele>278.6</ele>
        <time>2013-04-03T08:17:26Z</time>
      </trkpt>
      <trkpt lat="49.17532" lon="6.79274">
        <ele>278.7</ele>
        <time>2013-04-03T08:17:27Z</time>
      </trkpt>
      <trkpt lat="49.17527" lon="6.79261">
        <ele>279.2</ele>
        <time>2013-04-03T08:17:36Z</time>
      </trkpt>
      <trkpt lat="49.17525" lon="6.79253">
        <ele>279.9</ele>
        <time>2013-04-03T08:17:41Z</time>
      </trkpt>
      <trkpt lat="49.17522" lon="6.79246">
        <ele>280.5</ele>
        <time>2013-04-03T08:17:46Z</time>
      </trkpt>
      <trkpt lat="49.17518" lon="6.7924">
        <ele>280</ele>
        <time>2013-04-03T08:17:51Z</time>
      </trkpt>
      <trkpt lat="49.17512" lon="6.79236">
        <ele>279.9</ele>
        <time>2013-04-03T08:17:56Z</time>
      </trkpt>
      <trkpt lat="49.17507" lon="6.79235">
        <ele>279.6</ele>
        <time>2013-04-03T08:18:01Z</time>
      </trkpt>
      <trkpt lat="49.17503" lon="6.79235">
        <ele>279.7</ele>
        <time>2013-04-03T08:18:06Z</time>
      </trkpt>
      <trkpt lat="49.17499" lon="6.79236">
        <ele>280.4</ele>
        <time>2013-04-03T08:18:11Z</time>
      </trkpt>
      <trkpt lat="49.17495" lon="6.79237">
        <ele>279.8</ele>
        <time>2013-04-03T08:18:16Z</time>
      </trkpt>
      <trkpt lat="49.17491" lon="6.79239">
        <ele>279.5</ele>
        <time>2013-04-03T08:18:21Z</time>
      </trkpt>
      <trkpt lat="49.17487" lon="6.79241">
        <ele>279.2</ele>
        <time>2013-04-03T08:18:26Z</time>
      </trkpt>
      <trkpt lat="49.17482" lon="6.79243">
        <ele>280.3</ele>
        <time>2013-04-03T08:18:31Z</time>
      </trkpt>
      <trkpt lat="49.17482" lon="6.79243">
        <ele>280.4</ele>
        <time>2013-04-03T08:18:32Z</time>
      </trkpt>
      <trkpt lat="49.17474" lon="6.79253">
        <ele>281.1</ele>
        <time>2013-04-03T08:18:41Z</time>
      </trkpt>
      <trkpt lat="49.1747" lon="6.79259">
        <ele>282</ele>
        <time>2013-04-03T08:18:46Z</time>
      </trkpt>
      <trkpt lat="49.17468" lon="6.79266">
        <ele>281.7</ele>
        <time>2013-04-03T08:18:51Z</time>
      </trkpt>
      <trkpt lat="49.17465" lon="6.79273">
        <ele>282.1</ele>
        <time>2013-04-03T08:18:56Z</time>
      </trkpt>
      <trkpt lat="49.17462" lon="6.79281">
        <ele>282.1</ele>
        <time>2013-04-03T08:19:01Z</time>
      </trkpt>
      <trkpt lat="49.1746" lon="6.79289">
        <ele>281.6</ele>
        <time>2013-04-03T08:19:06Z</time>
      </trkpt>
      <trkpt lat="49.17458" lon="6.79298">
        <ele>281.8</ele>
        <time>2013-04-03T08:19:11Z</time>
      </trkpt>
      <trkpt lat="49.17457" lon="6.79306">
        <ele>282.4</ele>
        <time>2013-04-03T08:19:16Z</time>
      </trkpt>
      <trkpt lat="49.17456" lon="6.79315">
        <ele>281.7</ele>
        <time>2013-04-03T08:19:21Z</time>
      </trkpt>
      <trkpt lat="49.17456" lon="6.79323">
        <ele>281.4</ele>
        <time>2013-04-03T08:19:26Z</time>
      </trkpt>
      <trkpt lat="49.17456" lon="6.79332">
        <ele>282.5</ele>
        <time>2013-04-03T08:19:31Z</time>
      </trkpt>
      <trkpt lat="49.17456" lon="6.79342">
        <ele>282.7</ele>
        <time>2013-04-03T08:19:36Z</time>
      </trkpt>
      <trkpt lat="49.17456" lon="6.79344">
        <ele>282.8</ele>
        <time>2013-04-03T08:19:37Z</time>
      </trkpt>
      <trkpt lat="49.17455" lon="6.79362">
        <ele>282.7</ele>
        <time>2013-04-03T08:19:46Z</time>
      </trkpt>
      <trkpt lat="49.17454" lon="6.79371">
        <ele>283.6</ele>
        <time>2013-04-03T08:19:51Z</time>
      </trkpt>
      <trkpt lat="49.17453" lon="6.7938">
        <ele>283.7</ele>
        <time>2013-04-03T08:19:56Z</time>
      </trkpt>
      <trkpt lat="49.17453" lon="6.79391">
        <ele>284.6</ele>
        <time>2013-04-03T08:20:01Z</time>
      </trkpt>
      <trkpt lat="49.17452" lon="6.79401">
        <ele>285.4</ele>
        <time>2013-04-03T08:20:06Z</time>
      </trkpt>
      <trkpt lat="49.1745" lon="6.79411">
        <ele>286</ele>
        <time>2013-04-03T08:20:11Z</time>
      </trkpt>
      <trkpt lat="49.17448" lon="6.79422">
        <ele>285.9</ele>
        <time>2013-04-03T08:20:16Z</time>
      </trkpt>
      <trkpt lat="49.17448" lon="6.79433">
        <ele>285.6</ele>
        <time>2013-04-03T08:20:21Z</time>
      </trkpt>
      <trkpt lat="49.17445" lon="6.79443">
        <ele>285.5</ele>
        <time>2013-04-03T08:20:26Z</time>
      </trkpt>
      <trkpt lat="49.17442" lon="6.79453">
        <ele>286.3</ele>
        <time>2013-04-03T08:20:31Z</time>
      </trkpt>
      <trkpt lat="49.17439" lon="6.79462">
        <ele>286.4</ele>
        <time>2013-04-03T08:20:36Z</time>
      </trkpt>
      <trkpt lat="49.17436" lon="6.7947">
        <ele>287.8</ele>
        <time>2013-04-03T08:20:41Z</time>
      </trkpt>
      <trkpt lat="49.17435" lon="6.79471">
        <ele>287.7</ele>
        <time>2013-04-03T08:20:42Z</time>
      </trkpt>
      <trkpt lat="49.17428" lon="6.79484">
        <ele>288.8</ele>
        <time>2013-04-03T08:20:51Z</time>
      </trkpt>
      <trkpt lat="49.17424" lon="6.7949">
        <ele>288.9</ele>
        <time>2013-04-03T08:20:56Z</time>
      </trkpt>
      <trkpt lat="49.17419" lon="6.79495">
        <ele>288.8</ele>
        <time>2013-04-03T08:21:01Z</time>
      </trkpt>
      <trkpt lat="49.17414" lon="6.79499">
        <ele>289.6</ele>
        <time>2013-04-03T08:21:06Z</time>
      </trkpt>
      <trkpt lat="49.17409" lon="6.795">
        <ele>289.6</ele>
        <time>2013-04-03T08:21:11Z</time>
      </trkpt>
      <trkpt lat="49.17404" lon="6.79499">
        <ele>289.8</ele>
        <time>2013-04-03T08:21:16Z</time>
      </trkpt>
      <trkpt lat="49.174" lon="6.79495">
        <ele>289</ele>
        <time>2013-04-03T08:21:21Z</time>
      </trkpt>
      <trkpt lat="49.17395" lon="6.79491">
        <ele>289.5</ele>
        <time>2013-04-03T08:21:26Z</time>
      </trkpt>
      <trkpt lat="49.17391" lon="6.79485">
        <ele>289.7</ele>
        <time>2013-04-03T08:21:31Z</time>
      </trkpt>
      <trkpt lat="49.17387" lon="6.79479">
        <ele>289.3</ele>
        <time>2013-04-03T08:21:36Z</time>
      </trkpt>
      <trkpt lat="49.17383" lon="6.79472">
        <ele>289.7</ele>
        <time>2013-04-03T08:21:41Z</time>
      </trkpt>
      <trkpt lat="49.1738" lon="6.79467">
        <ele>289.4</ele>
        <time>2013-04-03T08:21:46Z</time>
      </trkpt>
      <trkpt lat="49.1738" lon="6.79466">
        <ele>289.5</ele>
        <time>2013-04-03T08:21:47Z</time>
      </trkpt>
      <trkpt lat="49.17373" lon="6.79465">
        <ele>288.9</ele>
        <time>2013-04-03T08:21:56Z</time>
      </trkpt>
      <trkpt lat="49.17368" lon="6.79468">
        <ele>289</ele>
        <time>2013-04-03T08:22:01Z</time>
      </trkpt>
      <trkpt lat="49.17366" lon="6.7947">
        <ele>288.7</ele>
        <time>2013-04-03T08:22:06Z</time>
      </trkpt>
      <trkpt lat="49.17365" lon="6.79472">
        <ele>287.5</ele>
        <time>2013-04-03T08:22:11Z</time>
      </trkpt>
      <trkpt lat="49.17362" lon="6.79474">
        <ele>287.1</ele>
        <time>2013-04-03T08:22:16Z</time>
      </trkpt>
      <trkpt lat="49.17359" lon="6.79476">
        <ele>287.5</ele>
        <time>2013-04-03T08:22:21Z</time>
      </trkpt>
      <trkpt lat="49.17357" lon="6.79479">
        <ele>286.2</ele>
        <time>2013-04-03T08:22:26Z</time>
      </trkpt>
      <trkpt lat="49.17355" lon="6.79482">
        <ele>285.2</ele>
        <time>2013-04-03T08:22:31Z</time>
      </trkpt>
      <trkpt lat="49.17352" lon="6.79485">
        <ele>284.4</ele>
        <time>2013-04-03T08:22:36Z</time>
      </trkpt>
      <trkpt lat="49.17349" lon="6.79489">
        <ele>283.1</ele>
        <time>2013-04-03T08:22:41Z</time>
      </trkpt>
      <trkpt lat="49.17346" lon="6.79492">
        <ele>282.1</ele>
        <time>2013-04-03T08:22:46Z</time>
      </trkpt>
      <trkpt lat="49.17343" lon="6.79494">
        <ele>281.4</ele>
        <time>2013-04-03T08:22:51Z</time>
      </trkpt>
      <trkpt lat="49.17342" lon="6.79494">
        <ele>281.4</ele>
        <time>2013-04-03T08:22:52Z</time>
      </trkpt>
      <trkpt lat="49.17337" lon="6.79502">
        <ele>278.8</ele>
        <time>2013-04-03T08:23:01Z</time>
      </trkpt>
      <trkpt lat="49.17335" lon="6.79506">
        <ele>277.9</ele>
        <time>2013-04-03T08:23:06Z</time>
      </trkpt>
      <trkpt lat="49.17333" lon="6.7951">
        <ele>276.7</ele>
        <time>2013-04-03T08:23:11Z</time>
      </trkpt>
      <trkpt lat="49.17331" lon="6.79516">
        <ele>276.1</ele>
        <time>2013-04-03T08:23:16Z</time>
      </trkpt>
      <trkpt lat="49.1733" lon="6.79522">
        <ele>274.8</ele>
        <time>2013-04-03T08:23:21Z</time>
      </trkpt>
      <trkpt lat="49.17331" lon="6.79529">
        <ele>273.6</ele>
        <time>2013-04-03T08:23:26Z</time>
      </trkpt>
      <trkpt lat="49.17332" lon="6.79535">
        <ele>272.2</ele>
        <time>2013-04-03T08:23:31Z</time>
      </trkpt>
      <trkpt lat="49.17332" lon="6.79541">
        <ele>271.6</ele>
        <time>2013-04-03T08:23:36Z</time>
      </trkpt>
      <trkpt lat="49.17334" lon="6.79547">
        <ele>271</ele>
        <time>2013-04-03T08:23:41Z</time>
      </trkpt>
      <trkpt lat="49.17335" lon="6.79554">
        <ele>270.8</ele>
        <time>2013-04-03T08:23:46Z</time>
      </trkpt>
      <trkpt lat="49.17337" lon="6.79562">
        <ele>270.7</ele>
        <time>2013-04-03T08:23:51Z</time>
      </trkpt>
      <trkpt lat="49.17339" lon="6.7957">
        <ele>270.2</ele>
        <time>2013-04-03T08:23:56Z</time>
      </trkpt>
      <trkpt lat="49.17339" lon="6.79572">
        <ele>269.9</ele>
        <time>2013-04-03T08:23:57Z</time>
      </trkpt>
      <trkpt lat="49.17341" lon="6.79589">
        <ele>268.8</ele>
        <time>2013-04-03T08:24:06Z</time>
      </trkpt>
      <trkpt lat="49.17343" lon="6.79599">
        <ele>267.6</ele>
        <time>2013-04-03T08:24:11Z</time>
      </trkpt>
      <trkpt lat="49.17346" lon="6.79609">
        <ele>266.9</ele>
        <time>2013-04-03T08:24:16Z</time>
      </trkpt>
      <trkpt lat="49.17349" lon="6.79617">
        <ele>266.5</ele>
        <time>2013-04-03T08:24:21Z</time>
      </trkpt>
      <trkpt lat="49.17351" lon="6.79625">
        <ele>266.8</ele>
        <time>2013-04-03T08:24:26Z</time>
      </trkpt>
      <trkpt lat="49.17354" lon="6.79634">
        <ele>265.5</ele>
        <time>2013-04-03T08:24:31Z</time>
      </trkpt>
      <trkpt lat="49.17356" lon="6.79643">
        <ele>265.5</ele>
        <time>2013-04-03T08:24:36Z</time>
      </trkpt>
      <trkpt lat="49.17358" lon="6.79652">
        <ele>265</ele>
        <time>2013-04-03T08:24:41Z</time>
      </trkpt>
      <trkpt lat="49.17362" lon="6.79659">
        <ele>264.8</ele>
        <time>2013-04-03T08:24:46Z</time>
      </trkpt>
      <trkpt lat="49.17366" lon="6.79667">
        <ele>264.6</ele>
        <time>2013-04-03T08:24:51Z</time>
      </trkpt>
      <trkpt lat="49.17369" lon="6.79676">
        <ele>263.9</ele>
        <time>2013-04-03T08:24:56Z</time>
      </trkpt>
      <trkpt lat="49.17371" lon="6.79686">
        <ele>263.9</ele>
        <time>2013-04-03T08:25:01Z</time>
      </trkpt>
      <trkpt lat="49.17372" lon="6.79688">
        <ele>263.8</ele>
        <time>2013-04-03T08:25:02Z</time>
      </trkpt>
      <trkpt lat="49.17377" lon="6.79705">
        <ele>264.1</ele>
        <time>2013-04-03T08:25:11Z</time>
      </trkpt>
      <trkpt lat="49.17381" lon="6.79716">
        <ele>263.8</ele>
        <time>2013-04-03T08:25:16Z</time>
      </trkpt>
      <trkpt lat="49.17384" lon="6.79724">
        <ele>263.6</ele>
        <time>2013-04-03T08:25:21Z</time>
      </trkpt>
      <trkpt lat="49.17386" lon="6.79734">
        <ele>263.4</ele>
        <time>2013-04-03T08:25:26Z</time>
      </trkpt>
      <trkpt lat="49.1739" lon="6.79743">
        <ele>262.8</ele>
        <time>2013-04-03T08:25:31Z</time>
      </trkpt>
      <trkpt lat="49.17392" lon="6.79753">
        <ele>261.7</ele>
        <time>2013-04-03T08:25:36Z</time>
      </trkpt>
      <trkpt lat="49.17396" lon="6.79765">
        <ele>261.4</ele>
        <time>2013-04-03T08:25:41Z</time>
      </trkpt>
      <trkpt lat="49.17399" lon="6.79776">
        <ele>260.6</ele>
        <time>2013-04-03T08:25:46Z</time>
      </trkpt>
      <trkpt lat="49.17402" lon="6.79785">
        <ele>261</ele>
        <time>2013-04-03T08:25:51Z</time>
      </trkpt>
      <trkpt lat="49.17404" lon="6.79795">
        <ele>260.6</ele>
        <time>2013-04-03T08:25:56Z</time>
      </trkpt>
      <trkpt lat="49.17405" lon="6.79806">
        <ele>259.6</ele>
        <time>2013-04-03T08:26:01Z</time>
      </trkpt>
      <trkpt lat="49.17409" lon="6.79818">
        <ele>259.3</ele>
        <time>2013-04-03T08:26:06Z</time>
      </trkpt>
      <trkpt lat="49.17409" lon="6.7982">
        <ele>259.5</ele>
        <time>2013-04-03T08:26:07Z</time>
      </trkpt>
      <trkpt lat="49.17412" lon="6.79839">
        <ele>258.8</ele>
        <time>2013-04-03T08:26:16Z</time>
      </trkpt>
      <trkpt lat="49.17415" lon="6.79849">
        <ele>259.1</ele>
        <time>2013-04-03T08:26:21Z</time>
      </trkpt>
      <trkpt lat="49.17416" lon="6.79857">
        <ele>259.9</ele>
        <time>2013-04-03T08:26:26Z</time>
      </trkpt>
      <trkpt lat="49.17418" lon="6.79866">
        <ele>259.7</ele>
        <time>2013-04-03T08:26:31Z</time>
      </trkpt>
      <trkpt lat="49.17419" lon="6.79875">
        <ele>259.4</ele>
        <time>2013-04-03T08:26:36Z</time>
      </trkpt>
      <trkpt lat="49.17421" lon="6.79885">
        <ele>259.9</ele>
        <time>2013-04-03T08:26:41Z</time>
      </trkpt>
      <trkpt lat="49.17422" lon="6.79895">
        <ele>260.3</ele>
        <time>2013-04-03T08:26:46Z</time>
      </trkpt>
      <trkpt lat="49.17421" lon="6.79905">
        <ele>260.4</ele>
        <time>2013-04-03T08:26:51Z</time>
      </trkpt>
      <trkpt lat="49.17421" lon="6.79912">
        <ele>259.9</ele>
        <time>2013-04-03T08:26:56Z</time>
      </trkpt>
      <trkpt lat="49.17419" lon="6.79919">
        <ele>259.8</ele>
        <time>2013-04-03T08:27:01Z</time>
      </trkpt>
      <trkpt lat="49.17417" lon="6.79926">
        <ele>259.6</ele>
        <time>2013-04-03T08:27:06Z</time>
      </trkpt>
      <trkpt lat="49.17414" lon="6.79933">
        <ele>259.5</ele>
        <time>2013-04-03T08:27:11Z</time>
      </trkpt>
      <trkpt lat="49.17413" lon="6.79934">
        <ele>259.3</ele>
        <time>2013-04-03T08:27:12Z</time>
      </trkpt>
      <trkpt lat="49.17405" lon="6.79945">
        <ele>258.5</ele>
        <time>2013-04-03T08:27:21Z</time>
      </trkpt>
      <trkpt lat="49.17401" lon="6.79949">
        <ele>257.2</ele>
        <time>2013-04-03T08:27:26Z</time>
      </trkpt>
      <trkpt lat="49.17397" lon="6.79953">
        <ele>256.5</ele>
        <time>2013-04-03T08:27:31Z</time>
      </trkpt>
      <trkpt lat="49.17393" lon="6.79957">
        <ele>256.5</ele>
        <time>2013-04-03T08:27:36Z</time>
      </trkpt>
      <trkpt lat="49.1739" lon="6.79962">
        <ele>255.9</ele>
        <time>2013-04-03T08:27:41Z</time>
      </trkpt>
      <trkpt lat="49.17386" lon="6.79967">
        <ele>256</ele>
        <time>2013-04-03T08:27:46Z</time>
      </trkpt>
      <trkpt lat="49.17382" lon="6.79972">
        <ele>255.4</ele>
        <time>2013-04-03T08:27:51Z</time>
      </trkpt>
      <trkpt lat="49.17378" lon="6.79977">
        <ele>255</ele>
        <time>2013-04-03T08:27:56Z</time>
      </trkpt>
      <trkpt lat="49.17374" lon="6.79983">
        <ele>253.9</ele>
        <time>2013-04-03T08:28:01Z</time>
      </trkpt>
      <trkpt lat="49.17369" lon="6.7999">
        <ele>253.4</ele>
        <time>2013-04-03T08:28:06Z</time>
      </trkpt>
      <trkpt lat="49.17366" lon="6.79995">
        <ele>252</ele>
        <time>2013-04-03T08:28:11Z</time>
      </trkpt>
      <trkpt lat="49.17361" lon="6.80002">
        <ele>252.5</ele>
        <time>2013-04-03T08:28:16Z</time>
      </trkpt>
      <trkpt lat="49.17361" lon="6.80003">
        <ele>252.6</ele>
        <time>2013-04-03T08:28:17Z</time>
      </trkpt>
      <trkpt lat="49.17354" lon="6.80015">
        <ele>250.9</ele>
        <time>2013-04-03T08:28:26Z</time>
      </trkpt>
      <trkpt lat="49.17351" lon="6.80022">
        <ele>250.9</ele>
        <time>2013-04-03T08:28:31Z</time>
      </trkpt>
      <trkpt lat="49.17348" lon="6.80029">
        <ele>250.5</ele>
        <time>2013-04-03T08:28:36Z</time>
      </trkpt>
      <trkpt lat="49.17344" lon="6.80037">
        <ele>249.6</ele>
        <time>2013-04-03T08:28:41Z</time>
      </trkpt>
      <trkpt lat="49.17339" lon="6.80044">
        <ele>249.3</ele>
        <time>2013-04-03T08:28:46Z</time>
      </trkpt>
      <trkpt lat="49.17335" lon="6.80051">
        <ele>249.5</ele>
        <time>2013-04-03T08:28:51Z</time>
      </trkpt>
      <trkpt lat="49.17332" lon="6.80059">
        <ele>249.3</ele>
        <time>2013-04-03T08:28:56Z</time>
      </trkpt>
      <trkpt lat="49.17328" lon="6.80068">
        <ele>248.8</ele>
        <time>2013-04-03T08:29:01Z</time>
      </trkpt>
      <trkpt lat="49.17324" lon="6.80076">
        <ele>248.4</ele>
        <time>2013-04-03T08:29:06Z</time>
      </trkpt>
      <trkpt lat="49.17322" lon="6.80085">
        <ele>249.4</ele>
        <time>2013-04-03T08:29:11Z</time>
      </trkpt>
      <trkpt lat="49.17321" lon="6.80095">
        <ele>248.6</ele>
        <time>2013-04-03T08:29:16Z</time>
      </trkpt>
      <trkpt lat="49.1732" lon="6.80105">
        <ele>249.4</ele>
        <time>2013-04-03T08:29:21Z</time>
      </trkpt>
      <trkpt lat="49.17319" lon="6.80106">
        <ele>249.4</ele>
        <time>2013-04-03T08:29:22Z</time>
      </trkpt>
      <trkpt lat="49.17319" lon="6.80122">
        <ele>248</ele>
        <time>2013-04-03T08:29:31Z</time>
      </trkpt>
      <trkpt lat="49.17317" lon="6.8013">
        <ele>248.1</ele>
        <time>2013-04-03T08:29:36Z</time>
      </trkpt>
      <trkpt lat="49.17317" lon="6.80139">
        <ele>247.4</ele>
        <time>2013-04-03T08:29:41Z</time>
      </trkpt>
      <trkpt lat="49.17317" lon="6.8015">
        <ele>247.4</ele>
        <time>2013-04-03T08:29:46Z</time>
      </trkpt>
      <trkpt lat="49.17319" lon="6.8016">
        <ele>247.3</ele>
        <time>2013-04-03T08:29:51Z</time>
      </trkpt>
      <trkpt lat="49.17319" lon="6.8017">
        <ele>247.5</ele>
        <time>2013-04-03T08:29:56Z</time>
      </trkpt>
      <trkpt lat="49.1732" lon="6.80179">
        <ele>246.8</ele>
        <time>2013-04-03T08:30:01Z</time>
      </trkpt>
      <trkpt lat="49.17319" lon="6.80189">
        <ele>246.7</ele>
        <time>2013-04-03T08:30:06Z</time>
      </trkpt>
      <trkpt lat="49.1732" lon="6.80199">
        <ele>247.4</ele>
        <time>2013-04-03T08:30:11Z</time>
      </trkpt>
      <trkpt lat="49.17319" lon="6.8021">
        <ele>247.6</ele>
        <time>2013-04-03T08:30:16Z</time>
      </trkpt>
      <trkpt lat="49.17319" lon="6.80222">
        <ele>246.8</ele>
        <time>2013-04-03T08:30:21Z</time>
      </trkpt>
      <trkpt lat="49.17318" lon="6.80232">
        <ele>246.7</ele>
        <time>2013-04-03T08:30:26Z</time>
      </trkpt>
      <trkpt lat="49.17318" lon="6.80234">
        <ele>246.6</ele>
        <time>2013-04-03T08:30:27Z</time>
      </trkpt>
      <trkpt lat="49.17317" lon="6.80251">
        <ele>246.7</ele>
        <time>2013-04-03T08:30:36Z</time>
      </trkpt>
      <trkpt lat="49.17316" lon="6.8026">
        <ele>245.6</ele>
        <time>2013-04-03T08:30:41Z</time>
      </trkpt>
      <trkpt lat="49.17315" lon="6.80271">
        <ele>246</ele>
        <time>2013-04-03T08:30:46Z</time>
      </trkpt>
      <trkpt lat="49.17314" lon="6.8028">
        <ele>245.9</ele>
        <time>2013-04-03T08:30:51Z</time>
      </trkpt>
      <trkpt lat="49.17313" lon="6.8029">
        <ele>245.8</ele>
        <time>2013-04-03T08:30:56Z</time>
      </trkpt>
      <trkpt lat="49.17315" lon="6.803">
        <ele>245.5</ele>
        <time>2013-04-03T08:31:01Z</time>
      </trkpt>
      <trkpt lat="49.17315" lon="6.80309">
        <ele>245.1</ele>
        <time>2013-04-03T08:31:06Z</time>
      </trkpt>
      <trkpt lat="49.17315" lon="6.80319">
        <ele>245.3</ele>
        <time>2013-04-03T08:31:11Z</time>
      </trkpt>
      <trkpt lat="49.17315" lon="6.80329">
        <ele>245.3</ele>
        <time>2013-04-03T08:31:16Z</time>
      </trkpt>
      <trkpt lat="49.17314" lon="6.80339">
        <ele>245.8</ele>
        <time>2013-04-03T08:31:21Z</time>
      </trkpt>
      <trkpt lat="49.17313" lon="6.80348">
        <ele>245</ele>
        <time>2013-04-03T08:31:26Z</time>
      </trkpt>
      <trkpt lat="49.17313" lon="6.80358">
        <ele>244.9</ele>
        <time>2013-04-03T08:31:31Z</time>
      </trkpt>
      <trkpt lat="49.17313" lon="6.8036">
        <ele>244.6</ele>
        <time>2013-04-03T08:31:32Z</time>
      </trkpt>
      <trkpt lat="49.17313" lon="6.80377">
        <ele>243.7</ele>
        <time>2013-04-03T08:31:41Z</time>
      </trkpt>
      <trkpt lat="49.17312" lon="6.80386">
        <ele>243.8</ele>
        <time>2013-04-03T08:31:46Z</time>
      </trkpt>
      <trkpt lat="49.17312" lon="6.80395">
        <ele>243.7</ele>
        <time>2013-04-03T08:31:51Z</time>
      </trkpt>
      <trkpt lat="49.17313" lon="6.80406">
        <ele>243.8</ele>
        <time>2013-04-03T08:31:56Z</time>
      </trkpt>
      <trkpt lat="49.17315" lon="6.80416">
        <ele>243.4</ele>
        <time>2013-04-03T08:32:01Z</time>
      </trkpt>
      <trkpt lat="49.17317" lon="6.80426">
        <ele>242.7</ele>
        <time>2013-04-03T08:32:06Z</time>
      </trkpt>
      <trkpt lat="49.17319" lon="6.80434">
        <ele>242.5</ele>
        <time>2013-04-03T08:32:11Z</time>
      </trkpt>
      <trkpt lat="49.17322" lon="6.80443">
        <ele>242.4</ele>
        <time>2013-04-03T08:32:16Z</time>
      </trkpt>
      <trkpt lat="49.17324" lon="6.80453">
        <ele>242.2</ele>
        <time>2013-04-03T08:32:21Z</time>
      </trkpt>
      <trkpt lat="49.17327" lon="6.80463">
        <ele>241.3</ele>
        <time>2013-04-03T08:32:26Z</time>
      </trkpt>
      <trkpt lat="49.1733" lon="6.80472">
        <ele>241.5</ele>
        <time>2013-04-03T08:32:31Z</time>
      </trkpt>
      <trkpt lat="49.17333" lon="6.80481">
        <ele>240.3</ele>
        <time>2013-04-03T08:32:36Z</time>
      </trkpt>
      <trkpt lat="49.17333" lon="6.80483">
        <ele>240</ele>
        <time>2013-04-03T08:32:37Z</time>
      </trkpt>
      <trkpt lat="49.17338" lon="6.80499">
        <ele>239.1</ele>
        <time>2013-04-03T08:32:46Z</time>
      </trkpt>
      <trkpt lat="49.17341" lon="6.80508">
        <ele>239.5</ele>
        <time>2013-04-03T08:32:51Z</time>
      </trkpt>
      <trkpt lat="49.17345" lon="6.80515">
        <ele>239.1</ele>
        <time>2013-04-03T08:32:56Z</time>
      </trkpt>
      <trkpt lat="49.17348" lon="6.80523">
        <ele>238.9</ele>
        <time>2013-04-03T08:33:01Z</time>
      </trkpt>
      <trkpt lat="49.17353" lon="6.80532">
        <ele>239.2</ele>
        <time>2013-04-03T08:33:06Z</time>
      </trkpt>
      <trkpt lat="49.17358" lon="6.80541">
        <ele>238.4</ele>
        <time>2013-04-03T08:33:11Z</time>
      </trkpt>
      <trkpt lat="49.17362" lon="6.80549">
        <ele>239.2</ele>
        <time>2013-04-03T08:33:16Z</time>
      </trkpt>
      <trkpt lat="49.17367" lon="6.80557">
        <ele>238.8</ele>
        <time>2013-04-03T08:33:21Z</time>
      </trkpt>
      <trkpt lat="49.17369" lon="6.80563">
        <ele>238.7</ele>
        <time>2013-04-03T08:33:26Z</time>
      </trkpt>
      <trkpt lat="49.17373" lon="6.8057">
        <ele>237.7</ele>
        <time>2013-04-03T08:33:31Z</time>
      </trkpt>
      <trkpt lat="49.17377" lon="6.80577">
        <ele>237.3</ele>
        <time>2013-04-03T08:33:36Z</time>
      </trkpt>
      <trkpt lat="49.1738" lon="6.80586">
        <ele>236.8</ele>
        <time>2013-04-03T08:33:41Z</time>
      </trkpt>
      <trkpt lat="49.1738" lon="6.80588">
        <ele>237.1</ele>
        <time>2013-04-03T08:33:42Z</time>
      </trkpt>
      <trkpt lat="49.17384" lon="6.80601">
        <ele>236.8</ele>
        <time>2013-04-03T08:33:51Z</time>
      </trkpt>
      <trkpt lat="49.17385" lon="6.80608">
        <ele>236.5</ele>
        <time>2013-04-03T08:33:56Z</time>
      </trkpt>
      <trkpt lat="49.17387" lon="6.80617">
        <ele>236.3</ele>
        <time>2013-04-03T08:34:01Z</time>
      </trkpt>
      <trkpt lat="49.17389" lon="6.80626">
        <ele>236.7</ele>
        <time>2013-04-03T08:34:06Z</time>
      </trkpt>
      <trkpt lat="49.1739" lon="6.80635">
        <ele>236.2</ele>
        <time>2013-04-03T08:34:11Z</time>
      </trkpt>
      <trkpt lat="49.17392" lon="6.80643">
        <ele>235.9</ele>
        <time>2013-04-03T08:34:16Z</time>
      </trkpt>
      <trkpt lat="49.17395" lon="6.80651">
        <ele>235.9</ele>
        <time>2013-04-03T08:34:21Z</time>
      </trkpt>
      <trkpt lat="49.17397" lon="6.80661">
        <ele>235.8</ele>
        <time>2013-04-03T08:34:26Z</time>
      </trkpt>
      <trkpt lat="49.174" lon="6.80671">
        <ele>235.4</ele>
        <time>2013-04-03T08:34:31Z</time>
      </trkpt>
      <trkpt lat="49.17402" lon="6.80682">
        <ele>235.1</ele>
        <time>2013-04-03T08:34:36Z</time>
      </trkpt>
      <trkpt lat="49.17405" lon="6.80693">
        <ele>234.4</ele>
        <time>2013-04-03T08:34:41Z</time>
      </trkpt>
      <trkpt lat="49.17406" lon="6.80702">
        <ele>235.1</ele>
        <time>2013-04-03T08:34:46Z</time>
      </trkpt>
      <trkpt lat="49.17407" lon="6.80704">
        <ele>235.3</ele>
        <time>2013-04-03T08:34:47Z</time>
      </trkpt>
      <trkpt lat="49.17409" lon="6.80719">
        <ele>233.9</ele>
        <time>2013-04-03T08:34:56Z</time>
      </trkpt>
      <trkpt lat="49.17411" lon="6.80728">
        <ele>234</ele>
        <time>2013-04-03T08:35:01Z</time>
      </trkpt>
      <trkpt lat="49.17414" lon="6.80736">
        <ele>233.2</ele>
        <time>2013-04-03T08:35:06Z</time>
      </trkpt>
      <trkpt lat="49.17417" lon="6.80746">
        <ele>233.3</ele>
        <time>2013-04-03T08:35:11Z</time>
      </trkpt>
      <trkpt lat="49.17419" lon="6.80755">
        <ele>232.9</ele>
        <time>2013-04-03T08:35:16Z</time>
      </trkpt>
      <trkpt lat="49.1742" lon="6.80765">
        <ele>232.8</ele>
        <time>2013-04-03T08:35:21Z</time>
      </trkpt>
      <trkpt lat="49.17421" lon="6.80776">
        <ele>233.1</ele>
        <time>2013-04-03T08:35:26Z</time>
      </trkpt>
      <trkpt lat="49.17421" lon="6.80787">
        <ele>233.3</ele>
        <time>2013-04-03T08:35:31Z</time>
      </trkpt>
      <trkpt lat="49.1742" lon="6.80796">
        <ele>233.2</ele>
        <time>2013-04-03T08:35:36Z</time>
      </trkpt>
      <trkpt lat="49.1742" lon="6.80807">
        <ele>232.1</ele>
        <time>2013-04-03T08:35:41Z</time>
      </trkpt>
      <trkpt lat="49.1742" lon="6.80818">
        <ele>232.6</ele>
        <time>2013-04-03T08:35:46Z</time>
      </trkpt>
      <trkpt lat="49.17418" lon="6.80828">
        <ele>232.9</ele>
        <time>2013-04-03T08:35:51Z</time>
      </trkpt>
      <trkpt lat="49.17418" lon="6.8083">
        <ele>232.6</ele>
        <time>2013-04-03T08:35:52Z</time>
      </trkpt>
      <trkpt lat="49.17414" lon="6.80846">
        <ele>232.8</ele>
        <time>2013-04-03T08:36:01Z</time>
      </trkpt>
      <trkpt lat="49.17411" lon="6.80854">
        <ele>233.1</ele>
        <time>2013-04-03T08:36:06Z</time>
      </trkpt>
      <trkpt lat="49.17406" lon="6.80862">
        <ele>233.1</ele>
        <time>2013-04-03T08:36:11Z</time>
      </trkpt>
      <trkpt lat="49.17401" lon="6.80869">
        <ele>233.4</ele>
        <time>2013-04-03T08:36:16Z</time>
      </trkpt>
      <trkpt lat="49.17397" lon="6.80876">
        <ele>233.3</ele>
        <time>2013-04-03T08:36:21Z</time>
      </trkpt>
      <trkpt lat="49.17394" lon="6.80882">
        <ele>233.6</ele>
        <time>2013-04-03T08:36:26Z</time>
      </trkpt>
      <trkpt lat="49.17391" lon="6.80889">
        <ele>232.9</ele>
        <time>2013-04-03T08:36:31Z</time>
      </trkpt>
      <trkpt lat="49.1739" lon="6.80897">
        <ele>232.8</ele>
        <time>2013-04-03T08:36:36Z</time>
      </trkpt>
      <trkpt lat="49.17389" lon="6.80906">
        <ele>232.1</ele>
        <time>2013-04-03T08:36:41Z</time>
      </trkpt>
      <trkpt lat="49.17389" lon="6.80916">
        <ele>231.4</ele>
        <time>2013-04-03T08:36:46Z</time>
      </trkpt>
      <trkpt lat="49.17391" lon="6.80925">
        <ele>231.6</ele>
        <time>2013-04-03T08:36:51Z</time>
      </trkpt>
      <trkpt lat="49.17391" lon="6.80935">
        <ele>230.7</ele>
        <time>2013-04-03T08:36:56Z</time>
      </trkpt>
      <trkpt lat="49.17391" lon="6.80936">
        <ele>231.3</ele>
        <time>2013-04-03T08:36:57Z</time>
      </trkpt>
      <trkpt lat="49.17391" lon="6.80951">
        <ele>230.6</ele>
        <time>2013-04-03T08:37:06Z</time>
      </trkpt>
      <trkpt lat="49.1739" lon="6.80959">
        <ele>230</ele>
        <time>2013-04-03T08:37:11Z</time>
      </trkpt>
      <trkpt lat="49.1739" lon="6.80967">
        <ele>230.1</ele>
        <time>2013-04-03T08:37:16Z</time>
      </trkpt>
      <trkpt lat="49.17389" lon="6.8097">
        <ele>229.7</ele>
        <time>2013-04-03T08:37:21Z</time>
      </trkpt>
      <trkpt lat="49.17386" lon="6.80978">
        <ele>230.2</ele>
        <time>2013-04-03T08:37:26Z</time>
      </trkpt>
      <trkpt lat="49.17383" lon="6.80984">
        <ele>230.3</ele>
        <time>2013-04-03T08:37:31Z</time>
      </trkpt>
      <trkpt lat="49.17382" lon="6.80986">
        <ele>229.9</ele>
        <time>2013-04-03T08:37:36Z</time>
      </trkpt>
      <trkpt lat="49.17382" lon="6.80988">
        <ele>230.7</ele>
        <time>2013-04-03T08:37:41Z</time>
      </trkpt>
      <trkpt lat="49.17381" lon="6.8099">
        <ele>230.2</ele>
        <time>2013-04-03T08:37:46Z</time>
      </trkpt>
      <trkpt lat="49.17381" lon="6.80991">
        <ele>229.9</ele>
        <time>2013-04-03T08:37:51Z</time>
      </trkpt>
      <trkpt lat="49.17381" lon="6.80992">
        <ele>229.5</ele>
        <time>2013-04-03T08:37:56Z</time>
      </trkpt>
      <trkpt lat="49.17381" lon="6.80993">
        <ele>230</ele>
        <time>2013-04-03T08:38:01Z</time>
      </trkpt>
      <trkpt lat="49.17382" lon="6.80993">
        <ele>229.9</ele>
        <time>2013-04-03T08:38:02Z</time>
      </trkpt>
      <trkpt lat="49.17381" lon="6.80993">
        <ele>229.5</ele>
        <time>2013-04-03T08:38:11Z</time>
      </trkpt>
      <trkpt lat="49.17382" lon="6.80993">
        <ele>230.1</ele>
        <time>2013-04-03T08:38:16Z</time>
      </trkpt>
      <trkpt lat="49.17382" lon="6.80993">
        <ele>230.4</ele>
        <time>2013-04-03T08:38:21Z</time>
      </trkpt>
      <trkpt lat="49.17382" lon="6.80993">
        <ele>229.8</ele>
        <time>2013-04-03T08:38:26Z</time>
      </trkpt>
      <trkpt lat="49.17381" lon="6.80993">
        <ele>229.1</ele>
        <time>2013-04-03T08:38:31Z</time>
      </trkpt>
      <trkpt lat="49.17381" lon="6.80993">
        <ele>229.4</ele>
        <time>2013-04-03T08:38:36Z</time>
      </trkpt>
      <trkpt lat="49.17382" lon="6.80993">
        <ele>229.5</ele>
        <time>2013-04-03T08:38:41Z</time>
      </trkpt>
      <trkpt lat="49.17382" lon="6.80993">
        <ele>229.8</ele>
        <time>2013-04-03T08:38:46Z</time>
      </trkpt>
      <trkpt lat="49.17382" lon="6.80993">
        <ele>230.3</ele>
        <time>2013-04-03T08:38:51Z</time>
      </trkpt>
      <trkpt lat="49.1738" lon="6.80993">
        <ele>229.1</ele>
        <time>2013-04-03T08:38:56Z</time>
      </trkpt>
      <trkpt lat="49.17376" lon="6.80996">
        <ele>228.8</ele>
        <time>2013-04-03T08:39:01Z</time>
      </trkpt>
      <trkpt lat="49.17371" lon="6.80999">
        <ele>228.3</ele>
        <time>2013-04-03T08:39:06Z</time>
      </trkpt>
      <trkpt lat="49.1737" lon="6.81">
        <ele>228.2</ele>
        <time>2013-04-03T08:39:07Z</time>
      </trkpt>
      <trkpt lat="49.17361" lon="6.81003">
        <ele>228.8</ele>
        <time>2013-04-03T08:39:16Z</time>
      </trkpt>
      <trkpt lat="49.1736" lon="6.81004">
        <ele>230</ele>
        <time>2013-04-03T08:39:21Z</time>
      </trkpt>
      <trkpt lat="49.17356" lon="6.81005">
        <ele>229.7</ele>
        <time>2013-04-03T08:39:26Z</time>
      </trkpt>
      <trkpt lat="49.17355" lon="6.81006">
        <ele>229.1</ele>
        <time>2013-04-03T08:39:31Z</time>
      </trkpt>
      <trkpt lat="49.17354" lon="6.81006">
        <ele>228.7</ele>
        <time>2013-04-03T08:39:36Z</time>
      </trkpt>
      <trkpt lat="49.17354" lon="6.81006">
        <ele>229.2</ele>
        <time>2013-04-03T08:39:41Z</time>
      </trkpt>
      <trkpt lat="49.17353" lon="6.81007">
        <ele>229.1</ele>
        <time>2013-04-03T08:39:46Z</time>
      </trkpt>
      <trkpt lat="49.17349" lon="6.81008">
        <ele>229.5</ele>
        <time>2013-04-03T08:39:51Z</time>
      </trkpt>
      <trkpt lat="49.17344" lon="6.8101">
        <ele>229.2</ele>
        <time>2013-04-03T08:39:56Z</time>
      </trkpt>
      <trkpt lat="49.17339" lon="6.81012">
        <ele>228.9</ele>
        <time>2013-04-03T08:40:01Z</time>
      </trkpt>
      <trkpt lat="49.17335" lon="6.81016">
        <ele>229.2</ele>
        <time>2013-04-03T08:40:06Z</time>
      </trkpt>
      <trkpt lat="49.17332" lon="6.81022">
        <ele>229.3</ele>
        <time>2013-04-03T08:40:11Z</time>
      </trkpt>
      <trkpt lat="49.17331" lon="6.81023">
        <ele>229.4</ele>
        <time>2013-04-03T08:40:12Z</time>
      </trkpt>
      <trkpt lat="49.17325" lon="6.81035">
        <ele>228.5</ele>
        <time>2013-04-03T08:40:21Z</time>
      </trkpt>
      <trkpt lat="49.17323" lon="6.81042">
        <ele>228.5</ele>
        <time>2013-04-03T08:40:26Z</time>
      </trkpt>
      <trkpt lat="49.1732" lon="6.81048">
        <ele>228.1</ele>
        <time>2013-04-03T08:40:31Z</time>
      </trkpt>
      <trkpt lat="49.17316" lon="6.81055">
        <ele>228.5</ele>
        <time>2013-04-03T08:40:36Z</time>
      </trkpt>
      <trkpt lat="49.17313" lon="6.8106">
        <ele>227.8</ele>
        <time>2013-04-03T08:40:41Z</time>
      </trkpt>
      <trkpt lat="49.17308" lon="6.81064">
        <ele>228.7</ele>
        <time>2013-04-03T08:40:46Z</time>
      </trkpt>
      <trkpt lat="49.17304" lon="6.81067">
        <ele>228</ele>
        <time>2013-04-03T08:40:51Z</time>
      </trkpt>
      <trkpt lat="49.173" lon="6.8107">
        <ele>228.7</ele>
        <time>2013-04-03T08:40:56Z</time>
      </trkpt>
      <trkpt lat="49.17296" lon="6.81073">
        <ele>228.7</ele>
        <time>2013-04-03T08:41:01Z</time>
      </trkpt>
      <trkpt lat="49.17292" lon="6.81077">
        <ele>228.4</ele>
        <time>2013-04-03T08:41:06Z</time>
      </trkpt>
      <trkpt lat="49.17288" lon="6.81081">
        <ele>228.1</ele>
        <time>2013-04-03T08:41:11Z</time>
      </trkpt>
      <trkpt lat="49.17283" lon="6.81086">
        <ele>228.6</ele>
        <time>2013-04-03T08:41:16Z</time>
      </trkpt>
      <trkpt lat="49.17282" lon="6.81087">
        <ele>228.9</ele>
        <time>2013-04-03T08:41:17Z</time>
      </trkpt>
      <trkpt lat="49.17275" lon="6.81092">
        <ele>230</ele>
        <time>2013-04-03T08:41:26Z</time>
      </trkpt>
      <trkpt lat="49.17271" lon="6.81094">
        <ele>230.5</ele>
        <time>2013-04-03T08:41:31Z</time>
      </trkpt>
      <trkpt lat="49.17266" lon="6.81096">
        <ele>230.5</ele>
        <time>2013-04-03T08:41:36Z</time>
      </trkpt>
      <trkpt lat="49.1726" lon="6.81098">
        <ele>231.2</ele>
        <time>2013-04-03T08:41:41Z</time>
      </trkpt>
      <trkpt lat="49.17255" lon="6.81101">
        <ele>231.7</ele>
        <time>2013-04-03T08:41:46Z</time>
      </trkpt>
      <trkpt lat="49.17249" lon="6.81106">
        <ele>232.5</ele>
        <time>2013-04-03T08:41:51Z</time>
      </trkpt>
      <trkpt lat="49.17245" lon="6.8111">
        <ele>233.4</ele>
        <time>2013-04-03T08:41:56Z</time>
      </trkpt>
      <trkpt lat="49.17243" lon="6.81116">
        <ele>233.3</ele>
        <time>2013-04-03T08:42:01Z</time>
      </trkpt>
      <trkpt lat="49.17239" lon="6.8112">
        <ele>234</ele>
        <time>2013-04-03T08:42:06Z</time>
      </trkpt>
      <trkpt lat="49.17236" lon="6.81125">
        <ele>235.3</ele>
        <time>2013-04-03T08:42:11Z</time>
      </trkpt>
      <trkpt lat="49.17233" lon="6.81129">
        <ele>237.7</ele>
        <time>2013-04-03T08:42:16Z</time>
      </trkpt>
      <trkpt lat="49.1723" lon="6.81134">
        <ele>238</ele>
        <time>2013-04-03T08:42:21Z</time>
      </trkpt>
      <trkpt lat="49.1723" lon="6.81134">
        <ele>238.7</ele>
        <time>2013-04-03T08:42:22Z</time>
      </trkpt>
      <trkpt lat="49.17223" lon="6.81142">
        <ele>240.7</ele>
        <time>2013-04-03T08:42:31Z</time>
      </trkpt>
      <trkpt lat="49.17219" lon="6.81143">
        <ele>241.1</ele>
        <time>2013-04-03T08:42:36Z</time>
      </trkpt>
      <trkpt lat="49.17214" lon="6.81145">
        <ele>241.7</ele>
        <time>2013-04-03T08:42:41Z</time>
      </trkpt>
      <trkpt lat="49.17209" lon="6.81147">
        <ele>242.3</ele>
        <time>2013-04-03T08:42:46Z</time>
      </trkpt>
      <trkpt lat="49.17204" lon="6.81148">
        <ele>243.3</ele>
        <time>2013-04-03T08:42:51Z</time>
      </trkpt>
      <trkpt lat="49.17199" lon="6.81149">
        <ele>243.7</ele>
        <time>2013-04-03T08:42:56Z</time>
      </trkpt>
      <trkpt lat="49.17193" lon="6.81149">
        <ele>243.9</ele>
        <time>2013-04-03T08:43:01Z</time>
      </trkpt>
      <trkpt lat="49.17188" lon="6.81149">
        <ele>245</ele>
        <time>2013-04-03T08:43:06Z</time>
      </trkpt>
      <trkpt lat="49.17182" lon="6.81146">
        <ele>244.4</ele>
        <time>2013-04-03T08:43:11Z</time>
      </trkpt>
      <trkpt lat="49.17177" lon="6.81144">
        <ele>245.4</ele>
        <time>2013-04-03T08:43:16Z</time>
      </trkpt>
      <trkpt lat="49.17171" lon="6.81142">
        <ele>245.8</ele>
        <time>2013-04-03T08:43:21Z</time>
      </trkpt>
      <trkpt lat="49.17166" lon="6.81138">
        <ele>246</ele>
        <time>2013-04-03T08:43:26Z</time>
      </trkpt>
      <trkpt lat="49.17165" lon="6.81137">
        <ele>246.3</ele>
        <time>2013-04-03T08:43:27Z</time>
      </trkpt>
      <trkpt lat="49.17158" lon="6.8113">
        <ele>246</ele>
        <time>2013-04-03T08:43:36Z</time>
      </trkpt>
      <trkpt lat="49.17154" lon="6.81128">
        <ele>246.6</ele>
        <time>2013-04-03T08:43:41Z</time>
      </trkpt>
      <trkpt lat="49.17147" lon="6.81126">
        <ele>247.8</ele>
        <time>2013-04-03T08:43:46Z</time>
      </trkpt>
      <trkpt lat="49.17141" lon="6.81123">
        <ele>248</ele>
        <time>2013-04-03T08:43:51Z</time>
      </trkpt>
      <trkpt lat="49.17136" lon="6.8112">
        <ele>249.6</ele>
        <time>2013-04-03T08:43:56Z</time>
      </trkpt>
      <trkpt lat="49.17131" lon="6.81117">
        <ele>248.9</ele>
        <time>2013-04-03T08:44:01Z</time>
      </trkpt>
      <trkpt lat="49.17126" lon="6.81113">
        <ele>249.6</ele>
        <time>2013-04-03T08:44:06Z</time>
      </trkpt>
      <trkpt lat="49.17121" lon="6.81109">
        <ele>250.4</ele>
        <time>2013-04-03T08:44:11Z</time>
      </trkpt>
      <trkpt lat="49.17116" lon="6.81105">
        <ele>250.7</ele>
        <time>2013-04-03T08:44:16Z</time>
      </trkpt>
      <trkpt lat="49.17111" lon="6.811">
        <ele>250.7</ele>
        <time>2013-04-03T08:44:21Z</time>
      </trkpt>
      <trkpt lat="49.17107" lon="6.81095">
        <ele>251.3</ele>
        <time>2013-04-03T08:44:26Z</time>
      </trkpt>
      <trkpt lat="49.17103" lon="6.8109">
        <ele>251.2</ele>
        <time>2013-04-03T08:44:31Z</time>
      </trkpt>
      <trkpt lat="49.17102" lon="6.81089">
        <ele>251.3</ele>
        <time>2013-04-03T08:44:32Z</time>
      </trkpt>
      <trkpt lat="49.17093" lon="6.81078">
        <ele>251.4</ele>
        <time>2013-04-03T08:44:41Z</time>
      </trkpt>
      <trkpt lat="49.17088" lon="6.81072">
        <ele>252</ele>
        <time>2013-04-03T08:44:46Z</time>
      </trkpt>
      <trkpt lat="49.17083" lon="6.81067">
        <ele>251.4</ele>
        <time>2013-04-03T08:44:51Z</time>
      </trkpt>
      <trkpt lat="49.17079" lon="6.81061">
        <ele>252.4</ele>
        <time>2013-04-03T08:44:56Z</time>
      </trkpt>
      <trkpt lat="49.17074" lon="6.81055">
        <ele>252.3</ele>
        <time>2013-04-03T08:45:01Z</time>
      </trkpt>
      <trkpt lat="49.1707" lon="6.8105">
        <ele>252</ele>
        <time>2013-04-03T08:45:06Z</time>
      </trkpt>
      <trkpt lat="49.17065" lon="6.81044">
        <ele>252.6</ele>
        <time>2013-04-03T08:45:11Z</time>
      </trkpt>
      <trkpt lat="49.1706" lon="6.81038">
        <ele>252.4</ele>
        <time>2013-04-03T08:45:16Z</time>
      </trkpt>
      <trkpt lat="49.17056" lon="6.81033">
        <ele>253.1</ele>
        <time>2013-04-03T08:45:21Z</time>
      </trkpt>
      <trkpt lat="49.17051" lon="6.81027">
        <ele>252.6</ele>
        <time>2013-04-03T08:45:26Z</time>
      </trkpt>
      <trkpt lat="49.17046" lon="6.81022">
        <ele>254.2</ele>
        <time>2013-04-03T08:45:31Z</time>
      </trkpt>
      <trkpt lat="49.17041" lon="6.81016">
        <ele>254.4</ele>
        <time>2013-04-03T08:45:36Z</time>
      </trkpt>
      <trkpt lat="49.1704" lon="6.81015">
        <ele>254.6</ele>
        <time>2013-04-03T08:45:37Z</time>
      </trkpt>
      <trkpt lat="49.17031" lon="6.81008">
        <ele>255.3</ele>
        <time>2013-04-03T08:45:46Z</time>
      </trkpt>
      <trkpt lat="49.17027" lon="6.81003">
        <ele>255.9</ele>
        <time>2013-04-03T08:45:51Z</time>
      </trkpt>
      <trkpt lat="49.17022" lon="6.80998">
        <ele>256.7</ele>
        <time>2013-04-03T08:45:56Z</time>
      </trkpt>
      <trkpt lat="49.17018" lon="6.80992">
        <ele>257</ele>
        <time>2013-04-03T08:46:01Z</time>
      </trkpt>
      <trkpt lat="49.17013" lon="6.80987">
        <ele>258.2</ele>
        <time>2013-04-03T08:46:06Z</time>
      </trkpt>
      <trkpt lat="49.17009" lon="6.80982">
        <ele>258.8</ele>
        <time>2013-04-03T08:46:11Z</time>
      </trkpt>
      <trkpt lat="49.17005" lon="6.80977">
        <ele>259.9</ele>
        <time>2013-04-03T08:46:16Z</time>
      </trkpt>
      <trkpt lat="49.17" lon="6.80973">
        <ele>259.7</ele>
        <time>2013-04-03T08:46:21Z</time>
      </trkpt>
      <trkpt lat="49.16996" lon="6.80967">
        <ele>261.3</ele>
        <time>2013-04-03T08:46:26Z</time>
      </trkpt>
      <trkpt lat="49.16992" lon="6.8096">
        <ele>261.9</ele>
        <time>2013-04-03T08:46:31Z</time>
      </trkpt>
      <trkpt lat="49.16987" lon="6.80952">
        <ele>262.3</ele>
        <time>2013-04-03T08:46:36Z</time>
      </trkpt>
      <trkpt lat="49.16983" lon="6.80946">
        <ele>263</ele>
        <time>2013-04-03T08:46:41Z</time>
      </trkpt>
      <trkpt lat="49.16982" lon="6.80944">
        <ele>263.1</ele>
        <time>2013-04-03T08:46:42Z</time>
      </trkpt>
      <trkpt lat="49.16974" lon="6.8093">
        <ele>263.8</ele>
        <time>2013-04-03T08:46:51Z</time>
      </trkpt>
      <trkpt lat="49.1697" lon="6.80921">
        <ele>264.3</ele>
        <time>2013-04-03T08:46:56Z</time>
      </trkpt>
      <trkpt lat="49.16967" lon="6.80915">
        <ele>264.9</ele>
        <time>2013-04-03T08:47:01Z</time>
      </trkpt>
      <trkpt lat="49.16963" lon="6.80906">
        <ele>264</ele>
        <time>2013-04-03T08:47:06Z</time>
      </trkpt>
      <trkpt lat="49.1696" lon="6.80898">
        <ele>264.9</ele>
        <time>2013-04-03T08:47:11Z</time>
      </trkpt>
      <trkpt lat="49.16956" lon="6.80889">
        <ele>264.9</ele>
        <time>2013-04-03T08:47:16Z</time>
      </trkpt>
      <trkpt lat="49.16951" lon="6.80883">
        <ele>265.1</ele>
        <time>2013-04-03T08:47:21Z</time>
      </trkpt>
      <trkpt lat="49.16946" lon="6.8088">
        <ele>264.8</ele>
        <time>2013-04-03T08:47:26Z</time>
      </trkpt>
      <trkpt lat="49.16941" lon="6.80881">
        <ele>263.9</ele>
        <time>2013-04-03T08:47:31Z</time>
      </trkpt>
      <trkpt lat="49.16937" lon="6.80883">
        <ele>263.1</ele>
        <time>2013-04-03T08:47:36Z</time>
      </trkpt>
      <trkpt lat="49.16933" lon="6.80885">
        <ele>262.6</ele>
        <time>2013-04-03T08:47:41Z</time>
      </trkpt>
      <trkpt lat="49.1693" lon="6.80889">
        <ele>262.1</ele>
        <time>2013-04-03T08:47:46Z</time>
      </trkpt>
      <trkpt lat="49.16929" lon="6.8089">
        <ele>262</ele>
        <time>2013-04-03T08:47:47Z</time>
      </trkpt>
      <trkpt lat="49.16923" lon="6.80898">
        <ele>259.1</ele>
        <time>2013-04-03T08:47:56Z</time>
      </trkpt>
      <trkpt lat="49.16919" lon="6.80903">
        <ele>259.3</ele>
        <time>2013-04-03T08:48:01Z</time>
      </trkpt>
      <trkpt lat="49.16915" lon="6.80909">
        <ele>258.1</ele>
        <time>2013-04-03T08:48:06Z</time>
      </trkpt>
      <trkpt lat="49.16911" lon="6.80914">
        <ele>256.1</ele>
        <time>2013-04-03T08:48:11Z</time>
      </trkpt>
      <trkpt lat="49.16908" lon="6.80919">
        <ele>254.9</ele>
        <time>2013-04-03T08:48:16Z</time>
      </trkpt>
      <trkpt lat="49.16905" lon="6.80924">
        <ele>254.8</ele>
        <time>2013-04-03T08:48:21Z</time>
      </trkpt>
      <trkpt lat="49.16902" lon="6.80929">
        <ele>252.8</ele>
        <time>2013-04-03T08:48:26Z</time>
      </trkpt>
      <trkpt lat="49.16899" lon="6.80934">
        <ele>252</ele>
        <time>2013-04-03T08:48:31Z</time>
      </trkpt>
      <trkpt lat="49.16895" lon="6.8094">
        <ele>251.4</ele>
        <time>2013-04-03T08:48:36Z</time>
      </trkpt>
      <trkpt lat="49.16892" lon="6.80945">
        <ele>249.1</ele>
        <time>2013-04-03T08:48:41Z</time>
      </trkpt>
      <trkpt lat="49.16888" lon="6.8095">
        <ele>247</ele>
        <time>2013-04-03T08:48:46Z</time>
      </trkpt>
      <trkpt lat="49.16885" lon="6.80953">
        <ele>246.4</ele>
        <time>2013-04-03T08:48:51Z</time>
      </trkpt>
      <trkpt lat="49.16884" lon="6.80954">
        <ele>246.1</ele>
        <time>2013-04-03T08:48:52Z</time>
      </trkpt>
      <trkpt lat="49.16875" lon="6.80963">
        <ele>244.9</ele>
        <time>2013-04-03T08:49:01Z</time>
      </trkpt>
      <trkpt lat="49.1687" lon="6.80971">
        <ele>244.8</ele>
        <time>2013-04-03T08:49:06Z</time>
      </trkpt>
      <trkpt lat="49.16867" lon="6.80978">
        <ele>243.9</ele>
        <time>2013-04-03T08:49:11Z</time>
      </trkpt>
      <trkpt lat="49.16863" lon="6.80986">
        <ele>244.3</ele>
        <time>2013-04-03T08:49:16Z</time>
      </trkpt>
      <trkpt lat="49.16861" lon="6.80993">
        <ele>243.6</ele>
        <time>2013-04-03T08:49:21Z</time>
      </trkpt>
      <trkpt lat="49.16859" lon="6.81">
        <ele>242.9</ele>
        <time>2013-04-03T08:49:26Z</time>
      </trkpt>
      <trkpt lat="49.16857" lon="6.81009">
        <ele>243.5</ele>
        <time>2013-04-03T08:49:31Z</time>
      </trkpt>
      <trkpt lat="49.16856" lon="6.81017">
        <ele>244.3</ele>
        <time>2013-04-03T08:49:36Z</time>
      </trkpt>
      <trkpt lat="49.16855" lon="6.81026">
        <ele>244.8</ele>
        <time>2013-04-03T08:49:41Z</time>
      </trkpt>
      <trkpt lat="49.16857" lon="6.81034">
        <ele>244.6</ele>
        <time>2013-04-03T08:49:46Z</time>
      </trkpt>
      <trkpt lat="49.16861" lon="6.81041">
        <ele>244.1</ele>
        <time>2013-04-03T08:49:51Z</time>
      </trkpt>
      <trkpt lat="49.16865" lon="6.81047">
        <ele>244.4</ele>
        <time>2013-04-03T08:49:56Z</time>
      </trkpt>
      <trkpt lat="49.16866" lon="6.81048">
        <ele>244.4</ele>
        <time>2013-04-03T08:49:57Z</time>
      </trkpt>
      <trkpt lat="49.16876" lon="6.81057">
        <ele>244.4</ele>
        <time>2013-04-03T08:50:06Z</time>
      </trkpt>
      <trkpt lat="49.16882" lon="6.81062">
        <ele>243.6</ele>
        <time>2013-04-03T08:50:11Z</time>
      </trkpt>
      <trkpt lat="49.16888" lon="6.81067">
        <ele>243</ele>
        <time>2013-04-03T08:50:16Z</time>
      </trkpt>
      <trkpt lat="49.16894" lon="6.81072">
        <ele>243.2</ele>
        <time>2013-04-03T08:50:21Z</time>
      </trkpt>
      <trkpt lat="49.169" lon="6.81076">
        <ele>243</ele>
        <time>2013-04-03T08:50:26Z</time>
      </trkpt>
      <trkpt lat="49.16905" lon="6.8108">
        <ele>242.2</ele>
        <time>2013-04-03T08:50:31Z</time>
      </trkpt>
      <trkpt lat="49.16909" lon="6.81084">
        <ele>242.6</ele>
        <time>2013-04-03T08:50:36Z</time>
      </trkpt>
      <trkpt lat="49.16914" lon="6.81088">
        <ele>241.8</ele>
        <time>2013-04-03T08:50:41Z</time>
      </trkpt>
      <trkpt lat="49.16921" lon="6.81092">
        <ele>241.2</ele>
        <time>2013-04-03T08:50:46Z</time>
      </trkpt>
      <trkpt lat="49.16928" lon="6.81097">
        <ele>241.7</ele>
        <time>2013-04-03T08:50:51Z</time>
      </trkpt>
      <trkpt lat="49.16934" lon="6.81102">
        <ele>241</ele>
        <time>2013-04-03T08:50:56Z</time>
      </trkpt>
      <trkpt lat="49.16939" lon="6.81106">
        <ele>240.5</ele>
        <time>2013-04-03T08:51:01Z</time>
      </trkpt>
      <trkpt lat="49.16941" lon="6.81107">
        <ele>240.5</ele>
        <time>2013-04-03T08:51:02Z</time>
      </trkpt>
      <trkpt lat="49.16952" lon="6.81115">
        <ele>239.8</ele>
        <time>2013-04-03T08:51:11Z</time>
      </trkpt>
      <trkpt lat="49.16958" lon="6.81118">
        <ele>240</ele>
        <time>2013-04-03T08:51:16Z</time>
      </trkpt>
      <trkpt lat="49.16965" lon="6.8112">
        <ele>239.8</ele>
        <time>2013-04-03T08:51:21Z</time>
      </trkpt>
      <trkpt lat="49.16971" lon="6.81123">
        <ele>238.5</ele>
        <time>2013-04-03T08:51:26Z</time>
      </trkpt>
      <trkpt lat="49.16978" lon="6.81126">
        <ele>238</ele>
        <time>2013-04-03T08:51:31Z</time>
      </trkpt>
      <trkpt lat="49.16984" lon="6.81129">
        <ele>237.4</ele>
        <time>2013-04-03T08:51:36Z</time>
      </trkpt>
      <trkpt lat="49.16991" lon="6.81131">
        <ele>236.3</ele>
        <time>2013-04-03T08:51:41Z</time>
      </trkpt>
      <trkpt lat="49.16997" lon="6.81134">
        <ele>237.1</ele>
        <time>2013-04-03T08:51:46Z</time>
      </trkpt>
      <trkpt lat="49.17004" lon="6.81137">
        <ele>236.4</ele>
        <time>2013-04-03T08:51:51Z</time>
      </trkpt>
      <trkpt lat="49.17009" lon="6.8114">
        <ele>235.7</ele>
        <time>2013-04-03T08:51:56Z</time>
      </trkpt>
      <trkpt lat="49.17015" lon="6.81144">
        <ele>235.4</ele>
        <time>2013-04-03T08:52:01Z</time>
      </trkpt>
      <trkpt lat="49.17021" lon="6.81147">
        <ele>234.8</ele>
        <time>2013-04-03T08:52:06Z</time>
      </trkpt>
      <trkpt lat="49.17022" lon="6.81148">
        <ele>234.8</ele>
        <time>2013-04-03T08:52:07Z</time>
      </trkpt>
      <trkpt lat="49.17034" lon="6.81156">
        <ele>234.9</ele>
        <time>2013-04-03T08:52:16Z</time>
      </trkpt>
      <trkpt lat="49.17041" lon="6.81159">
        <ele>235.3</ele>
        <time>2013-04-03T08:52:21Z</time>
      </trkpt>
      <trkpt lat="49.17049" lon="6.81163">
        <ele>234.2</ele>
        <time>2013-04-03T08:52:26Z</time>
      </trkpt>
      <trkpt lat="49.17056" lon="6.81167">
        <ele>234.2</ele>
        <time>2013-04-03T08:52:31Z</time>
      </trkpt>
      <trkpt lat="49.17063" lon="6.81171">
        <ele>233.5</ele>
        <time>2013-04-03T08:52:36Z</time>
      </trkpt>
      <trkpt lat="49.17069" lon="6.81175">
        <ele>234</ele>
        <time>2013-04-03T08:52:41Z</time>
      </trkpt>
      <trkpt lat="49.17076" lon="6.81178">
        <ele>233.2</ele>
        <time>2013-04-03T08:52:46Z</time>
      </trkpt>
      <trkpt lat="49.17082" lon="6.81182">
        <ele>233.4</ele>
        <time>2013-04-03T08:52:51Z</time>
      </trkpt>
      <trkpt lat="49.17087" lon="6.81186">
        <ele>232.7</ele>
        <time>2013-04-03T08:52:56Z</time>
      </trkpt>
      <trkpt lat="49.17093" lon="6.81191">
        <ele>232.4</ele>
        <time>2013-04-03T08:53:01Z</time>
      </trkpt>
      <trkpt lat="49.171" lon="6.81196">
        <ele>232.5</ele>
        <time>2013-04-03T08:53:06Z</time>
      </trkpt>
      <trkpt lat="49.17107" lon="6.81201">
        <ele>232.3</ele>
        <time>2013-04-03T08:53:11Z</time>
      </trkpt>
      <trkpt lat="49.17108" lon="6.81202">
        <ele>232.2</ele>
        <time>2013-04-03T08:53:12Z</time>
      </trkpt>
      <trkpt lat="49.17119" lon="6.81209">
        <ele>232.7</ele>
        <time>2013-04-03T08:53:21Z</time>
      </trkpt>
      <trkpt lat="49.17126" lon="6.81214">
        <ele>232.1</ele>
        <time>2013-04-03T08:53:26Z</time>
      </trkpt>
      <trkpt lat="49.17132" lon="6.81218">
        <ele>232.2</ele>
        <time>2013-04-03T08:53:31Z</time>
      </trkpt>
      <trkpt lat="49.17138" lon="6.81223">
        <ele>232.5</ele>
        <time>2013-04-03T08:53:36Z</time>
      </trkpt>
      <trkpt lat="49.17144" lon="6.81227">
        <ele>232.4</ele>
        <time>2013-04-03T08:53:41Z</time>
      </trkpt>
      <trkpt lat="49.17149" lon="6.81232">
        <ele>232.4</ele>
        <time>2013-04-03T08:53:46Z</time>
      </trkpt>
      <trkpt lat="49.17154" lon="6.81236">
        <ele>232.3</ele>
        <time>2013-04-03T08:53:51Z</time>
      </trkpt>
      <trkpt lat="49.17158" lon="6.8124">
        <ele>232.4</ele>
        <time>2013-04-03T08:53:56Z</time>
      </trkpt>
      <trkpt lat="49.17162" lon="6.81244">
        <ele>233.1</ele>
        <time>2013-04-03T08:54:01Z</time>
      </trkpt>
      <trkpt lat="49.17166" lon="6.81248">
        <ele>232</ele>
        <time>2013-04-03T08:54:06Z</time>
      </trkpt>
      <trkpt lat="49.1717" lon="6.8125">
        <ele>232.7</ele>
        <time>2013-04-03T08:54:11Z</time>
      </trkpt>
      <trkpt lat="49.17174" lon="6.81254">
        <ele>231.9</ele>
        <time>2013-04-03T08:54:16Z</time>
      </trkpt>
      <trkpt lat="49.17175" lon="6.81254">
        <ele>231.5</ele>
        <time>2013-04-03T08:54:17Z</time>
      </trkpt>
      <trkpt lat="49.17179" lon="6.81257">
        <ele>230.8</ele>
        <time>2013-04-03T08:54:26Z</time>
      </trkpt>
      <trkpt lat="49.17184" lon="6.81261">
        <ele>231</ele>
        <time>2013-04-03T08:54:31Z</time>
      </trkpt>
      <trkpt lat="49.17188" lon="6.81265">
        <ele>231.3</ele>
        <time>2013-04-03T08:54:36Z</time>
      </trkpt>
      <trkpt lat="49.17193" lon="6.81268">
        <ele>231.8</ele>
        <time>2013-04-03T08:54:41Z</time>
      </trkpt>
      <trkpt lat="49.17197" lon="6.81271">
        <ele>231.8</ele>
        <time>2013-04-03T08:54:46Z</time>
      </trkpt>
      <trkpt lat="49.17201" lon="6.81273">
        <ele>231.7</ele>
        <time>2013-04-03T08:54:51Z</time>
      </trkpt>
      <trkpt lat="49.17206" lon="6.81278">
        <ele>231.6</ele>
        <time>2013-04-03T08:54:56Z</time>
      </trkpt>
      <trkpt lat="49.17211" lon="6.81283">
        <ele>231.7</ele>
        <time>2013-04-03T08:55:01Z</time>
      </trkpt>
      <trkpt lat="49.17217" lon="6.81288">
        <ele>230.9</ele>
        <time>2013-04-03T08:55:06Z</time>
      </trkpt>
      <trkpt lat="49.17222" lon="6.81295">
        <ele>230.7</ele>
        <time>2013-04-03T08:55:11Z</time>
      </trkpt>
      <trkpt lat="49.17227" lon="6.81302">
        <ele>230.6</ele>
        <time>2013-04-03T08:55:16Z</time>
      </trkpt>
      <trkpt lat="49.17232" lon="6.81308">
        <ele>231</ele>
        <time>2013-04-03T08:55:21Z</time>
      </trkpt>
      <trkpt lat="49.17233" lon="6.8131">
        <ele>231.2</ele>
        <time>2013-04-03T08:55:22Z</time>
      </trkpt>
      <trkpt lat="49.17243" lon="6.81322">
        <ele>229.8</ele>
        <time>2013-04-03T08:55:31Z</time>
      </trkpt>
      <trkpt lat="49.17248" lon="6.81329">
        <ele>230.7</ele>
        <time>2013-04-03T08:55:36Z</time>
      </trkpt>
      <trkpt lat="49.17253" lon="6.81336">
        <ele>230.7</ele>
        <time>2013-04-03T08:55:41Z</time>
      </trkpt>
      <trkpt lat="49.17258" lon="6.81341">
        <ele>229.8</ele>
        <time>2013-04-03T08:55:46Z</time>
      </trkpt>
      <trkpt lat="49.17262" lon="6.81346">
        <ele>229.5</ele>
        <time>2013-04-03T08:55:51Z</time>
      </trkpt>
      <trkpt lat="49.17266" lon="6.8135">
        <ele>229.3</ele>
        <time>2013-04-03T08:55:56Z</time>
      </trkpt>
      <trkpt lat="49.1727" lon="6.81355">
        <ele>229.2</ele>
        <time>2013-04-03T08:56:01Z</time>
      </trkpt>
      <trkpt lat="49.17274" lon="6.81362">
        <ele>228.8</ele>
        <time>2013-04-03T08:56:06Z</time>
      </trkpt>
      <trkpt lat="49.17277" lon="6.81369">
        <ele>228.8</ele>
        <time>2013-04-03T08:56:11Z</time>
      </trkpt>
      <trkpt lat="49.17279" lon="6.81377">
        <ele>228.9</ele>
        <time>2013-04-03T08:56:16Z</time>
      </trkpt>
      <trkpt lat="49.17282" lon="6.81384">
        <ele>229.5</ele>
        <time>2013-04-03T08:56:21Z</time>
      </trkpt>
      <trkpt lat="49.17284" lon="6.81392">
        <ele>228.9</ele>
        <time>2013-04-03T08:56:26Z</time>
      </trkpt>
      <trkpt lat="49.17284" lon="6.81394">
        <ele>228.8</ele>
        <time>2013-04-03T08:56:27Z</time>
      </trkpt>
      <trkpt lat="49.17287" lon="6.81409">
        <ele>229.4</ele>
        <time>2013-04-03T08:56:36Z</time>
      </trkpt>
      <trkpt lat="49.17288" lon="6.81418">
        <ele>229.5</ele>
        <time>2013-04-03T08:56:41Z</time>
      </trkpt>
      <trkpt lat="49.17289" lon="6.81427">
        <ele>229.5</ele>
        <time>2013-04-03T08:56:46Z</time>
      </trkpt>
      <trkpt lat="49.1729" lon="6.81436">
        <ele>229.8</ele>
        <time>2013-04-03T08:56:51Z</time>
      </trkpt>
      <trkpt lat="49.17292" lon="6.81445">
        <ele>230</ele>
        <time>2013-04-03T08:56:56Z</time>
      </trkpt>
      <trkpt lat="49.17293" lon="6.81454">
        <ele>229.1</ele>
        <time>2013-04-03T08:57:01Z</time>
      </trkpt>
      <trkpt lat="49.17294" lon="6.81463">
        <ele>228.8</ele>
        <time>2013-04-03T08:57:06Z</time>
      </trkpt>
      <trkpt lat="49.17294" lon="6.81472">
        <ele>229</ele>
        <time>2013-04-03T08:57:11Z</time>
      </trkpt>
      <trkpt lat="49.17294" lon="6.8148">
        <ele>228.9</ele>
        <time>2013-04-03T08:57:16Z</time>
      </trkpt>
      <trkpt lat="49.17295" lon="6.8149">
        <ele>229.2</ele>
        <time>2013-04-03T08:57:21Z</time>
      </trkpt>
      <trkpt lat="49.17294" lon="6.81499">
        <ele>229.4</ele>
        <time>2013-04-03T08:57:26Z</time>
      </trkpt>
      <trkpt lat="49.17293" lon="6.81506">
        <ele>229.6</ele>
        <time>2013-04-03T08:57:31Z</time>
      </trkpt>
      <trkpt lat="49.17293" lon="6.81508">
        <ele>229.7</ele>
        <time>2013-04-03T08:57:32Z</time>
      </trkpt>
      <trkpt lat="49.17291" lon="6.81523">
        <ele>229.7</ele>
        <time>2013-04-03T08:57:41Z</time>
      </trkpt>
      <trkpt lat="49.17287" lon="6.81531">
        <ele>230.2</ele>
        <time>2013-04-03T08:57:46Z</time>
      </trkpt>
      <trkpt lat="49.17282" lon="6.81538">
        <ele>228.8</ele>
        <time>2013-04-03T08:57:51Z</time>
      </trkpt>
      <trkpt lat="49.17277" lon="6.81545">
        <ele>228.6</ele>
        <time>2013-04-03T08:57:56Z</time>
      </trkpt>
      <trkpt lat="49.17272" lon="6.81551">
        <ele>229</ele>
        <time>2013-04-03T08:58:01Z</time>
      </trkpt>
      <trkpt lat="49.17267" lon="6.81557">
        <ele>229.2</ele>
        <time>2013-04-03T08:58:06Z</time>
      </trkpt>
      <trkpt lat="49.17263" lon="6.81564">
        <ele>229.5</ele>
        <time>2013-04-03T08:58:11Z</time>
      </trkpt>
      <trkpt lat="49.17258" lon="6.8157">
        <ele>229.5</ele>
        <time>2013-04-03T08:58:16Z</time>
      </trkpt>
      <trkpt lat="49.17253" lon="6.81575">
        <ele>229.2</ele>
        <time>2013-04-03T08:58:21Z</time>
      </trkpt>
      <trkpt lat="49.17249" lon="6.8158">
        <ele>229.4</ele>
        <time>2013-04-03T08:58:26Z</time>
      </trkpt>
      <trkpt lat="49.17243" lon="6.81585">
        <ele>229.2</ele>
        <time>2013-04-03T08:58:31Z</time>
      </trkpt>
      <trkpt lat="49.17236" lon="6.8159">
        <ele>229.2</ele>
        <time>2013-04-03T08:58:36Z</time>
      </trkpt>
      <trkpt lat="49.17235" lon="6.81592">
        <ele>228.9</ele>
        <time>2013-04-03T08:58:37Z</time>
      </trkpt>
      <trkpt lat="49.17223" lon="6.81601">
        <ele>228.5</ele>
        <time>2013-04-03T08:58:46Z</time>
      </trkpt>
      <trkpt lat="49.17217" lon="6.81605">
        <ele>229.3</ele>
        <time>2013-04-03T08:58:51Z</time>
      </trkpt>
      <trkpt lat="49.17213" lon="6.8161">
        <ele>228.9</ele>
        <time>2013-04-03T08:58:56Z</time>
      </trkpt>
      <trkpt lat="49.17207" lon="6.81615">
        <ele>229</ele>
        <time>2013-04-03T08:59:01Z</time>
      </trkpt>
      <trkpt lat="49.17201" lon="6.8162">
        <ele>229.2</ele>
        <time>2013-04-03T08:59:06Z</time>
      </trkpt>
      <trkpt lat="49.17194" lon="6.81625">
        <ele>229.7</ele>
        <time>2013-04-03T08:59:11Z</time>
      </trkpt>
      <trkpt lat="49.17187" lon="6.8163">
        <ele>229.1</ele>
        <time>2013-04-03T08:59:16Z</time>
      </trkpt>
      <trkpt lat="49.17181" lon="6.81634">
        <ele>229.4</ele>
        <time>2013-04-03T08:59:21Z</time>
      </trkpt>
      <trkpt lat="49.17175" lon="6.81636">
        <ele>228.4</ele>
        <time>2013-04-03T08:59:26Z</time>
      </trkpt>
      <trkpt lat="49.1717" lon="6.81639">
        <ele>229</ele>
        <time>2013-04-03T08:59:31Z</time>
      </trkpt>
      <trkpt lat="49.17165" lon="6.81645">
        <ele>228.9</ele>
        <time>2013-04-03T08:59:36Z</time>
      </trkpt>
      <trkpt lat="49.1716" lon="6.8165">
        <ele>229.5</ele>
        <time>2013-04-03T08:59:41Z</time>
      </trkpt>
      <trkpt lat="49.17159" lon="6.81651">
        <ele>229.4</ele>
        <time>2013-04-03T08:59:42Z</time>
      </trkpt>
      <trkpt lat="49.17153" lon="6.8166">
        <ele>229.9</ele>
        <time>2013-04-03T08:59:51Z</time>
      </trkpt>
      <trkpt lat="49.17151" lon="6.81667">
        <ele>228.8</ele>
        <time>2013-04-03T08:59:56Z</time>
      </trkpt>
      <trkpt lat="49.17148" lon="6.81673">
        <ele>227.7</ele>
        <time>2013-04-03T09:00:01Z</time>
      </trkpt>
      <trkpt lat="49.17144" lon="6.81678">
        <ele>226.3</ele>
        <time>2013-04-03T09:00:06Z</time>
      </trkpt>
      <trkpt lat="49.1714" lon="6.81683">
        <ele>225.4</ele>
        <time>2013-04-03T09:00:11Z</time>
      </trkpt>
      <trkpt lat="49.17138" lon="6.81691">
        <ele>224.6</ele>
        <time>2013-04-03T09:00:16Z</time>
      </trkpt>
      <trkpt lat="49.17135" lon="6.81699">
        <ele>224.5</ele>
        <time>2013-04-03T09:00:21Z</time>
      </trkpt>
      <trkpt lat="49.17133" lon="6.81708">
        <ele>224.1</ele>
        <time>2013-04-03T09:00:26Z</time>
      </trkpt>
      <trkpt lat="49.17132" lon="6.81715">
        <ele>224.3</ele>
        <time>2013-04-03T09:00:31Z</time>
      </trkpt>
      <trkpt lat="49.1713" lon="6.81724">
        <ele>225</ele>
        <time>2013-04-03T09:00:36Z</time>
      </trkpt>
      <trkpt lat="49.17128" lon="6.81732">
        <ele>225.6</ele>
        <time>2013-04-03T09:00:41Z</time>
      </trkpt>
      <trkpt lat="49.17127" lon="6.81741">
        <ele>226.9</ele>
        <time>2013-04-03T09:00:46Z</time>
      </trkpt>
      <trkpt lat="49.17127" lon="6.81742">
        <ele>227</ele>
        <time>2013-04-03T09:00:47Z</time>
      </trkpt>
      <trkpt lat="49.17123" lon="6.81758">
        <ele>226.4</ele>
        <time>2013-04-03T09:00:56Z</time>
      </trkpt>
      <trkpt lat="49.17123" lon="6.81767">
        <ele>225.2</ele>
        <time>2013-04-03T09:01:01Z</time>
      </trkpt>
      <trkpt lat="49.17122" lon="6.81775">
        <ele>225.3</ele>
        <time>2013-04-03T09:01:06Z</time>
      </trkpt>
      <trkpt lat="49.17121" lon="6.81784">
        <ele>224.6</ele>
        <time>2013-04-03T09:01:11Z</time>
      </trkpt>
      <trkpt lat="49.17121" lon="6.81792">
        <ele>223.7</ele>
        <time>2013-04-03T09:01:16Z</time>
      </trkpt>
      <trkpt lat="49.17122" lon="6.81802">
        <ele>222.7</ele>
        <time>2013-04-03T09:01:21Z</time>
      </trkpt>
      <trkpt lat="49.17125" lon="6.8181">
        <ele>222.2</ele>
        <time>2013-04-03T09:01:26Z</time>
      </trkpt>
      <trkpt lat="49.1713" lon="6.81815">
        <ele>221.6</ele>
        <time>2013-04-03T09:01:31Z</time>
      </trkpt>
      <trkpt lat="49.17136" lon="6.81818">
        <ele>221.9</ele>
        <time>2013-04-03T09:01:36Z</time>
      </trkpt>
      <trkpt lat="49.17143" lon="6.81821">
        <ele>222.5</ele>
        <time>2013-04-03T09:01:41Z</time>
      </trkpt>
      <trkpt lat="49.1715" lon="6.81824">
        <ele>222.1</ele>
        <time>2013-04-03T09:01:46Z</time>
      </trkpt>
      <trkpt lat="49.17158" lon="6.81828">
        <ele>222.4</ele>
        <time>2013-04-03T09:01:51Z</time>
      </trkpt>
      <trkpt lat="49.1716" lon="6.81829">
        <ele>222.3</ele>
        <time>2013-04-03T09:01:52Z</time>
      </trkpt>
      <trkpt lat="49.17175" lon="6.81838">
        <ele>221.9</ele>
        <time>2013-04-03T09:02:01Z</time>
      </trkpt>
      <trkpt lat="49.1718" lon="6.81842">
        <ele>221.5</ele>
        <time>2013-04-03T09:02:06Z</time>
      </trkpt>
      <trkpt lat="49.17182" lon="6.81846">
        <ele>221.3</ele>
        <time>2013-04-03T09:02:11Z</time>
      </trkpt>
      <trkpt lat="49.17186" lon="6.81847">
        <ele>221.5</ele>
        <time>2013-04-03T09:02:16Z</time>
      </trkpt>
      <trkpt lat="49.17188" lon="6.81849">
        <ele>221.9</ele>
        <time>2013-04-03T09:02:21Z</time>
      </trkpt>
      <trkpt lat="49.1719" lon="6.81855">
        <ele>221.9</ele>
        <time>2013-04-03T09:02:26Z</time>
      </trkpt>
      <trkpt lat="49.17192" lon="6.81861">
        <ele>223.3</ele>
        <time>2013-04-03T09:02:31Z</time>
      </trkpt>
      <trkpt lat="49.17194" lon="6.81869">
        <ele>223.1</ele>
        <time>2013-04-03T09:02:36Z</time>
      </trkpt>
      <trkpt lat="49.17196" lon="6.81876">
        <ele>223.3</ele>
        <time>2013-04-03T09:02:41Z</time>
      </trkpt>
      <trkpt lat="49.17197" lon="6.81884">
        <ele>223.9</ele>
        <time>2013-04-03T09:02:46Z</time>
      </trkpt>
      <trkpt lat="49.17198" lon="6.81892">
        <ele>223.5</ele>
        <time>2013-04-03T09:02:51Z</time>
      </trkpt>
      <trkpt lat="49.17198" lon="6.81899">
        <ele>223.4</ele>
        <time>2013-04-03T09:02:56Z</time>
      </trkpt>
      <trkpt lat="49.17198" lon="6.819">
        <ele>223.3</ele>
        <time>2013-04-03T09:02:57Z</time>
      </trkpt>
      <trkpt lat="49.17204" lon="6.81914">
        <ele>223</ele>
        <time>2013-04-03T09:03:06Z</time>
      </trkpt>
      <trkpt lat="49.17203" lon="6.81918">
        <ele>223.5</ele>
        <time>2013-04-03T09:03:11Z</time>
      </trkpt>
      <trkpt lat="49.17203" lon="6.81919">
        <ele>223.8</ele>
        <time>2013-04-03T09:03:16Z</time>
      </trkpt>
      <trkpt lat="49.17202" lon="6.8192">
        <ele>224.6</ele>
        <time>2013-04-03T09:03:21Z</time>
      </trkpt>
      <trkpt lat="49.17201" lon="6.8192">
        <ele>223.9</ele>
        <time>2013-04-03T09:03:26Z</time>
      </trkpt>
      <trkpt lat="49.172" lon="6.8192">
        <ele>223.8</ele>
        <time>2013-04-03T09:03:31Z</time>
      </trkpt>
      <trkpt lat="49.17199" lon="6.81919">
        <ele>223.6</ele>
        <time>2013-04-03T09:03:36Z</time>
      </trkpt>
      <trkpt lat="49.17198" lon="6.81918">
        <ele>224.1</ele>
        <time>2013-04-03T09:03:41Z</time>
      </trkpt>
      <trkpt lat="49.17197" lon="6.81917">
        <ele>224.6</ele>
        <time>2013-04-03T09:03:46Z</time>
      </trkpt>
      <trkpt lat="49.17196" lon="6.81916">
        <ele>224.3</ele>
        <time>2013-04-03T09:03:51Z</time>
      </trkpt>
      <trkpt lat="49.17196" lon="6.81915">
        <ele>224.8</ele>
        <time>2013-04-03T09:03:56Z</time>
      </trkpt>
      <trkpt lat="49.17195" lon="6.81915">
        <ele>224.8</ele>
        <time>2013-04-03T09:04:01Z</time>
      </trkpt>
      <trkpt lat="49.17195" lon="6.81915">
        <ele>224.9</ele>
        <time>2013-04-03T09:04:02Z</time>
      </trkpt>
      <trkpt lat="49.17194" lon="6.81916">
        <ele>223.9</ele>
        <time>2013-04-03T09:04:11Z</time>
      </trkpt>
      <trkpt lat="49.17194" lon="6.81917">
        <ele>224.6</ele>
        <time>2013-04-03T09:04:16Z</time>
      </trkpt>
      <trkpt lat="49.17194" lon="6.81917">
        <ele>224.2</ele>
        <time>2013-04-03T09:04:21Z</time>
      </trkpt>
      <trkpt lat="49.17193" lon="6.81918">
        <ele>224.2</ele>
        <time>2013-04-03T09:04:26Z</time>
      </trkpt>
      <trkpt lat="49.17193" lon="6.81919">
        <ele>224.6</ele>
        <time>2013-04-03T09:04:31Z</time>
      </trkpt>
      <trkpt lat="49.17192" lon="6.81919">
        <ele>224.8</ele>
        <time>2013-04-03T09:04:36Z</time>
      </trkpt>
      <trkpt lat="49.17193" lon="6.81921">
        <ele>224.6</ele>
        <time>2013-04-03T09:04:41Z</time>
      </trkpt>
      <trkpt lat="49.17194" lon="6.81926">
        <ele>223.7</ele>
        <time>2013-04-03T09:04:46Z</time>
      </trkpt>
      <trkpt lat="49.17197" lon="6.81933">
        <ele>223.6</ele>
        <time>2013-04-03T09:04:51Z</time>
      </trkpt>
      <trkpt lat="49.172" lon="6.81938">
        <ele>224.9</ele>
        <time>2013-04-03T09:04:56Z</time>
      </trkpt>
      <trkpt lat="49.17204" lon="6.81945">
        <ele>225.3</ele>
        <time>2013-04-03T09:05:01Z</time>
      </trkpt>
      <trkpt lat="49.17207" lon="6.81952">
        <ele>225.7</ele>
        <time>2013-04-03T09:05:06Z</time>
      </trkpt>
      <trkpt lat="49.17208" lon="6.81954">
        <ele>225.8</ele>
        <time>2013-04-03T09:05:07Z</time>
      </trkpt>
      <trkpt lat="49.17213" lon="6.81968">
        <ele>225.9</ele>
        <time>2013-04-03T09:05:16Z</time>
      </trkpt>
      <trkpt lat="49.17215" lon="6.81978">
        <ele>226.8</ele>
        <time>2013-04-03T09:05:21Z</time>
      </trkpt>
      <trkpt lat="49.17217" lon="6.81986">
        <ele>227.4</ele>
        <time>2013-04-03T09:05:26Z</time>
      </trkpt>
      <trkpt lat="49.1722" lon="6.81997">
        <ele>227.3</ele>
        <time>2013-04-03T09:05:31Z</time>
      </trkpt>
      <trkpt lat="49.17222" lon="6.82006">
        <ele>227.5</ele>
        <time>2013-04-03T09:05:36Z</time>
      </trkpt>
      <trkpt lat="49.17224" lon="6.82014">
        <ele>226.4</ele>
        <time>2013-04-03T09:05:41Z</time>
      </trkpt>
      <trkpt lat="49.17224" lon="6.82024">
        <ele>226.5</ele>
        <time>2013-04-03T09:05:46Z</time>
      </trkpt>
      <trkpt lat="49.17224" lon="6.82033">
        <ele>224.7</ele>
        <time>2013-04-03T09:05:51Z</time>
      </trkpt>
      <trkpt lat="49.17224" lon="6.82043">
        <ele>225</ele>
        <time>2013-04-03T09:05:56Z</time>
      </trkpt>
      <trkpt lat="49.17224" lon="6.82053">
        <ele>224.5</ele>
        <time>2013-04-03T09:06:01Z</time>
      </trkpt>
      <trkpt lat="49.17223" lon="6.82064">
        <ele>224.4</ele>
        <time>2013-04-03T09:06:06Z</time>
      </trkpt>
      <trkpt lat="49.17223" lon="6.82072">
        <ele>223.2</ele>
        <time>2013-04-03T09:06:11Z</time>
      </trkpt>
      <trkpt lat="49.17223" lon="6.82074">
        <ele>223.4</ele>
        <time>2013-04-03T09:06:12Z</time>
      </trkpt>
      <trkpt lat="49.17225" lon="6.8209">
        <ele>224.2</ele>
        <time>2013-04-03T09:06:21Z</time>
      </trkpt>
      <trkpt lat="49.17226" lon="6.82099">
        <ele>225.2</ele>
        <time>2013-04-03T09:06:26Z</time>
      </trkpt>
      <trkpt lat="49.17226" lon="6.82109">
        <ele>225.3</ele>
        <time>2013-04-03T09:06:31Z</time>
      </trkpt>
      <trkpt lat="49.17226" lon="6.82119">
        <ele>224.9</ele>
        <time>2013-04-03T09:06:36Z</time>
      </trkpt>
      <trkpt lat="49.17224" lon="6.82129">
        <ele>225.6</ele>
        <time>2013-04-03T09:06:41Z</time>
      </trkpt>
      <trkpt lat="49.17223" lon="6.82137">
        <ele>225</ele>
        <time>2013-04-03T09:06:46Z</time>
      </trkpt>
      <trkpt lat="49.17222" lon="6.82145">
        <ele>224</ele>
        <time>2013-04-03T09:06:51Z</time>
      </trkpt>
      <trkpt lat="49.17221" lon="6.82152">
        <ele>224.2</ele>
        <time>2013-04-03T09:06:56Z</time>
      </trkpt>
      <trkpt lat="49.17222" lon="6.82154">
        <ele>225.2</ele>
        <time>2013-04-03T09:07:01Z</time>
      </trkpt>
      <trkpt lat="49.17223" lon="6.82153">
        <ele>225.8</ele>
        <time>2013-04-03T09:07:06Z</time>
      </trkpt>
      <trkpt lat="49.17224" lon="6.82149">
        <ele>226.6</ele>
        <time>2013-04-03T09:07:11Z</time>
      </trkpt>
      <trkpt lat="49.17226" lon="6.82147">
        <ele>227.9</ele>
        <time>2013-04-03T09:07:16Z</time>
      </trkpt>
      <trkpt lat="49.17227" lon="6.82147">
        <ele>227.9</ele>
        <time>2013-04-03T09:07:17Z</time>
      </trkpt>
      <trkpt lat="49.1723" lon="6.8214">
        <ele>229.9</ele>
        <time>2013-04-03T09:07:26Z</time>
      </trkpt>
      <trkpt lat="49.17232" lon="6.82134">
        <ele>230.9</ele>
        <time>2013-04-03T09:07:31Z</time>
      </trkpt>
      <trkpt lat="49.17233" lon="6.82129">
        <ele>232.3</ele>
        <time>2013-04-03T09:07:36Z</time>
      </trkpt>
      <trkpt lat="49.17235" lon="6.82124">
        <ele>232.3</ele>
        <time>2013-04-03T09:07:41Z</time>
      </trkpt>
      <trkpt lat="49.17237" lon="6.8212">
        <ele>232.7</ele>
        <time>2013-04-03T09:07:46Z</time>
      </trkpt>
      <trkpt lat="49.17238" lon="6.82114">
        <ele>234.7</ele>
        <time>2013-04-03T09:07:51Z</time>
      </trkpt>
      <trkpt lat="49.17239" lon="6.82108">
        <ele>234.9</ele>
        <time>2013-04-03T09:07:56Z</time>
      </trkpt>
      <trkpt lat="49.1724" lon="6.82101">
        <ele>235.6</ele>
        <time>2013-04-03T09:08:01Z</time>
      </trkpt>
      <trkpt lat="49.1724" lon="6.82093">
        <ele>234.9</ele>
        <time>2013-04-03T09:08:06Z</time>
      </trkpt>
      <trkpt lat="49.17241" lon="6.82085">
        <ele>234.7</ele>
        <time>2013-04-03T09:08:11Z</time>
      </trkpt>
      <trkpt lat="49.17242" lon="6.82079">
        <ele>234.3</ele>
        <time>2013-04-03T09:08:16Z</time>
      </trkpt>
      <trkpt lat="49.17242" lon="6.8208">
        <ele>234</ele>
        <time>2013-04-03T09:08:21Z</time>
      </trkpt>
      <trkpt lat="49.17242" lon="6.82081">
        <ele>234.3</ele>
        <time>2013-04-03T09:08:22Z</time>
      </trkpt>
      <trkpt lat="49.17244" lon="6.82088">
        <ele>235.1</ele>
        <time>2013-04-03T09:08:31Z</time>
      </trkpt>
      <trkpt lat="49.17246" lon="6.82089">
        <ele>235.4</ele>
        <time>2013-04-03T09:08:36Z</time>
      </trkpt>
      <trkpt lat="49.17247" lon="6.82085">
        <ele>235.4</ele>
        <time>2013-04-03T09:08:41Z</time>
      </trkpt>
      <trkpt lat="49.1725" lon="6.82084">
        <ele>236.2</ele>
        <time>2013-04-03T09:08:46Z</time>
      </trkpt>
      <trkpt lat="49.17252" lon="6.82086">
        <ele>236</ele>
        <time>2013-04-03T09:08:51Z</time>
      </trkpt>
      <trkpt lat="49.17253" lon="6.82092">
        <ele>237.2</ele>
        <time>2013-04-03T09:08:56Z</time>
      </trkpt>
      <trkpt lat="49.17253" lon="6.82097">
        <ele>238.9</ele>
        <time>2013-04-03T09:09:01Z</time>
      </trkpt>
      <trkpt lat="49.17252" lon="6.82102">
        <ele>240.1</ele>
        <time>2013-04-03T09:09:06Z</time>
      </trkpt>
      <trkpt lat="49.17253" lon="6.82107">
        <ele>240.5</ele>
        <time>2013-04-03T09:09:11Z</time>
      </trkpt>
      <trkpt lat="49.17253" lon="6.82112">
        <ele>241.6</ele>
        <time>2013-04-03T09:09:16Z</time>
      </trkpt>
      <trkpt lat="49.17255" lon="6.82114">
        <ele>242.5</ele>
        <time>2013-04-03T09:09:21Z</time>
      </trkpt>
      <trkpt lat="49.17257" lon="6.82115">
        <ele>243.8</ele>
        <time>2013-04-03T09:09:26Z</time>
      </trkpt>
      <trkpt lat="49.17258" lon="6.82115">
        <ele>244.1</ele>
        <time>2013-04-03T09:09:27Z</time>
      </trkpt>
      <trkpt lat="49.17264" lon="6.82113">
        <ele>245.3</ele>
        <time>2013-04-03T09:09:36Z</time>
      </trkpt>
      <trkpt lat="49.17269" lon="6.82113">
        <ele>247.4</ele>
        <time>2013-04-03T09:09:41Z</time>
      </trkpt>
      <trkpt lat="49.17273" lon="6.82114">
        <ele>247.5</ele>
        <time>2013-04-03T09:09:46Z</time>
      </trkpt>
      <trkpt lat="49.17279" lon="6.82113">
        <ele>248.8</ele>
        <time>2013-04-03T09:09:51Z</time>
      </trkpt>
      <trkpt lat="49.17283" lon="6.82113">
        <ele>249.7</ele>
        <time>2013-04-03T09:09:56Z</time>
      </trkpt>
      <trkpt lat="49.17288" lon="6.82115">
        <ele>250.6</ele>
        <time>2013-04-03T09:10:01Z</time>
      </trkpt>
      <trkpt lat="49.17292" lon="6.82115">
        <ele>252</ele>
        <time>2013-04-03T09:10:06Z</time>
      </trkpt>
      <trkpt lat="49.17295" lon="6.82116">
        <ele>252.9</ele>
        <time>2013-04-03T09:10:11Z</time>
      </trkpt>
      <trkpt lat="49.17298" lon="6.82118">
        <ele>254.3</ele>
        <time>2013-04-03T09:10:16Z</time>
      </trkpt>
      <trkpt lat="49.17302" lon="6.82121">
        <ele>254.3</ele>
        <time>2013-04-03T09:10:21Z</time>
      </trkpt>
      <trkpt lat="49.17306" lon="6.82123">
        <ele>254.4</ele>
        <time>2013-04-03T09:10:26Z</time>
      </trkpt>
      <trkpt lat="49.17309" lon="6.82127">
        <ele>256.3</ele>
        <time>2013-04-03T09:10:31Z</time>
      </trkpt>
      <trkpt lat="49.1731" lon="6.82128">
        <ele>256.6</ele>
        <time>2013-04-03T09:10:32Z</time>
      </trkpt>
      <trkpt lat="49.17315" lon="6.82133">
        <ele>258.5</ele>
        <time>2013-04-03T09:10:41Z</time>
      </trkpt>
      <trkpt lat="49.17318" lon="6.82134">
        <ele>259</ele>
        <time>2013-04-03T09:10:46Z</time>
      </trkpt>
      <trkpt lat="49.17319" lon="6.82131">
        <ele>258.8</ele>
        <time>2013-04-03T09:10:51Z</time>
      </trkpt>
      <trkpt lat="49.17319" lon="6.8213">
        <ele>258.9</ele>
        <time>2013-04-03T09:10:56Z</time>
      </trkpt>
      <trkpt lat="49.17319" lon="6.82129">
        <ele>259</ele>
        <time>2013-04-03T09:11:01Z</time>
      </trkpt>
      <trkpt lat="49.17318" lon="6.8213">
        <ele>258.9</ele>
        <time>2013-04-03T09:11:06Z</time>
      </trkpt>
      <trkpt lat="49.17319" lon="6.82133">
        <ele>258.7</ele>
        <time>2013-04-03T09:11:11Z</time>
      </trkpt>
      <trkpt lat="49.17318" lon="6.82135">
        <ele>258.9</ele>
        <time>2013-04-03T09:11:16Z</time>
      </trkpt>
      <trkpt lat="49.17318" lon="6.82136">
        <ele>259.6</ele>
        <time>2013-04-03T09:11:21Z</time>
      </trkpt>
      <trkpt lat="49.17318" lon="6.82137">
        <ele>259.5</ele>
        <time>2013-04-03T09:11:26Z</time>
      </trkpt>
      <trkpt lat="49.1732" lon="6.82138">
        <ele>260.1</ele>
        <time>2013-04-03T09:11:31Z</time>
      </trkpt>
      <trkpt lat="49.17322" lon="6.8214">
        <ele>260</ele>
        <time>2013-04-03T09:11:36Z</time>
      </trkpt>
      <trkpt lat="49.17322" lon="6.8214">
        <ele>260.1</ele>
        <time>2013-04-03T09:11:37Z</time>
      </trkpt>
      <trkpt lat="49.17327" lon="6.82143">
        <ele>260</ele>
        <time>2013-04-03T09:11:46Z</time>
      </trkpt>
      <trkpt lat="49.17328" lon="6.82144">
        <ele>259.3</ele>
        <time>2013-04-03T09:11:51Z</time>
      </trkpt>
      <trkpt lat="49.1733" lon="6.82145">
        <ele>258.9</ele>
        <time>2013-04-03T09:11:56Z</time>
      </trkpt>
      <trkpt lat="49.17332" lon="6.82146">
        <ele>259</ele>
        <time>2013-04-03T09:12:01Z</time>
      </trkpt>
      <trkpt lat="49.1733" lon="6.82145">
        <ele>259.3</ele>
        <time>2013-04-03T09:12:06Z</time>
      </trkpt>
      <trkpt lat="49.17329" lon="6.82144">
        <ele>259.7</ele>
        <time>2013-04-03T09:12:11Z</time>
      </trkpt>
      <trkpt lat="49.17324" lon="6.82147">
        <ele>259.6</ele>
        <time>2013-04-03T09:12:16Z</time>
      </trkpt>
      <trkpt lat="49.17322" lon="6.82151">
        <ele>258</ele>
        <time>2013-04-03T09:12:21Z</time>
      </trkpt>
      <trkpt lat="49.1732" lon="6.82157">
        <ele>257.3</ele>
        <time>2013-04-03T09:12:26Z</time>
      </trkpt>
      <trkpt lat="49.17318" lon="6.82164">
        <ele>257.3</ele>
        <time>2013-04-03T09:12:31Z</time>
      </trkpt>
      <trkpt lat="49.17316" lon="6.8217">
        <ele>257</ele>
        <time>2013-04-03T09:12:36Z</time>
      </trkpt>
      <trkpt lat="49.17313" lon="6.82177">
        <ele>256.9</ele>
        <time>2013-04-03T09:12:41Z</time>
      </trkpt>
      <trkpt lat="49.17313" lon="6.82179">
        <ele>256.9</ele>
        <time>2013-04-03T09:12:42Z</time>
      </trkpt>
      <trkpt lat="49.17308" lon="6.82195">
        <ele>255</ele>
        <time>2013-04-03T09:12:51Z</time>
      </trkpt>
      <trkpt lat="49.17306" lon="6.82205">
        <ele>254.7</ele>
        <time>2013-04-03T09:12:56Z</time>
      </trkpt>
      <trkpt lat="49.17307" lon="6.82213">
        <ele>253.5</ele>
        <time>2013-04-03T09:13:01Z</time>
      </trkpt>
      <trkpt lat="49.17309" lon="6.82218">
        <ele>253.6</ele>
        <time>2013-04-03T09:13:06Z</time>
      </trkpt>
      <trkpt lat="49.17312" lon="6.82222">
        <ele>254.7</ele>
        <time>2013-04-03T09:13:11Z</time>
      </trkpt>
      <trkpt lat="49.17316" lon="6.82226">
        <ele>256</ele>
        <time>2013-04-03T09:13:16Z</time>
      </trkpt>
      <trkpt lat="49.17321" lon="6.82231">
        <ele>257.5</ele>
        <time>2013-04-03T09:13:21Z</time>
      </trkpt>
      <trkpt lat="49.17327" lon="6.82236">
        <ele>257.8</ele>
        <time>2013-04-03T09:13:26Z</time>
      </trkpt>
      <trkpt lat="49.17333" lon="6.82241">
        <ele>259.8</ele>
        <time>2013-04-03T09:13:31Z</time>
      </trkpt>
      <trkpt lat="49.17339" lon="6.82246">
        <ele>260.7</ele>
        <time>2013-04-03T09:13:36Z</time>
      </trkpt>
      <trkpt lat="49.17345" lon="6.82253">
        <ele>260.8</ele>
        <time>2013-04-03T09:13:41Z</time>
      </trkpt>
      <trkpt lat="49.17351" lon="6.82261">
        <ele>262</ele>
        <time>2013-04-03T09:13:46Z</time>
      </trkpt>
      <trkpt lat="49.17352" lon="6.82262">
        <ele>262.5</ele>
        <time>2013-04-03T09:13:47Z</time>
      </trkpt>
      <trkpt lat="49.1736" lon="6.82278">
        <ele>262</ele>
        <time>2013-04-03T09:13:56Z</time>
      </trkpt>
      <trkpt lat="49.17366" lon="6.82287">
        <ele>262</ele>
        <time>2013-04-03T09:14:01Z</time>
      </trkpt>
      <trkpt lat="49.1737" lon="6.82295">
        <ele>262.6</ele>
        <time>2013-04-03T09:14:06Z</time>
      </trkpt>
      <trkpt lat="49.17376" lon="6.82298">
        <ele>262.5</ele>
        <time>2013-04-03T09:14:11Z</time>
      </trkpt>
      <trkpt lat="49.1738" lon="6.82298">
        <ele>263.7</ele>
        <time>2013-04-03T09:14:16Z</time>
      </trkpt>
      <trkpt lat="49.17387" lon="6.82298">
        <ele>264.6</ele>
        <time>2013-04-03T09:14:21Z</time>
      </trkpt>
      <trkpt lat="49.17395" lon="6.82298">
        <ele>264.1</ele>
        <time>2013-04-03T09:14:26Z</time>
      </trkpt>
      <trkpt lat="49.17402" lon="6.823">
        <ele>264.6</ele>
        <time>2013-04-03T09:14:31Z</time>
      </trkpt>
      <trkpt lat="49.1741" lon="6.82302">
        <ele>266</ele>
        <time>2013-04-03T09:14:36Z</time>
      </trkpt>
      <trkpt lat="49.17418" lon="6.82302">
        <ele>267.3</ele>
        <time>2013-04-03T09:14:41Z</time>
      </trkpt>
      <trkpt lat="49.17425" lon="6.82303">
        <ele>267.9</ele>
        <time>2013-04-03T09:14:46Z</time>
      </trkpt>
      <trkpt lat="49.17428" lon="6.82304">
        <ele>268.6</ele>
        <time>2013-04-03T09:14:51Z</time>
      </trkpt>
      <trkpt lat="49.17428" lon="6.82304">
        <ele>268.6</ele>
        <time>2013-04-03T09:14:52Z</time>
      </trkpt>
      <trkpt lat="49.17428" lon="6.82309">
        <ele>268.3</ele>
        <time>2013-04-03T09:15:01Z</time>
      </trkpt>
      <trkpt lat="49.17428" lon="6.82311">
        <ele>268.3</ele>
        <time>2013-04-03T09:15:06Z</time>
      </trkpt>
      <trkpt lat="49.1743" lon="6.8231">
        <ele>268.5</ele>
        <time>2013-04-03T09:15:11Z</time>
      </trkpt>
      <trkpt lat="49.17435" lon="6.82309">
        <ele>268.9</ele>
        <time>2013-04-03T09:15:16Z</time>
      </trkpt>
      <trkpt lat="49.17441" lon="6.82308">
        <ele>269.3</ele>
        <time>2013-04-03T09:15:21Z</time>
      </trkpt>
      <trkpt lat="49.17447" lon="6.82308">
        <ele>270.5</ele>
        <time>2013-04-03T09:15:26Z</time>
      </trkpt>
      <trkpt lat="49.17454" lon="6.82309">
        <ele>271.3</ele>
        <time>2013-04-03T09:15:31Z</time>
      </trkpt>
      <trkpt lat="49.1746" lon="6.82315">
        <ele>271.4</ele>
        <time>2013-04-03T09:15:36Z</time>
      </trkpt>
      <trkpt lat="49.17465" lon="6.82316">
        <ele>272.1</ele>
        <time>2013-04-03T09:15:41Z</time>
      </trkpt>
      <trkpt lat="49.17469" lon="6.8232">
        <ele>272</ele>
        <time>2013-04-03T09:15:46Z</time>
      </trkpt>
      <trkpt lat="49.17472" lon="6.82326">
        <ele>272.1</ele>
        <time>2013-04-03T09:15:51Z</time>
      </trkpt>
      <trkpt lat="49.17475" lon="6.82333">
        <ele>271.1</ele>
        <time>2013-04-03T09:15:56Z</time>
      </trkpt>
      <trkpt lat="49.17476" lon="6.82334">
        <ele>270.9</ele>
        <time>2013-04-03T09:15:57Z</time>
      </trkpt>
      <trkpt lat="49.1748" lon="6.82348">
        <ele>271</ele>
        <time>2013-04-03T09:16:06Z</time>
      </trkpt>
      <trkpt lat="49.17482" lon="6.82356">
        <ele>271.1</ele>
        <time>2013-04-03T09:16:11Z</time>
      </trkpt>
      <trkpt lat="49.17484" lon="6.82365">
        <ele>270.1</ele>
        <time>2013-04-03T09:16:16Z</time>
      </trkpt>
      <trkpt lat="49.17485" lon="6.82372">
        <ele>269.7</ele>
        <time>2013-04-03T09:16:21Z</time>
      </trkpt>
      <trkpt lat="49.17487" lon="6.8238">
        <ele>269.9</ele>
        <time>2013-04-03T09:16:26Z</time>
      </trkpt>
      <trkpt lat="49.17489" lon="6.82388">
        <ele>269.8</ele>
        <time>2013-04-03T09:16:31Z</time>
      </trkpt>
      <trkpt lat="49.17489" lon="6.82395">
        <ele>269.4</ele>
        <time>2013-04-03T09:16:36Z</time>
      </trkpt>
      <trkpt lat="49.17489" lon="6.82402">
        <ele>269.7</ele>
        <time>2013-04-03T09:16:41Z</time>
      </trkpt>
      <trkpt lat="49.17489" lon="6.82409">
        <ele>268.9</ele>
        <time>2013-04-03T09:16:46Z</time>
      </trkpt>
      <trkpt lat="49.17489" lon="6.82416">
        <ele>268.4</ele>
        <time>2013-04-03T09:16:51Z</time>
      </trkpt>
      <trkpt lat="49.1749" lon="6.82425">
        <ele>268.4</ele>
        <time>2013-04-03T09:16:56Z</time>
      </trkpt>
      <trkpt lat="49.17491" lon="6.82435">
        <ele>268.2</ele>
        <time>2013-04-03T09:17:01Z</time>
      </trkpt>
      <trkpt lat="49.17491" lon="6.82437">
        <ele>268.3</ele>
        <time>2013-04-03T09:17:02Z</time>
      </trkpt>
      <trkpt lat="49.17492" lon="6.82454">
        <ele>267.2</ele>
        <time>2013-04-03T09:17:11Z</time>
      </trkpt>
      <trkpt lat="49.17494" lon="6.82464">
        <ele>267.1</ele>
        <time>2013-04-03T09:17:16Z</time>
      </trkpt>
      <trkpt lat="49.17494" lon="6.82472">
        <ele>266.1</ele>
        <time>2013-04-03T09:17:21Z</time>
      </trkpt>
      <trkpt lat="49.17495" lon="6.82481">
        <ele>265.1</ele>
        <time>2013-04-03T09:17:26Z</time>
      </trkpt>
      <trkpt lat="49.17493" lon="6.82491">
        <ele>265.5</ele>
        <time>2013-04-03T09:17:31Z</time>
      </trkpt>
      <trkpt lat="49.17493" lon="6.82502">
        <ele>265.2</ele>
        <time>2013-04-03T09:17:36Z</time>
      </trkpt>
      <trkpt lat="49.17494" lon="6.82512">
        <ele>264.8</ele>
        <time>2013-04-03T09:17:41Z</time>
      </trkpt>
      <trkpt lat="49.17495" lon="6.82522">
        <ele>264.4</ele>
        <time>2013-04-03T09:17:46Z</time>
      </trkpt>
      <trkpt lat="49.17496" lon="6.82532">
        <ele>263.2</ele>
        <time>2013-04-03T09:17:51Z</time>
      </trkpt>
      <trkpt lat="49.17498" lon="6.82541">
        <ele>262.4</ele>
        <time>2013-04-03T09:17:56Z</time>
      </trkpt>
      <trkpt lat="49.17499" lon="6.8255">
        <ele>262.1</ele>
        <time>2013-04-03T09:18:01Z</time>
      </trkpt>
      <trkpt lat="49.17501" lon="6.82559">
        <ele>261.5</ele>
        <time>2013-04-03T09:18:06Z</time>
      </trkpt>
      <trkpt lat="49.17501" lon="6.8256">
        <ele>261.2</ele>
        <time>2013-04-03T09:18:07Z</time>
      </trkpt>
      <trkpt lat="49.17504" lon="6.82577">
        <ele>260.3</ele>
        <time>2013-04-03T09:18:16Z</time>
      </trkpt>
      <trkpt lat="49.17506" lon="6.82586">
        <ele>260.1</ele>
        <time>2013-04-03T09:18:21Z</time>
      </trkpt>
      <trkpt lat="49.17508" lon="6.82595">
        <ele>259.2</ele>
        <time>2013-04-03T09:18:26Z</time>
      </trkpt>
      <trkpt lat="49.1751" lon="6.82603">
        <ele>258.6</ele>
        <time>2013-04-03T09:18:31Z</time>
      </trkpt>
      <trkpt lat="49.17511" lon="6.82613">
        <ele>258.2</ele>
        <time>2013-04-03T09:18:36Z</time>
      </trkpt>
      <trkpt lat="49.17511" lon="6.82623">
        <ele>258.5</ele>
        <time>2013-04-03T09:18:41Z</time>
      </trkpt>
      <trkpt lat="49.17512" lon="6.82633">
        <ele>257.4</ele>
        <time>2013-04-03T09:18:46Z</time>
      </trkpt>
      <trkpt lat="49.17512" lon="6.82643">
        <ele>257.5</ele>
        <time>2013-04-03T09:18:51Z</time>
      </trkpt>
      <trkpt lat="49.17512" lon="6.82654">
        <ele>257.8</ele>
        <time>2013-04-03T09:18:56Z</time>
      </trkpt>
      <trkpt lat="49.17512" lon="6.82664">
        <ele>257.9</ele>
        <time>2013-04-03T09:19:01Z</time>
      </trkpt>
      <trkpt lat="49.17512" lon="6.82674">
        <ele>257.2</ele>
        <time>2013-04-03T09:19:06Z</time>
      </trkpt>
      <trkpt lat="49.17511" lon="6.82683">
        <ele>256.3</ele>
        <time>2013-04-03T09:19:11Z</time>
      </trkpt>
      <trkpt lat="49.17511" lon="6.82685">
        <ele>256.3</ele>
        <time>2013-04-03T09:19:12Z</time>
      </trkpt>
      <trkpt lat="49.17513" lon="6.827">
        <ele>255.9</ele>
        <time>2013-04-03T09:19:21Z</time>
      </trkpt>
      <trkpt lat="49.17515" lon="6.82707">
        <ele>255.9</ele>
        <time>2013-04-03T09:19:26Z</time>
      </trkpt>
      <trkpt lat="49.17517" lon="6.82714">
        <ele>255.3</ele>
        <time>2013-04-03T09:19:31Z</time>
      </trkpt>
      <trkpt lat="49.17518" lon="6.82721">
        <ele>254.9</ele>
        <time>2013-04-03T09:19:36Z</time>
      </trkpt>
      <trkpt lat="49.17518" lon="6.82728">
        <ele>254.3</ele>
        <time>2013-04-03T09:19:41Z</time>
      </trkpt>
      <trkpt lat="49.17518" lon="6.82735">
        <ele>254.1</ele>
        <time>2013-04-03T09:19:46Z</time>
      </trkpt>
      <trkpt lat="49.17517" lon="6.82743">
        <ele>254.7</ele>
        <time>2013-04-03T09:19:51Z</time>
      </trkpt>
      <trkpt lat="49.17517" lon="6.82751">
        <ele>253.7</ele>
        <time>2013-04-03T09:19:56Z</time>
      </trkpt>
      <trkpt lat="49.17517" lon="6.82759">
        <ele>253.6</ele>
        <time>2013-04-03T09:20:01Z</time>
      </trkpt>
      <trkpt lat="49.17517" lon="6.82768">
        <ele>254</ele>
        <time>2013-04-03T09:20:06Z</time>
      </trkpt>
      <trkpt lat="49.17518" lon="6.82775">
        <ele>254</ele>
        <time>2013-04-03T09:20:11Z</time>
      </trkpt>
      <trkpt lat="49.1752" lon="6.82782">
        <ele>253.1</ele>
        <time>2013-04-03T09:20:16Z</time>
      </trkpt>
      <trkpt lat="49.1752" lon="6.82783">
        <ele>252.9</ele>
        <time>2013-04-03T09:20:17Z</time>
      </trkpt>
      <trkpt lat="49.1752" lon="6.82797">
        <ele>252.6</ele>
        <time>2013-04-03T09:20:26Z</time>
      </trkpt>
      <trkpt lat="49.17521" lon="6.82805">
        <ele>252.5</ele>
        <time>2013-04-03T09:20:31Z</time>
      </trkpt>
      <trkpt lat="49.17521" lon="6.82813">
        <ele>253</ele>
        <time>2013-04-03T09:20:36Z</time>
      </trkpt>
      <trkpt lat="49.17522" lon="6.82822">
        <ele>253</ele>
        <time>2013-04-03T09:20:41Z</time>
      </trkpt>
      <trkpt lat="49.17523" lon="6.8283">
        <ele>252.5</ele>
        <time>2013-04-03T09:20:46Z</time>
      </trkpt>
      <trkpt lat="49.17524" lon="6.82839">
        <ele>252.6</ele>
        <time>2013-04-03T09:20:51Z</time>
      </trkpt>
      <trkpt lat="49.17525" lon="6.82849">
        <ele>252.2</ele>
        <time>2013-04-03T09:20:56Z</time>
      </trkpt>
      <trkpt lat="49.17527" lon="6.82858">
        <ele>252.2</ele>
        <time>2013-04-03T09:21:01Z</time>
      </trkpt>
      <trkpt lat="49.17529" lon="6.82867">
        <ele>252.5</ele>
        <time>2013-04-03T09:21:06Z</time>
      </trkpt>
      <trkpt lat="49.17532" lon="6.82874">
        <ele>251.5</ele>
        <time>2013-04-03T09:21:11Z</time>
      </trkpt>
      <trkpt lat="49.17533" lon="6.82883">
        <ele>252.1</ele>
        <time>2013-04-03T09:21:16Z</time>
      </trkpt>
      <trkpt lat="49.17536" lon="6.82891">
        <ele>251.9</ele>
        <time>2013-04-03T09:21:21Z</time>
      </trkpt>
      <trkpt lat="49.17536" lon="6.82892">
        <ele>251.8</ele>
        <time>2013-04-03T09:21:22Z</time>
      </trkpt>
      <trkpt lat="49.1754" lon="6.82908">
        <ele>251.8</ele>
        <time>2013-04-03T09:21:31Z</time>
      </trkpt>
      <trkpt lat="49.17542" lon="6.82918">
        <ele>251.4</ele>
        <time>2013-04-03T09:21:36Z</time>
      </trkpt>
      <trkpt lat="49.17544" lon="6.82927">
        <ele>250.7</ele>
        <time>2013-04-03T09:21:41Z</time>
      </trkpt>
      <trkpt lat="49.17546" lon="6.82937">
        <ele>251</ele>
        <time>2013-04-03T09:21:46Z</time>
      </trkpt>
      <trkpt lat="49.17547" lon="6.82946">
        <ele>251.3</ele>
        <time>2013-04-03T09:21:51Z</time>
      </trkpt>
      <trkpt lat="49.17549" lon="6.82955">
        <ele>250.7</ele>
        <time>2013-04-03T09:21:56Z</time>
      </trkpt>
      <trkpt lat="49.17552" lon="6.82965">
        <ele>250.4</ele>
        <time>2013-04-03T09:22:01Z</time>
      </trkpt>
      <trkpt lat="49.17553" lon="6.82974">
        <ele>250</ele>
        <time>2013-04-03T09:22:06Z</time>
      </trkpt>
      <trkpt lat="49.17556" lon="6.82983">
        <ele>250.3</ele>
        <time>2013-04-03T09:22:11Z</time>
      </trkpt>
      <trkpt lat="49.17558" lon="6.82991">
        <ele>250.4</ele>
        <time>2013-04-03T09:22:16Z</time>
      </trkpt>
      <trkpt lat="49.1756" lon="6.82999">
        <ele>250.8</ele>
        <time>2013-04-03T09:22:21Z</time>
      </trkpt>
      <trkpt lat="49.17563" lon="6.83006">
        <ele>250.2</ele>
        <time>2013-04-03T09:22:26Z</time>
      </trkpt>
      <trkpt lat="49.17563" lon="6.83008">
        <ele>250.4</ele>
        <time>2013-04-03T09:22:27Z</time>
      </trkpt>
      <trkpt lat="49.17566" lon="6.83024">
        <ele>250.2</ele>
        <time>2013-04-03T09:22:36Z</time>
      </trkpt>
      <trkpt lat="49.17568" lon="6.83032">
        <ele>250</ele>
        <time>2013-04-03T09:22:41Z</time>
      </trkpt>
      <trkpt lat="49.1757" lon="6.83039">
        <ele>250.3</ele>
        <time>2013-04-03T09:22:46Z</time>
      </trkpt>
      <trkpt lat="49.17572" lon="6.83048">
        <ele>250.5</ele>
        <time>2013-04-03T09:22:51Z</time>
      </trkpt>
      <trkpt lat="49.17574" lon="6.83056">
        <ele>249.9</ele>
        <time>2013-04-03T09:22:56Z</time>
      </trkpt>
      <trkpt lat="49.17577" lon="6.83065">
        <ele>250.3</ele>
        <time>2013-04-03T09:23:01Z</time>
      </trkpt>
      <trkpt lat="49.17578" lon="6.83074">
        <ele>250.5</ele>
        <time>2013-04-03T09:23:06Z</time>
      </trkpt>
      <trkpt lat="49.1758" lon="6.83083">
        <ele>249.9</ele>
        <time>2013-04-03T09:23:11Z</time>
      </trkpt>
      <trkpt lat="49.17581" lon="6.83091">
        <ele>249.8</ele>
        <time>2013-04-03T09:23:16Z</time>
      </trkpt>
      <trkpt lat="49.17584" lon="6.83099">
        <ele>249.3</ele>
        <time>2013-04-03T09:23:21Z</time>
      </trkpt>
      <trkpt lat="49.17586" lon="6.83108">
        <ele>249.3</ele>
        <time>2013-04-03T09:23:26Z</time>
      </trkpt>
      <trkpt lat="49.17588" lon="6.83116">
        <ele>249.3</ele>
        <time>2013-04-03T09:23:31Z</time>
      </trkpt>
      <trkpt lat="49.17589" lon="6.83118">
        <ele>249.5</ele>
        <time>2013-04-03T09:23:32Z</time>
      </trkpt>
      <trkpt lat="49.17593" lon="6.83133">
        <ele>249.4</ele>
        <time>2013-04-03T09:23:41Z</time>
      </trkpt>
      <trkpt lat="49.17596" lon="6.83142">
        <ele>247.8</ele>
        <time>2013-04-03T09:23:46Z</time>
      </trkpt>
      <trkpt lat="49.17597" lon="6.83152">
        <ele>248.2</ele>
        <time>2013-04-03T09:23:51Z</time>
      </trkpt>
      <trkpt lat="49.17599" lon="6.83161">
        <ele>248.5</ele>
        <time>2013-04-03T09:23:56Z</time>
      </trkpt>
      <trkpt lat="49.17601" lon="6.8317">
        <ele>247.9</ele>
        <time>2013-04-03T09:24:01Z</time>
      </trkpt>
      <trkpt lat="49.17604" lon="6.83178">
        <ele>248.7</ele>
        <time>2013-04-03T09:24:06Z</time>
      </trkpt>
      <trkpt lat="49.17607" lon="6.83187">
        <ele>248.6</ele>
        <time>2013-04-03T09:24:11Z</time>
      </trkpt>
      <trkpt lat="49.17609" lon="6.83196">
        <ele>247.3</ele>
        <time>2013-04-03T09:24:16Z</time>
      </trkpt>
      <trkpt lat="49.17611" lon="6.83204">
        <ele>247</ele>
        <time>2013-04-03T09:24:21Z</time>
      </trkpt>
      <trkpt lat="49.17613" lon="6.83212">
        <ele>246.9</ele>
        <time>2013-04-03T09:24:26Z</time>
      </trkpt>
      <trkpt lat="49.17616" lon="6.83221">
        <ele>246.3</ele>
        <time>2013-04-03T09:24:31Z</time>
      </trkpt>
      <trkpt lat="49.17619" lon="6.83229">
        <ele>246</ele>
        <time>2013-04-03T09:24:36Z</time>
      </trkpt>
      <trkpt lat="49.17619" lon="6.83231">
        <ele>245.9</ele>
        <time>2013-04-03T09:24:37Z</time>
      </trkpt>
      <trkpt lat="49.17624" lon="6.83245">
        <ele>245.3</ele>
        <time>2013-04-03T09:24:46Z</time>
      </trkpt>
      <trkpt lat="49.17626" lon="6.83253">
        <ele>245</ele>
        <time>2013-04-03T09:24:51Z</time>
      </trkpt>
      <trkpt lat="49.17628" lon="6.83261">
        <ele>243.7</ele>
        <time>2013-04-03T09:24:56Z</time>
      </trkpt>
      <trkpt lat="49.17629" lon="6.8327">
        <ele>242.8</ele>
        <time>2013-04-03T09:25:01Z</time>
      </trkpt>
      <trkpt lat="49.1763" lon="6.8328">
        <ele>242.8</ele>
        <time>2013-04-03T09:25:06Z</time>
      </trkpt>
      <trkpt lat="49.17632" lon="6.8329">
        <ele>242.8</ele>
        <time>2013-04-03T09:25:11Z</time>
      </trkpt>
      <trkpt lat="49.17635" lon="6.83297">
        <ele>243.3</ele>
        <time>2013-04-03T09:25:16Z</time>
      </trkpt>
      <trkpt lat="49.17638" lon="6.83305">
        <ele>242</ele>
        <time>2013-04-03T09:25:21Z</time>
      </trkpt>
      <trkpt lat="49.1764" lon="6.83313">
        <ele>241.7</ele>
        <time>2013-04-03T09:25:26Z</time>
      </trkpt>
      <trkpt lat="49.17643" lon="6.83322">
        <ele>241.7</ele>
        <time>2013-04-03T09:25:31Z</time>
      </trkpt>
      <trkpt lat="49.17645" lon="6.83331">
        <ele>241.1</ele>
        <time>2013-04-03T09:25:36Z</time>
      </trkpt>
      <trkpt lat="49.17648" lon="6.83339">
        <ele>241.5</ele>
        <time>2013-04-03T09:25:41Z</time>
      </trkpt>
      <trkpt lat="49.17649" lon="6.8334">
        <ele>241.4</ele>
        <time>2013-04-03T09:25:42Z</time>
      </trkpt>
      <trkpt lat="49.17653" lon="6.83356">
        <ele>241.2</ele>
        <time>2013-04-03T09:25:51Z</time>
      </trkpt>
      <trkpt lat="49.17655" lon="6.83365">
        <ele>240.2</ele>
        <time>2013-04-03T09:25:56Z</time>
      </trkpt>
      <trkpt lat="49.17658" lon="6.83374">
        <ele>240.7</ele>
        <time>2013-04-03T09:26:01Z</time>
      </trkpt>
      <trkpt lat="49.1766" lon="6.83383">
        <ele>241.3</ele>
        <time>2013-04-03T09:26:06Z</time>
      </trkpt>
      <trkpt lat="49.17661" lon="6.83392">
        <ele>240.1</ele>
        <time>2013-04-03T09:26:11Z</time>
      </trkpt>
      <trkpt lat="49.1766" lon="6.83399">
        <ele>238.8</ele>
        <time>2013-04-03T09:26:16Z</time>
      </trkpt>
      <trkpt lat="49.17656" lon="6.83405">
        <ele>238.7</ele>
        <time>2013-04-03T09:26:21Z</time>
      </trkpt>
      <trkpt lat="49.17651" lon="6.8341">
        <ele>238.9</ele>
        <time>2013-04-03T09:26:26Z</time>
      </trkpt>
      <trkpt lat="49.17646" lon="6.83414">
        <ele>237.7</ele>
        <time>2013-04-03T09:26:31Z</time>
      </trkpt>
      <trkpt lat="49.17641" lon="6.83415">
        <ele>237.2</ele>
        <time>2013-04-03T09:26:36Z</time>
      </trkpt>
      <trkpt lat="49.17636" lon="6.83414">
        <ele>236.9</ele>
        <time>2013-04-03T09:26:41Z</time>
      </trkpt>
      <trkpt lat="49.17629" lon="6.83412">
        <ele>237.2</ele>
        <time>2013-04-03T09:26:46Z</time>
      </trkpt>
      <trkpt lat="49.17628" lon="6.83411">
        <ele>236.7</ele>
        <time>2013-04-03T09:26:47Z</time>
      </trkpt>
      <trkpt lat="49.17618" lon="6.83404">
        <ele>234.7</ele>
        <time>2013-04-03T09:26:56Z</time>
      </trkpt>
      <trkpt lat="49.17613" lon="6.83399">
        <ele>234.7</ele>
        <time>2013-04-03T09:27:01Z</time>
      </trkpt>
      <trkpt lat="49.17608" lon="6.83394">
        <ele>234.3</ele>
        <time>2013-04-03T09:27:06Z</time>
      </trkpt>
      <trkpt lat="49.17603" lon="6.83391">
        <ele>233.8</ele>
        <time>2013-04-03T09:27:11Z</time>
      </trkpt>
      <trkpt lat="49.17597" lon="6.83389">
        <ele>232.5</ele>
        <time>2013-04-03T09:27:16Z</time>
      </trkpt>
      <trkpt lat="49.17592" lon="6.83388">
        <ele>231.3</ele>
        <time>2013-04-03T09:27:21Z</time>
      </trkpt>
      <trkpt lat="49.17586" lon="6.83385">
        <ele>230.7</ele>
        <time>2013-04-03T09:27:26Z</time>
      </trkpt>
      <trkpt lat="49.17581" lon="6.83381">
        <ele>230.1</ele>
        <time>2013-04-03T09:27:31Z</time>
      </trkpt>
      <trkpt lat="49.17575" lon="6.83376">
        <ele>229.1</ele>
        <time>2013-04-03T09:27:36Z</time>
      </trkpt>
      <trkpt lat="49.1757" lon="6.83372">
        <ele>229.3</ele>
        <time>2013-04-03T09:27:41Z</time>
      </trkpt>
      <trkpt lat="49.17565" lon="6.83368">
        <ele>228</ele>
        <time>2013-04-03T09:27:46Z</time>
      </trkpt>
      <trkpt lat="49.1756" lon="6.83364">
        <ele>227.6</ele>
        <time>2013-04-03T09:27:51Z</time>
      </trkpt>
      <trkpt lat="49.17559" lon="6.83363">
        <ele>227.8</ele>
        <time>2013-04-03T09:27:52Z</time>
      </trkpt>
      <trkpt lat="49.17548" lon="6.83356">
        <ele>225.1</ele>
        <time>2013-04-03T09:28:01Z</time>
      </trkpt>
      <trkpt lat="49.17543" lon="6.83351">
        <ele>224.2</ele>
        <time>2013-04-03T09:28:06Z</time>
      </trkpt>
      <trkpt lat="49.17538" lon="6.83346">
        <ele>224.3</ele>
        <time>2013-04-03T09:28:11Z</time>
      </trkpt>
      <trkpt lat="49.17534" lon="6.83342">
        <ele>222.7</ele>
        <time>2013-04-03T09:28:16Z</time>
      </trkpt>
      <trkpt lat="49.17529" lon="6.83338">
        <ele>222.8</ele>
        <time>2013-04-03T09:28:21Z</time>
      </trkpt>
      <trkpt lat="49.17525" lon="6.83335">
        <ele>222.5</ele>
        <time>2013-04-03T09:28:26Z</time>
      </trkpt>
      <trkpt lat="49.17521" lon="6.83331">
        <ele>221.6</ele>
        <time>2013-04-03T09:28:31Z</time>
      </trkpt>
      <trkpt lat="49.17518" lon="6.83327">
        <ele>221.7</ele>
        <time>2013-04-03T09:28:36Z</time>
      </trkpt>
      <trkpt lat="49.17515" lon="6.83323">
        <ele>221.1</ele>
        <time>2013-04-03T09:28:41Z</time>
      </trkpt>
      <trkpt lat="49.17511" lon="6.83317">
        <ele>220.8</ele>
        <time>2013-04-03T09:28:46Z</time>
      </trkpt>
      <trkpt lat="49.17507" lon="6.83311">
        <ele>220.2</ele>
        <time>2013-04-03T09:28:51Z</time>
      </trkpt>
      <trkpt lat="49.17504" lon="6.83304">
        <ele>218.9</ele>
        <time>2013-04-03T09:28:56Z</time>
      </trkpt>
      <trkpt lat="49.17504" lon="6.83302">
        <ele>219</ele>
        <time>2013-04-03T09:28:57Z</time>
      </trkpt>
      <trkpt lat="49.17496" lon="6.83289">
        <ele>218</ele>
        <time>2013-04-03T09:29:06Z</time>
      </trkpt>
      <trkpt lat="49.17492" lon="6.83283">
        <ele>217.4</ele>
        <time>2013-04-03T09:29:11Z</time>
      </trkpt>
      <trkpt lat="49.17489" lon="6.83278">
        <ele>216.4</ele>
        <time>2013-04-03T09:29:16Z</time>
      </trkpt>
      <trkpt lat="49.17487" lon="6.83274">
        <ele>216.1</ele>
        <time>2013-04-03T09:29:21Z</time>
      </trkpt>
      <trkpt lat="49.17486" lon="6.83271">
        <ele>216.6</ele>
        <time>2013-04-03T09:29:26Z</time>
      </trkpt>
      <trkpt lat="49.17484" lon="6.83269">
        <ele>216.7</ele>
        <time>2013-04-03T09:29:31Z</time>
      </trkpt>
      <trkpt lat="49.17483" lon="6.83267">
        <ele>215.7</ele>
        <time>2013-04-03T09:29:36Z</time>
      </trkpt>
      <trkpt lat="49.17481" lon="6.83266">
        <ele>215.7</ele>
        <time>2013-04-03T09:29:41Z</time>
      </trkpt>
      <trkpt lat="49.17481" lon="6.83266">
        <ele>216.5</ele>
        <time>2013-04-03T09:29:46Z</time>
      </trkpt>
      <trkpt lat="49.17478" lon="6.83267">
        <ele>215.4</ele>
        <time>2013-04-03T09:29:51Z</time>
      </trkpt>
      <trkpt lat="49.17475" lon="6.8327">
        <ele>214.8</ele>
        <time>2013-04-03T09:29:56Z</time>
      </trkpt>
      <trkpt lat="49.1747" lon="6.83273">
        <ele>214.1</ele>
        <time>2013-04-03T09:30:01Z</time>
      </trkpt>
      <trkpt lat="49.17469" lon="6.83273">
        <ele>214.1</ele>
        <time>2013-04-03T09:30:02Z</time>
      </trkpt>
      <trkpt lat="49.17466" lon="6.83264">
        <ele>213.5</ele>
        <time>2013-04-03T09:30:11Z</time>
      </trkpt>
      <trkpt lat="49.17464" lon="6.83256">
        <ele>213.9</ele>
        <time>2013-04-03T09:30:16Z</time>
      </trkpt>
      <trkpt lat="49.17462" lon="6.83249">
        <ele>213.4</ele>
        <time>2013-04-03T09:30:21Z</time>
      </trkpt>
      <trkpt lat="49.17459" lon="6.83242">
        <ele>213.3</ele>
        <time>2013-04-03T09:30:26Z</time>
      </trkpt>
      <trkpt lat="49.17457" lon="6.83234">
        <ele>213.6</ele>
        <time>2013-04-03T09:30:31Z</time>
      </trkpt>
      <trkpt lat="49.17455" lon="6.83226">
        <ele>214.3</ele>
        <time>2013-04-03T09:30:36Z</time>
      </trkpt>
      <trkpt lat="49.17454" lon="6.83218">
        <ele>213.8</ele>
        <time>2013-04-03T09:30:41Z</time>
      </trkpt>
      <trkpt lat="49.17452" lon="6.83209">
        <ele>214.4</ele>
        <time>2013-04-03T09:30:46Z</time>
      </trkpt>
      <trkpt lat="49.17449" lon="6.83203">
        <ele>214.3</ele>
        <time>2013-04-03T09:30:51Z</time>
      </trkpt>
      <trkpt lat="49.17447" lon="6.83196">
        <ele>215</ele>
        <time>2013-04-03T09:30:56Z</time>
      </trkpt>
      <trkpt lat="49.17444" lon="6.83193">
        <ele>214.8</ele>
        <time>2013-04-03T09:31:01Z</time>
      </trkpt>
      <trkpt lat="49.17442" lon="6.8319">
        <ele>214.8</ele>
        <time>2013-04-03T09:31:06Z</time>
      </trkpt>
      <trkpt lat="49.17442" lon="6.8319">
        <ele>215.1</ele>
        <time>2013-04-03T09:31:07Z</time>
      </trkpt>
      <trkpt lat="49.1744" lon="6.83179">
        <ele>215.1</ele>
        <time>2013-04-03T09:31:16Z</time>
      </trkpt>
      <trkpt lat="49.17438" lon="6.83171">
        <ele>215.2</ele>
        <time>2013-04-03T09:31:21Z</time>
      </trkpt>
      <trkpt lat="49.17436" lon="6.83162">
        <ele>215.1</ele>
        <time>2013-04-03T09:31:26Z</time>
      </trkpt>
      <trkpt lat="49.17434" lon="6.83154">
        <ele>214.8</ele>
        <time>2013-04-03T09:31:31Z</time>
      </trkpt>
      <trkpt lat="49.17432" lon="6.83146">
        <ele>215.1</ele>
        <time>2013-04-03T09:31:36Z</time>
      </trkpt>
      <trkpt lat="49.17429" lon="6.83139">
        <ele>215.2</ele>
        <time>2013-04-03T09:31:41Z</time>
      </trkpt>
      <trkpt lat="49.17426" lon="6.8313">
        <ele>215.2</ele>
        <time>2013-04-03T09:31:46Z</time>
      </trkpt>
      <trkpt lat="49.17422" lon="6.83121">
        <ele>216.5</ele>
        <time>2013-04-03T09:31:51Z</time>
      </trkpt>
      <trkpt lat="49.1742" lon="6.83114">
        <ele>216.6</ele>
        <time>2013-04-03T09:31:56Z</time>
      </trkpt>
      <trkpt lat="49.17417" lon="6.83107">
        <ele>216.5</ele>
        <time>2013-04-03T09:32:01Z</time>
      </trkpt>
      <trkpt lat="49.17414" lon="6.83101">
        <ele>217.6</ele>
        <time>2013-04-03T09:32:06Z</time>
      </trkpt>
      <trkpt lat="49.17411" lon="6.83096">
        <ele>217.3</ele>
        <time>2013-04-03T09:32:11Z</time>
      </trkpt>
      <trkpt lat="49.1741" lon="6.83096">
        <ele>217.5</ele>
        <time>2013-04-03T09:32:12Z</time>
      </trkpt>
      <trkpt lat="49.17405" lon="6.83088">
        <ele>218.6</ele>
        <time>2013-04-03T09:32:21Z</time>
      </trkpt>
      <trkpt lat="49.17401" lon="6.83088">
        <ele>218.7</ele>
        <time>2013-04-03T09:32:26Z</time>
      </trkpt>
      <trkpt lat="49.17399" lon="6.83088">
        <ele>218.6</ele>
        <time>2013-04-03T09:32:31Z</time>
      </trkpt>
      <trkpt lat="49.17398" lon="6.83088">
        <ele>218.6</ele>
        <time>2013-04-03T09:32:36Z</time>
      </trkpt>
      <trkpt lat="49.17398" lon="6.83089">
        <ele>218.2</ele>
        <time>2013-04-03T09:32:41Z</time>
      </trkpt>
      <trkpt lat="49.17397" lon="6.83091">
        <ele>218.5</ele>
        <time>2013-04-03T09:32:46Z</time>
      </trkpt>
      <trkpt lat="49.17396" lon="6.83095">
        <ele>218.3</ele>
        <time>2013-04-03T09:32:51Z</time>
      </trkpt>
      <trkpt lat="49.17396" lon="6.83098">
        <ele>217.4</ele>
        <time>2013-04-03T09:32:56Z</time>
      </trkpt>
      <trkpt lat="49.17396" lon="6.831">
        <ele>217.4</ele>
        <time>2013-04-03T09:33:01Z</time>
      </trkpt>
      <trkpt lat="49.17398" lon="6.83102">
        <ele>216.8</ele>
        <time>2013-04-03T09:33:06Z</time>
      </trkpt>
      <trkpt lat="49.17399" lon="6.83103">
        <ele>216.9</ele>
        <time>2013-04-03T09:33:11Z</time>
      </trkpt>
      <trkpt lat="49.17401" lon="6.83104">
        <ele>217</ele>
        <time>2013-04-03T09:33:16Z</time>
      </trkpt>
      <trkpt lat="49.17401" lon="6.83104">
        <ele>217.2</ele>
        <time>2013-04-03T09:33:17Z</time>
      </trkpt>
      <trkpt lat="49.17402" lon="6.83105">
        <ele>217.4</ele>
        <time>2013-04-03T09:33:26Z</time>
      </trkpt>
      <trkpt lat="49.17404" lon="6.83104">
        <ele>218.4</ele>
        <time>2013-04-03T09:33:31Z</time>
      </trkpt>
      <trkpt lat="49.17405" lon="6.83104">
        <ele>218</ele>
        <time>2013-04-03T09:33:36Z</time>
      </trkpt>
      <trkpt lat="49.17406" lon="6.83103">
        <ele>218</ele>
        <time>2013-04-03T09:33:41Z</time>
      </trkpt>
      <trkpt lat="49.17407" lon="6.83101">
        <ele>217.5</ele>
        <time>2013-04-03T09:33:46Z</time>
      </trkpt>
      <trkpt lat="49.17407" lon="6.83098">
        <ele>217.4</ele>
        <time>2013-04-03T09:33:51Z</time>
      </trkpt>
      <trkpt lat="49.17407" lon="6.83097">
        <ele>218.1</ele>
        <time>2013-04-03T09:33:54Z</time>
      </trkpt>
      <trkpt lat="49.17407" lon="6.83095">
        <ele>217.9</ele>
        <time>2013-04-03T09:33:56Z</time>
      </trkpt>
      <trkpt lat="49.17407" lon="6.83094">
        <ele>217.4</ele>
        <time>2013-04-03T09:33:59Z</time>
      </trkpt>
    </trkseg>
  </trk>
</gpx>